[[{"header":{"parameterUnit":"m.s-1","parameterCategory":1,"la1":30.6,"la2":29.2853,"lo1":-89.7004,"lo2":-87.6739,"dx":0.0162,"dy":0.0183,"nx":112,"ny":82,"refTime":"2022-11-10T06:00:00:Z","depth":0,"parameterNumber":2,"parameterNumberName":"U-component_of_WINDS"},"data":[0.0,0.0,0.0,0.0,0.0,0.0,0.0,0.0,0.0,0.0,0.0,0.0,0.0,0.0,0.0,0.0,0.0,0.0,0.0,0.0,0.0,0.0,0.0,0.0,0.0,0.0,0.0,0.0,0.0,0.0,0.0,0.0,0.0,0.0,0.0,0.0,0.0,0.0,0.0,0.0,0.0,0.0,0.0,0.0,0.0,0.0,0.0,0.0,0.0,0.0,0.0,0.0,0.0,0.0,0.0,0.0,0.0,0.0,0.0,0.0,0.0,0.0,0.0,0.0,0.0,0.0,0.0,0.0,0.0,0.0,0.0,0.0,0.0,0.0,0.0,0.0,0.0,0.0,0.0,0.0,0.0,0.0,0.0,0.0,0.0,0.0,0.0,0.0,0.0,0.0,7.6785,8.0664,8.5039,8.7383,8.664,8.4336,7.9219,7.0547,0.0,0.0,0.0,0.0,0.0,0.0,0.0,0.0,0.0,0.0,0.0,0.0,0.0,0.0,0.0,0.0,0.0,0.0,0.0,0.0,0.0,0.0,0.0,0.0,0.0,0.0,0.0,0.0,0.0,0.0,0.0,0.0,0.0,0.0,0.0,0.0,0.0,0.0,0.0,0.0,0.0,0.0,0.0,0.0,0.0,0.0,0.0,0.0,0.0,0.0,0.0,0.0,0.0,0.0,0.0,0.0,0.0,0.0,0.0,0.0,0.0,0.0,0.0,0.0,0.0,0.0,0.0,0.0,0.0,0.0,0.0,0.0,0.0,0.0,0.0,0.0,0.0,0.0,0.0,0.0,0.0,0.0,0.0,0.0,0.0,0.0,0.0,0.0,0.0,0.0,0.0,0.0,0.0,0.0,0.0,0.0,0.0,0.0,0.0,0.0,0.0,0.0,0.0,0.0,7.6367,8.6289,8.8047,8.8476,8.832,8.664,8.1914,7.3242,0.0,0.0,0.0,0.0,0.0,0.0,0.0,0.0,0.0,0.0,0.0,0.0,0.0,0.0,0.0,0.0,0.0,0.0,0.0,0.0,0.0,0.0,0.0,0.0,0.0,0.0,0.0,0.0,0.0,0.0,0.0,0.0,0.0,0.0,0.0,0.0,0.0,0.0,0.0,0.0,0.0,0.0,0.0,0.0,0.0,0.0,0.0,0.0,0.0,0.0,0.0,0.0,0.0,0.0,0.0,0.0,0.0,0.0,0.0,0.0,0.0,0.0,0.0,0.0,0.0,0.0,0.0,0.0,0.0,0.0,0.0,0.0,0.0,0.0,0.0,0.0,0.0,0.0,0.0,0.0,0.0,0.0,0.0,0.0,0.0,0.0,0.0,0.0,0.0,0.0,0.0,0.0,0.0,0.0,0.0,0.0,0.0,0.0,0.0,0.0,0.0,0.0,0.0,7.4922,8.1523,8.9922,9.082,9.082,9.082,8.8828,8.3672,7.457,6.8867,0.0,0.0,0.0,0.0,0.0,0.0,0.0,0.0,0.0,0.0,0.0,0.0,0.0,0.0,0.0,0.0,0.0,0.0,0.0,0.0,0.0,0.0,0.0,0.0,0.0,0.0,0.0,0.0,0.0,0.0,0.0,0.0,0.0,0.0,0.0,0.0,0.0,0.0,0.0,0.0,0.0,0.0,0.0,0.0,0.0,0.0,0.0,0.0,0.0,0.0,0.0,0.0,0.0,0.0,0.0,0.0,0.0,0.0,0.0,0.0,0.0,0.0,0.0,0.0,0.0,0.0,0.0,0.0,0.0,0.0,0.0,0.0,0.0,0.0,0.0,0.0,0.0,0.0,0.0,0.0,0.0,0.0,0.0,0.0,0.0,0.0,0.0,0.0,0.0,0.0,0.0,0.0,0.0,0.0,0.0,0.0,0.0,0.0,0.0,0.0,0.0,0.0,8.2617,8.7578,9.2383,9.289,9.2812,9.2617,9.0039,8.4453,7.5195,7.0195,0.0,0.0,0.0,0.0,0.0,0.0,0.0,0.0,0.0,0.0,0.0,0.0,0.0,0.0,0.0,0.0,0.0,0.0,0.0,0.0,0.0,0.0,0.0,0.0,0.0,0.0,0.0,0.0,0.0,0.0,0.0,0.0,0.0,0.0,0.0,0.0,0.0,0.0,0.0,0.0,0.0,0.0,0.0,0.0,0.0,0.0,0.0,0.0,0.0,0.0,0.0,0.0,0.0,0.0,0.0,0.0,0.0,0.0,0.0,0.0,0.0,0.0,0.0,0.0,0.0,0.0,0.0,0.0,0.0,0.0,0.0,0.0,0.0,0.0,0.0,0.0,0.0,0.0,0.0,0.0,0.0,0.0,0.0,0.0,0.0,0.0,0.0,0.0,0.0,0.0,0.0,0.0,0.0,0.0,0.0,0.0,0.0,0.0,0.0,0.0,0.0,0.0,8.5898,9.2422,9.3672,9.3828,9.3476,9.2656,8.9531,8.3867,7.5156,6.9062,0.0,0.0,0.0,0.0,0.0,0.0,0.0,0.0,0.0,0.0,0.0,0.0,0.0,0.0,0.0,0.0,0.0,0.0,0.0,0.0,0.0,0.0,0.0,0.0,0.0,0.0,0.0,0.0,0.0,0.0,0.0,0.0,0.0,0.0,0.0,0.0,0.0,0.0,0.0,0.0,0.0,0.0,0.0,0.0,0.0,0.0,0.0,0.0,0.0,0.0,0.0,0.0,0.0,0.0,0.0,0.0,0.0,0.0,0.0,0.0,0.0,0.0,0.0,0.0,0.0,0.0,0.0,0.0,0.0,0.0,0.0,0.0,0.0,0.0,0.0,0.0,0.0,0.0,0.0,0.0,0.0,0.0,0.0,0.0,0.0,0.0,0.0,0.0,0.0,0.0,0.0,0.0,0.0,0.0,0.0,0.0,0.0,0.0,0.0,0.0,0.0,0.0,8.4336,9.0586,9.3594,9.4375,9.4375,9.3476,9.1719,8.6523,7.6836,0.0,0.0,0.0,0.0,0.0,0.0,0.0,0.0,0.0,0.0,0.0,0.0,0.0,0.0,0.0,0.0,0.0,0.0,0.0,0.0,0.0,0.0,0.0,0.0,0.0,0.0,0.0,0.0,0.0,0.0,0.0,0.0,0.0,0.0,0.0,0.0,0.0,0.0,0.0,0.0,0.0,0.0,0.0,0.0,0.0,0.0,0.0,0.0,0.0,0.0,0.0,0.0,0.0,0.0,0.0,0.0,0.0,0.0,0.0,0.0,0.0,0.0,0.0,0.0,0.0,0.0,0.0,0.0,0.0,0.0,0.0,0.0,0.0,0.0,0.0,0.0,0.0,0.0,0.0,0.0,0.0,0.0,0.0,0.0,0.0,0.0,0.0,0.0,0.0,0.0,0.0,0.0,0.0,0.0,0.0,0.0,0.0,0.0,0.0,0.0,0.0,0.0,7.668,8.457,9.0664,9.3594,9.4687,9.4726,9.3594,9.2422,8.75,7.7422,0.0,0.0,0.0,0.0,0.0,0.0,0.0,0.0,0.0,0.0,0.0,0.0,0.0,0.0,0.0,0.0,0.0,0.0,0.0,0.0,0.0,0.0,0.0,0.0,0.0,0.0,0.0,0.0,0.0,0.0,0.0,0.0,0.0,0.0,0.0,0.0,0.0,0.0,0.0,0.0,0.0,0.0,0.0,0.0,0.0,0.0,0.0,0.0,0.0,0.0,0.0,0.0,0.0,0.0,0.0,0.0,0.0,0.0,0.0,0.0,0.0,0.0,0.0,0.0,0.0,0.0,0.0,0.0,0.0,0.0,0.0,0.0,0.0,0.0,0.0,0.0,0.0,0.0,0.0,0.0,0.0,0.0,0.0,0.0,0.0,0.0,0.0,0.0,0.0,0.0,0.0,0.0,0.0,0.0,0.0,0.0,0.0,0.0,0.0,0.0,0.0,0.0,7.7969,8.75,9.3945,9.3906,9.4687,9.4492,9.2773,9.1015,8.5976,0.0,0.0,0.0,0.0,0.0,0.0,0.0,0.0,0.0,0.0,0.0,0.0,0.0,0.0,0.0,0.0,0.0,0.0,0.0,0.0,0.0,0.0,0.0,0.0,0.0,0.0,0.0,0.0,0.0,0.0,0.0,0.0,0.0,0.0,0.0,0.0,0.0,0.0,0.0,0.0,0.0,0.0,0.0,0.0,0.0,0.0,0.0,0.0,0.0,0.0,0.0,0.0,0.0,0.0,0.0,0.0,0.0,0.0,0.0,0.0,0.0,0.0,0.0,0.0,0.0,0.0,0.0,0.0,0.0,0.0,0.0,0.0,0.0,0.0,0.0,0.0,0.0,0.0,0.0,0.0,0.0,0.0,0.0,0.0,0.0,0.0,0.0,0.0,0.0,0.0,0.0,0.0,0.0,0.0,0.0,0.0,0.0,0.0,0.0,0.0,0.0,0.0,0.0,7.8867,8.8945,9.5508,9.4883,9.5039,9.4726,9.3594,9.2461,8.7539,7.7461,0.0,0.0,0.0,0.0,0.0,0.0,0.0,0.0,0.0,0.0,0.0,0.0,0.0,0.0,0.0,0.0,0.0,0.0,0.0,0.0,0.0,0.0,0.0,0.0,0.0,0.0,0.0,0.0,0.0,0.0,0.0,0.0,0.0,0.0,0.0,0.0,0.0,0.0,0.0,0.0,0.0,0.0,0.0,0.0,0.0,0.0,0.0,0.0,0.0,0.0,0.0,0.0,0.0,0.0,0.0,0.0,0.0,0.0,0.0,0.0,0.0,0.0,0.0,0.0,0.0,0.0,0.0,0.0,0.0,0.0,0.0,0.0,0.0,0.0,0.0,0.0,0.0,0.0,0.0,0.0,0.0,0.0,0.0,0.0,0.0,0.0,0.0,0.0,0.0,0.0,0.0,0.0,0.0,0.0,0.0,0.0,0.0,0.0,0.0,0.0,0.0,0.0,7.8867,8.8437,9.4883,9.4687,9.4687,9.4609,9.4414,9.3633,8.9609,8.1328,0.0,0.0,0.0,0.0,0.0,0.0,0.0,0.0,0.0,0.0,0.0,0.0,0.0,0.0,0.0,0.0,0.0,0.0,0.0,0.0,0.0,0.0,0.0,0.0,0.0,0.0,0.0,0.0,0.0,0.0,0.0,0.0,0.0,0.0,0.0,0.0,0.0,0.0,0.0,0.0,0.0,0.0,0.0,0.0,0.0,0.0,0.0,0.0,0.0,0.0,0.0,0.0,0.0,0.0,0.0,0.0,0.0,0.0,0.0,0.0,0.0,0.0,0.0,0.0,0.0,0.0,0.0,0.0,0.0,0.0,0.0,0.0,0.0,0.0,0.0,0.0,0.0,0.0,0.0,0.0,0.0,0.0,0.0,0.0,0.0,0.0,0.0,0.0,0.0,0.0,0.0,0.0,0.0,0.0,0.0,0.0,0.0,0.0,0.0,0.0,0.0,0.0,7.8476,8.6914,9.3008,9.3828,9.3984,9.4336,9.5117,9.4492,9.1836,8.664,0.0,0.0,0.0,0.0,0.0,0.0,0.0,0.0,0.0,0.0,0.0,0.0,0.0,0.0,0.0,0.0,0.0,0.0,0.0,0.0,0.0,0.0,0.0,0.0,0.0,0.0,0.0,0.0,0.0,0.0,0.0,0.0,0.0,0.0,0.0,0.0,0.0,0.0,0.0,0.0,0.0,0.0,0.0,0.0,0.0,0.0,0.0,0.0,0.0,0.0,0.0,0.0,0.0,0.0,0.0,0.0,0.0,0.0,0.0,0.0,6.0508,5.4414,0.0,0.0,0.0,0.0,0.0,0.0,0.0,0.0,0.0,0.0,0.0,0.0,0.0,0.0,0.0,0.0,0.0,0.0,0.0,0.0,0.0,0.0,0.0,0.0,0.0,0.0,0.0,0.0,0.0,0.0,0.0,0.0,0.0,0.0,0.0,0.0,0.0,0.0,0.0,0.0,8.0078,8.8164,9.3672,9.3867,9.4492,9.5,9.5195,9.5039,9.2734,8.7539,8.4531,0.0,0.0,0.0,0.0,0.0,0.0,0.0,0.0,0.0,0.0,0.0,0.0,0.0,0.0,0.0,0.0,0.0,0.0,0.0,0.0,0.0,0.0,0.0,0.0,0.0,0.0,0.0,0.0,0.0,0.0,0.0,0.0,0.0,0.0,0.0,0.0,0.0,0.0,0.0,0.0,0.0,0.0,0.0,0.0,0.0,0.0,0.0,0.0,0.0,0.0,0.0,0.0,0.0,0.0,0.0,0.0,0.0,0.0,0.0,6.4883,6.1445,0.0,0.0,0.0,0.0,0.0,0.0,0.0,0.0,0.0,0.0,0.0,0.0,0.0,0.0,0.0,0.0,0.0,0.0,0.0,0.0,0.0,0.0,0.0,0.0,0.0,0.0,0.0,0.0,0.0,0.0,0.0,0.0,0.0,0.0,0.0,0.0,0.0,0.0,0.0,0.0,8.3554,8.9844,9.4062,9.4492,9.4179,9.4453,9.5703,9.5078,9.3789,9.1953,8.8242,0.0,0.0,0.0,0.0,0.0,0.0,0.0,0.0,0.0,0.0,0.0,0.0,0.0,0.0,0.0,0.0,0.0,0.0,0.0,0.0,0.0,0.0,0.0,0.0,0.0,0.0,0.0,0.0,0.0,0.0,0.0,0.0,0.0,0.0,0.0,0.0,0.0,0.0,0.0,0.0,0.0,0.0,0.0,0.0,0.0,0.0,0.0,0.0,0.0,0.0,0.0,0.0,0.0,7.0469,7.1484,7.2148,7.1445,7.2265,7.3984,6.9414,6.9336,7.1875,6.418,0.0,0.0,0.0,0.0,0.0,0.0,0.0,0.0,0.0,0.0,0.0,0.0,0.0,0.0,0.0,0.0,0.0,0.0,0.0,0.0,0.0,0.0,7.5859,7.875,8.1719,8.2148,7.5859,0.0,0.0,0.0,0.0,0.0,0.0,0.0,0.0,0.0,0.0,0.0,8.7109,9.1328,9.4101,9.4687,9.3594,9.3711,9.5859,9.5,9.4961,9.6406,9.1953,8.8672,0.0,0.0,0.0,0.0,0.0,0.0,0.0,0.0,0.0,0.0,0.0,0.0,0.0,0.0,0.0,0.0,0.0,0.0,0.0,0.0,0.0,0.0,0.0,0.0,0.0,0.0,0.0,0.0,0.0,0.0,0.0,0.0,5.5581,5.9152,0.0,0.0,0.0,0.0,0.0,0.0,0.0,0.0,0.0,0.0,0.0,0.0,0.0,6.8125,7.0781,7.4023,7.6445,7.8047,8.1211,8.2773,8.2851,8.2734,8.289,8.3086,8.0898,0.0,7.4219,7.3711,0.0,0.0,0.0,0.0,0.0,0.0,0.0,0.0,0.0,0.0,0.0,0.0,0.0,0.0,0.0,0.0,0.0,0.0,0.0,0.0,0.0,0.0,8.7734,8.8203,8.9258,9.0039,8.9765,8.2187,7.5195,7.4492,7.4453,7.3594,0.0,0.0,0.0,0.0,0.0,0.0,8.8164,9.1679,9.3633,9.3008,9.3398,9.3867,9.4219,9.5429,9.625,9.6484,9.6406,9.4961,9.1875,8.8554,0.0,0.0,0.0,0.0,0.0,0.0,0.0,0.0,0.0,0.0,0.0,0.0,0.0,0.0,0.0,0.0,0.0,0.0,0.0,0.0,0.0,0.0,0.0,0.0,0.0,0.0,0.0,0.0,0.0,5.4883,5.871,6.218,6.0418,5.8313,0.0,0.0,0.0,0.0,0.0,0.0,0.0,0.0,0.0,7.4492,7.5156,7.6875,7.9961,8.1992,8.3125,8.3398,8.539,8.6367,8.6328,8.5859,8.5625,8.5586,8.4804,8.3203,8.0898,7.7851,7.5351,7.3046,0.0,0.0,0.0,0.0,6.8672,6.9609,7.293,7.5547,7.707,7.5273,0.0,0.0,0.0,0.0,0.0,0.0,0.0,7.6015,8.1406,8.5312,8.8711,9.2109,9.2851,9.2851,9.3242,8.9101,8.4726,8.2773,8.1211,7.9101,7.5547,7.6289,0.0,0.0,0.0,8.7656,9.1172,9.2969,9.3945,9.4062,9.3515,9.3554,9.4531,9.4883,9.5469,9.6445,9.6836,9.6367,9.4844,9.1953,8.8047,0.0,0.0,0.0,0.0,0.0,0.0,0.0,0.0,0.0,0.0,0.0,0.0,0.0,0.0,0.0,0.0,0.0,0.0,0.0,0.0,0.0,0.0,0.0,0.0,0.0,0.0,0.0,0.0,5.8984,6.2461,6.5273,6.5031,6.3738,0.0,0.0,0.0,0.0,0.0,0.0,7.2617,7.3945,7.6992,8.2187,8.2734,8.4336,8.7148,8.7812,8.7812,8.7187,8.8047,8.8359,8.8125,8.7695,8.7383,8.7187,8.7187,8.7187,8.6797,8.1875,7.9805,7.9492,7.6445,7.4876,7.4483,7.5982,7.698,7.8008,8.1211,8.375,8.5234,8.3281,8.25,8.1679,7.8281,0.0,0.0,0.0,0.0,8.0195,8.6015,8.7656,8.8984,9.3476,9.4023,9.3672,9.414,9.3203,9.164,8.9531,8.7578,8.4922,8.0859,8.125,0.0,8.4922,8.7461,9.0469,9.4101,9.457,9.4726,9.5156,9.4023,9.3789,9.5078,9.4804,9.5117,9.6406,9.6914,9.6953,9.6523,9.5039,9.2422,8.8554,0.0,0.0,0.0,0.0,0.0,0.0,0.0,0.0,0.0,0.0,0.0,0.0,0.0,0.0,0.0,0.0,0.0,0.0,0.0,0.0,0.0,0.0,0.0,0.0,0.0,0.0,0.0,0.0,0.0,6.9023,7.125,0.0,0.0,0.0,0.0,7.1367,7.3203,7.6445,8.1406,8.1719,8.414,8.9336,8.8711,8.8789,8.9804,8.9844,8.9844,8.9804,9.0703,9.0664,8.9883,9.0703,9.0586,8.9804,8.9804,8.9804,8.9648,8.7773,8.5547,8.3164,8.125,7.9062,7.7376,8.0624,8.1899,8.2695,8.7734,9.0117,9.0898,9.0742,8.8554,8.5742,8.4687,8.2617,0.0,0.0,8.4961,8.7539,9.0312,9.164,9.2344,9.2656,9.2695,9.3125,9.4765,9.3164,9.1797,9.3281,9.3476,9.2265,8.8711,0.0,9.1406,8.9883,9.1914,9.4258,9.6133,9.6367,9.6054,9.5273,9.5117,9.5117,9.5195,9.5937,9.6406,9.6484,9.8008,9.8164,9.6562,9.789,9.6289,9.1211,8.8437,0.0,0.0,0.0,0.0,0.0,0.0,0.0,0.0,0.0,0.0,0.0,0.0,0.0,0.0,0.0,0.0,0.0,0.0,0.0,0.0,0.0,0.0,0.0,0.0,0.0,0.0,0.0,0.0,7.2461,7.457,0.0,7.4922,7.6875,7.8515,7.9414,8.2617,8.5312,8.7148,8.7773,8.9179,9.1601,9.1914,9.2187,9.25,9.2393,9.1782,9.0711,9.0936,9.0881,9.0598,9.0911,9.0872,9.0569,9.053,9.0218,8.971,8.9086,8.8402,8.7695,8.7617,8.7031,8.6562,8.8876,8.9748,9.0117,9.25,9.2812,9.2031,9.1484,9.0859,9.0351,9.0625,8.9648,8.8711,8.9883,9.0508,9.1133,9.2578,9.3203,9.3711,9.4844,9.4258,9.3906,9.5664,9.4414,9.332,9.4492,9.3398,9.2187,9.207,9.2812,9.3242,9.2617,9.3789,9.4961,9.5586,9.5664,9.5976,9.6719,9.6797,9.6797,9.6797,9.7109,9.7031,9.6523,9.707,9.7109,9.6523,9.707,9.6523,9.4687,9.2109,8.6992,0.0,0.0,0.0,0.0,0.0,0.0,0.0,0.0,0.0,0.0,0.0,0.0,0.0,0.0,0.0,0.0,0.0,0.0,0.0,0.0,0.0,0.0,0.0,0.0,0.0,6.8789,7.2773,7.4805,7.7851,7.957,7.8984,8.2031,8.4531,8.5664,8.8672,9.0539,9.0803,9.1067,9.1609,9.2395,9.2747,9.302,9.3293,9.316,9.2535,9.1417,9.1639,9.1743,9.1743,9.2054,9.2171,9.2191,9.2132,9.1821,9.1296,9.1296,9.1412,9.1535,9.0934,9.0716,9.0916,9.2381,9.2969,9.3086,9.3984,9.3554,9.25,9.1914,9.2148,9.2695,9.3281,9.3242,9.3164,9.375,9.3711,9.3594,9.4179,9.4336,9.4648,9.5781,9.5195,9.4726,9.6172,9.5351,9.4609,9.5469,9.3984,9.2885,9.3669,9.3847,9.3825,9.3757,9.423,9.4816,9.5402,9.5775,9.6523,9.7929,9.8359,9.8711,9.8984,9.8169,9.7916,9.8632,9.7226,9.6797,9.7734,9.6406,9.5469,9.5195,9.2344,8.789,8.1875,0.0,0.0,0.0,0.0,0.0,0.0,0.0,0.0,0.0,0.0,0.0,0.0,0.0,0.0,0.0,0.0,0.0,0.0,0.0,0.0,0.0,0.0,0.0,6.9609,7.4101,7.7031,7.6328,8.1367,8.4297,8.2656,8.5586,8.8242,8.9922,9.0859,9.167,9.2379,9.16,9.1447,9.2182,9.1403,9.1364,9.2221,9.2221,9.2191,9.2151,9.2992,9.3407,9.3418,9.4278,9.4665,9.4665,9.4655,9.4646,9.4607,9.4607,9.4646,9.4326,9.1023,8.9752,8.9872,9.0877,9.1249,9.1367,9.2304,9.2617,9.2617,9.2578,9.2578,9.2656,9.2656,9.3281,9.3945,9.3984,9.457,9.5195,9.5195,9.5195,9.5195,9.5234,9.5234,9.5429,9.6327,9.5859,9.5547,9.6406,9.5937,9.504,9.3992,9.3822,9.3788,9.3632,9.3638,0.0,9.5923,9.6979,9.7929,9.8749,9.9804,10.0703,10.1484,9.9241,9.9191,10.2613,9.8789,9.7539,10.0195,9.6289,9.3633,9.2734,8.9297,8.7109,8.6211,0.0,0.0,0.0,0.0,0.0,0.0,0.0,0.0,0.0,0.0,0.0,0.0,0.0,0.0,0.0,0.0,0.0,0.0,0.0,0.0,0.0,7.2197,7.5508,7.5117,7.789,8.0781,8.3086,8.4844,8.6133,8.6875,8.8398,8.9765,9.0859,9.1652,9.22,9.2401,9.2025,9.2495,9.3929,9.3153,9.3449,9.4909,9.4821,9.4163,9.2915,9.3611,9.365,9.3108,9.3379,9.3495,9.3495,9.3456,9.3108,9.2528,9.2528,9.2915,9.3485,9.3349,9.3308,9.3386,9.4324,9.4668,9.45,9.3515,9.3164,9.2997,9.1869,9.2383,9.3515,9.4258,9.4648,9.4961,9.5625,9.5508,9.5195,9.5195,9.5195,9.5351,9.5976,9.5664,9.5567,9.6934,9.7114,9.7226,9.8008,9.8554,9.8394,9.6862,9.6604,9.7003,9.8231,9.8387,9.8581,9.9046,9.9374,9.9596,9.9751,10.1796,10.2695,10.1601,10.2593,10.2917,10.2012,10.0798,9.9883,9.9375,9.8203,9.6914,9.5469,9.0781,8.7969,0.0,0.0,0.0,0.0,0.0,0.0,0.0,0.0,0.0,0.0,0.0,0.0,0.0,0.0,0.0,0.0,0.0,0.0,0.0,0.0,0.0,0.0,7.7438,8.1187,8.1483,8.2461,8.4179,8.6914,8.6953,8.7265,8.8554,8.943,9.0273,9.117,9.1878,9.2402,9.2711,9.2605,9.3147,9.4423,9.4026,9.422,9.5254,9.4839,9.4269,9.364,9.365,9.3804,9.4037,9.4037,9.4269,9.4578,9.4578,9.4307,9.3843,9.3843,9.4114,9.4539,0.0,0.0,0.0,0.0,9.5416,9.532,9.4348,9.4018,9.3901,9.3068,9.3511,9.4453,9.5039,9.5195,9.5231,9.529,9.5198,9.5065,9.502,9.5268,9.5853,9.7064,9.6947,9.6929,9.8197,9.8527,9.8714,9.9254,9.9804,0.0,9.9453,9.8665,9.8372,9.8952,9.9047,9.9164,9.9552,9.994,10.0277,10.0596,10.2499,10.3397,10.2617,10.3008,0.0,0.0,0.0,9.9697,9.8007,9.7617,0.0,0.0,0.0,9.0273,9.125,8.75,0.0,0.0,8.1562,8.0273,0.0,0.0,0.0,0.0,0.0,0.0,0.0,0.0,0.0,0.0,0.0,0.0,0.0,0.0,0.0,0.0,8.1398,8.5888,8.769,8.7147,8.7068,8.8398,8.7926,8.7802,8.8583,8.9329,9.0157,9.1135,9.184,9.2541,9.333,9.334,0.0,0.0,0.0,9.4191,9.4191,9.3572,9.3534,9.4037,9.3534,9.3998,9.5352,9.5352,9.5777,9.6512,9.6512,9.6512,9.6512,9.6512,9.6551,9.6435,9.4269,9.3843,9.4501,9.4694,9.4781,9.482,9.4916,0.0,0.0,9.5078,9.5112,9.5111,9.5152,9.5191,9.509,9.4186,9.4508,9.517,9.5126,9.5719,9.6693,9.8272,9.8662,9.8857,9.9635,9.9886,9.9992,10.0187,10.031,10.0703,10.1601,10.0312,9.8858,9.8029,9.7916,9.8201,9.8981,9.9872,10.069,10.1285,10.2494,0.0,10.3998,10.2107,10.2094,10.5202,10.1375,9.8506,9.7148,9.625,9.5742,9.5625,9.3437,9.3789,9.6797,9.5312,9.5039,9.5547,8.5937,8.3945,0.0,0.0,0.0,0.0,0.0,0.0,0.0,0.0,0.0,0.0,0.0,0.0,0.0,0.0,0.0,8.067,8.5366,8.9235,9.0383,8.9639,8.8626,8.7811,8.7468,8.7597,8.8468,8.9217,9.0285,9.1793,9.2572,9.3374,9.4191,9.4075,9.4385,9.5236,9.4578,9.4191,9.4191,9.4733,9.4423,9.3263,9.4423,0.0,9.4462,9.4462,9.4539,9.4694,9.4694,9.4694,9.4694,9.4694,9.512,9.5777,9.5971,9.6164,9.628,9.6358,9.5932,9.5352,9.5352,9.4916,9.4364,9.459,9.462,9.4651,9.4757,9.5276,0.0,9.5603,9.6144,9.6986,9.7612,9.7883,9.8281,9.9317,9.9521,9.9599,9.9782,10.0509,10.109,10.1128,10.1786,10.2383,10.2617,10.1797,10.121,10.1712,10.1788,10.1905,10.1983,10.2207,10.2119,10.1488,10.3607,10.4489,10.3119,10.448,10.5115,10.4506,10.2314,10.0883,10.0586,9.9765,9.8984,9.8281,9.8476,9.8554,9.8515,9.8867,9.914,9.9219,9.4414,9.2734,0.0,0.0,0.0,0.0,0.0,0.0,0.0,0.0,0.0,0.0,0.0,7.3094,7.5167,0.0,8.2626,8.4241,8.7448,8.9897,9.039,8.9975,8.9533,8.9338,8.8766,8.8761,8.9615,9.0361,9.13,9.2528,9.3302,9.4075,9.4965,9.4926,9.5236,9.6125,9.5739,9.5506,9.5506,9.5506,9.5313,9.4926,9.5313,9.5506,9.5506,9.5506,9.5506,9.5506,9.5506,9.5506,9.5545,9.5971,9.6667,9.7441,9.7866,9.7557,9.686,9.7286,9.717,9.686,9.7363,9.7277,9.6958,9.7083,9.6849,9.6485,9.6577,9.691,9.716,9.6655,9.7148,9.7896,9.8205,9.8292,9.864,9.9916,10.0187,10.0303,10.0806,10.1309,10.168,10.1699,10.2201,10.2519,10.2585,10.232,10.2207,10.2709,10.2683,10.2593,10.2593,10.2984,10.3093,10.2585,10.4088,10.487,10.398,10.4891,10.5117,10.4297,10.3008,10.2304,10.2304,10.1406,10.1015,10.1015,10.0508,10.0312,10.0312,9.9844,9.9648,9.9609,9.7461,9.6679,0.0,0.0,0.0,0.0,0.0,0.0,0.0,6.9478,7.1253,7.6459,7.8087,7.9099,8.0893,8.3115,8.5312,8.7273,8.8979,9.0052,9.0056,9.003,9.0383,9.1384,9.0474,9.015,9.0997,9.1716,9.2538,9.3572,9.4153,9.481,9.57,9.5739,9.6087,9.6783,9.6783,9.6706,9.6551,9.6009,9.6125,9.6783,9.6087,9.6203,9.7054,9.686,9.6783,9.6783,9.6783,9.6783,9.686,9.7557,9.833,9.9065,9.9065,9.833,9.7363,9.806,9.833,9.8446,9.9259,9.956,9.956,9.9645,9.9104,9.8399,9.8428,9.8428,9.8244,9.7441,9.7827,9.8524,9.8562,9.8601,9.8988,10.0496,10.0883,10.1077,10.1812,10.1889,10.201,10.2109,10.2195,10.2201,10.2401,10.242,10.2417,10.2484,10.2614,10.2674,10.2674,10.3413,10.3919,10.3919,10.4503,10.4999,10.5194,10.4492,10.4219,10.4219,10.3398,10.289,10.289,10.2187,10.2109,10.2617,10.1406,10.1094,10.1601,10.039,9.9765,9.9726,9.8867,9.8554,6.1273,6.1234,6.2975,6.6031,6.8352,7.2242,0.0,8.2165,8.2653,8.7935,8.9131,8.904,8.852,8.931,9.013,9.0416,9.114,9.1682,9.181,9.1643,9.181,9.2837,9.15,9.0842,9.1716,9.2451,9.3534,9.512,9.5313,9.5739,9.659,9.6667,9.6706,9.6783,9.6783,9.6435,9.5661,9.6319,9.6706,9.6783,9.6706,9.7092,9.7943,9.7131,9.6783,9.6783,9.6783,9.6783,9.6822,9.6899,9.7441,9.8214,9.8214,9.8562,9.9027,9.9143,9.9181,9.9181,9.9297,9.9336,9.9336,9.9336,9.8794,9.8137,9.8137,9.8137,9.8137,9.8021,9.8562,9.9375,10.011,10.0303,10.0613,10.1502,10.1812,10.1812,10.2005,10.2082,10.2114,10.2299,10.2406,10.2406,10.2397,10.232,10.2213,10.2423,10.3112,10.3607,10.3607,10.4304,10.4807,10.4807,10.4776,10.5,10.5191,10.4414,10.3984,10.4219,10.3398,10.289,10.289,10.2812,10.2383,10.1797,10.2304,10.2304,10.1601,10.2187,10.25,10.2383,10.1601,9.9961,7.0324,6.9203,6.9125,7.5546,7.721,7.8796,8.4881,8.5715,8.6428,9.0702,9.1617,9.1462,9.1035,9.1256,9.1484,9.1406,9.1174,9.1058,9.1086,9.1445,9.187,9.2296,9.2992,9.3418,9.3263,9.3998,9.4733,9.5429,9.5971,9.6435,9.6783,9.6783,9.6783,9.6783,9.6783,9.686,9.7015,9.7363,9.7789,9.8253,9.8253,9.8214,9.8098,9.7711,9.7286,9.6783,9.6783,9.7092,9.7557,9.7557,9.833,9.9529,9.9529,10.011,10.0806,10.0187,10.011,10.011,10.0613,10.0806,10.0806,10.0806,10.0187,9.9529,9.9529,9.9529,9.9529,9.9529,10.0187,10.0883,10.1309,10.1386,10.1386,10.1812,10.1889,10.1889,10.2005,10.2005,10.2005,10.2082,10.2082,10.2082,10.2082,10.2005,10.2005,10.2082,10.2392,10.2701,10.2701,10.3784,10.4984,10.6028,10.6221,10.6282,10.641,10.5295,10.4687,10.4804,10.3594,10.289,10.289,10.289,10.2695,10.2383,10.2695,10.2695,10.2383,10.2187,10.2109,10.2109,10.1211,10.0312,7.4773,7.4347,7.4463,8.189,8.3863,8.4675,8.7526,8.8312,8.924,9.1803,9.2373,9.218,9.16,9.1677,9.1716,9.1406,9.1019,9.0826,9.1097,9.1677,9.2218,9.2683,9.4385,9.5352,9.4965,9.5468,9.5855,9.5855,9.6435,9.6783,9.6783,9.7015,9.717,9.717,9.7363,9.7789,9.8408,9.8446,9.8833,9.9645,9.9413,9.8988,9.8408,9.7943,9.7402,9.6783,9.6783,9.717,9.775,9.7982,9.8949,10.0303,10.0496,10.1077,10.1812,10.1193,10.0999,10.0999,10.1696,10.1889,10.1889,10.1889,10.1502,10.0999,10.0999,10.0999,10.0999,10.0999,10.1386,10.1889,10.1889,10.1889,10.1889,10.1889,10.1889,10.1889,10.1889,10.1889,10.1889,10.1889,10.1889,10.2005,10.2199,10.2315,10.2315,10.2585,10.2585,10.2585,10.2585,10.4094,10.5603,10.6879,10.7111,10.7189,10.7189,10.6117,10.5295,10.5097,10.3904,10.3086,10.2812,10.289,10.289,10.289,10.289,10.289,10.289,10.2304,10.1992,10.1914,10.1289,10.1015,7.1021,7.3806,7.7287,8.1736,8.6494,9.0362,9.1329,9.2218,9.2837,9.2953,9.2992,9.2451,9.0749,9.1135,9.1445,9.0594,9.1135,9.1948,9.2799,9.2953,9.3572,9.5197,9.5429,9.5816,9.6628,9.6744,9.6744,9.6744,9.6783,9.6783,9.6783,9.7595,9.806,9.806,9.8833,9.9259,9.9259,9.9259,9.9684,10.0613,9.9684,9.9297,9.922,9.7595,9.6822,9.6783,9.6783,9.6822,9.6899,9.775,9.8601,9.9413,10.0303,10.1077,10.1889,10.1889,10.1889,10.1889,10.1889,10.1889,10.1889,10.1889,10.1889,10.1889,10.1889,10.1889,10.1889,10.1889,10.1889,10.1889,10.1889,10.1889,10.1889,10.1889,10.1889,10.1889,10.1889,10.1889,10.1889,10.1889,10.1889,10.2199,10.3011,10.3204,10.3398,10.421,10.4287,10.4287,10.4287,10.5796,10.6879,10.6995,10.6995,10.7111,10.7189,10.6409,10.5695,10.4978,10.4306,10.3515,10.2617,10.2812,10.289,10.289,10.289,10.289,10.289,10.289,10.289,10.289,10.2812,10.2812,7.7519,8.0188,8.2664,8.7499,8.9975,9.1329,9.1638,9.1948,9.2141,9.2141,9.1677,9.1251,9.1251,9.1019,9.0942,9.1213,9.1986,9.2683,9.2953,9.3959,9.5081,9.6241,9.6358,9.6706,9.7595,9.7131,9.6783,9.6783,9.6783,9.7054,9.7634,9.7943,9.833,9.8872,9.9181,9.9568,10.0187,10.0187,10.0613,10.1502,10.0613,10.0187,10.011,9.8988,9.8446,9.8446,9.8446,9.8446,9.8485,9.8794,9.9413,10.0187,10.0496,10.1077,10.1889,10.1889,10.1889,10.1889,10.1889,10.1889,10.1889,10.1889,10.1889,10.1889,10.1889,10.1889,10.1889,10.1889,10.1889,10.1889,10.1889,10.1889,10.1889,10.1889,10.1889,10.1889,10.1889,10.1889,10.1889,10.1889,10.2392,10.2895,10.3088,10.3591,10.4287,10.51,10.479,10.4597,10.5216,10.5796,10.6415,10.6879,10.6995,10.6995,10.7111,10.6415,10.5891,10.5591,10.451,10.3698,10.3515,10.3008,10.2812,10.289,10.289,10.289,10.289,10.289,10.289,10.289,10.289,10.289,8.1852,8.4095,8.5681,9.0516,9.1716,9.1716,9.1716,9.1948,9.218,9.218,9.1716,9.1406,9.1638,9.1484,9.1522,9.2064,9.3147,9.3998,9.4307,9.5274,9.628,9.717,9.6976,9.7131,9.8021,9.7595,9.7247,9.7247,9.7247,9.7634,9.8485,9.8833,9.922,9.9762,10.011,10.0496,10.1077,10.1077,10.1309,10.1889,10.0999,10.0613,10.0613,9.9684,9.9297,9.9297,9.9297,9.9297,9.9336,9.9645,10.011,10.0613,10.0883,10.1386,10.1889,10.1889,10.1889,10.1889,10.1889,10.1889,10.1889,10.1889,10.1889,10.1889,10.1889,10.1889,10.1889,10.1889,10.1889,10.1889,10.1889,10.1889,10.1889,10.1889,10.1889,10.1889,10.1889,10.2082,10.2392,10.2392,10.3011,10.3707,10.4017,10.479,10.5487,10.6105,10.5719,10.5487,10.6105,10.6183,10.6415,10.6879,10.6995,10.6995,10.6995,10.6608,10.6221,10.5912,10.4984,10.4312,10.3686,10.3304,10.3008,10.2812,10.289,10.289,10.289,10.289,10.289,10.289,10.289,10.289,8.3631,8.5526,8.661,9.0671,9.1716,9.1754,9.1754,9.2373,9.2915,9.2837,9.2721,9.2335,9.1484,9.2102,9.276,9.2799,9.4307,9.5777,9.6628,9.6783,9.7131,9.7982,9.7325,9.717,9.806,9.8137,9.8137,9.8214,9.8176,9.8524,9.9336,10.0187,10.0613,10.069,10.1502,10.1889,10.1889,10.1889,10.1889,10.1889,10.1077,10.069,10.0613,9.98,9.9452,9.9452,9.9452,9.9452,9.9491,10.0303,10.069,10.069,10.158,10.1889,10.1889,10.1889,10.1889,10.1889,10.1889,10.1889,10.1889,10.1889,10.1889,10.1889,10.1889,10.1889,10.1889,10.1889,10.1889,10.1889,10.1889,10.1889,10.1889,10.1889,10.1889,10.1889,10.2005,10.2585,10.3204,10.3282,10.3901,10.4713,10.5603,10.6492,10.6995,10.6995,10.6995,10.6995,10.6995,10.6995,10.6995,10.6995,10.6995,10.6995,10.6995,10.6995,10.6608,10.5796,10.5912,10.5216,10.3584,10.379,10.3514,10.2695,10.2812,10.289,10.289,10.289,10.289,10.289,10.289,10.289,8.6261,8.8621,9.0323,9.1445,9.218,9.2683,9.2683,9.2335,9.1677,9.0439,8.8621,8.6996,8.6184,8.777,8.9395,9.0052,9.3186,9.5584,9.5816,9.6396,9.7131,9.7982,9.7325,9.7363,9.8872,9.8446,9.8601,9.9878,9.9375,9.9375,10.0187,10.0496,10.0883,10.1502,10.1812,10.1889,10.1889,10.1889,10.1889,10.1889,10.1696,10.158,10.158,10.1309,10.1193,10.1193,10.1193,10.1193,10.1309,10.1502,10.158,10.158,10.1812,10.1889,10.1889,10.1889,10.1889,10.1889,10.1889,10.1889,10.1889,10.1889,10.1889,10.1889,10.1889,10.1889,10.1889,10.1889,10.1889,10.1889,10.1889,10.1889,10.1889,10.1889,10.1889,10.2082,10.2701,10.3011,10.3398,10.4017,10.479,10.5603,10.6492,10.6879,10.6995,10.6995,10.6995,10.6995,10.6995,10.6995,10.6995,10.6995,10.6995,10.6995,10.6995,10.6995,10.6879,10.6686,10.6105,10.5603,10.5293,10.4299,10.3692,10.3593,10.3086,10.289,10.289,10.289,10.289,10.289,10.289,10.289,8.866,9.0633,9.1716,9.1716,9.2373,9.2605,9.1097,9.0942,9.0323,8.7538,8.6068,8.541,8.572,8.7538,8.9665,9.1638,9.4617,9.6628,9.6628,9.7054,9.7557,9.806,9.7673,9.7866,9.9181,9.9259,9.9607,10.0496,10.011,10.0303,10.1077,10.1193,10.1386,10.1889,10.1889,10.1889,10.1889,10.1889,10.1889,10.1889,10.1889,10.1889,10.1889,10.1889,10.1889,10.1889,10.1889,10.1889,10.1889,10.1889,10.1889,10.1889,10.1889,10.1889,10.1889,10.1889,10.1889,10.1889,10.1889,10.1889,10.1889,10.1889,10.1889,10.1889,10.1889,10.1889,10.1889,10.1889,10.1889,10.1889,10.1889,10.1889,10.1889,10.1889,10.2199,10.2585,10.3088,10.3784,10.4519,10.5409,10.6183,10.6918,10.6995,10.7305,10.7382,10.7111,10.6995,10.6995,10.6995,10.6995,10.6995,10.6995,10.6995,10.6995,10.6995,10.6995,10.6995,10.6995,10.6492,10.6105,10.5912,10.5177,10.4502,10.3811,10.3587,10.3281,10.289,10.289,10.289,10.289,10.289,10.289,9.0478,9.16,9.1716,9.1716,9.2451,9.2257,8.8853,8.9124,8.8814,8.4482,8.394,8.4792,8.6416,8.8196,9.0555,9.4075,9.6125,9.7402,9.7866,9.7943,9.8021,9.8214,9.8253,9.8601,9.9413,10.0187,10.0613,10.0806,10.0806,10.1077,10.1889,10.1889,10.1889,10.1889,10.1889,10.1889,10.1889,10.1889,10.1889,10.1889,10.1889,10.1889,10.1889,10.1889,10.1889,10.1889,10.1889,10.1889,10.1889,10.1889,10.1889,10.1889,10.1889,10.1889,10.1889,10.1889,10.1889,10.1889,10.2005,10.2005,10.1889,10.1889,10.1889,10.1889,10.1889,10.1889,10.1889,10.1889,10.1889,10.1889,10.2005,10.2005,10.2005,10.2199,10.2701,10.3282,10.3514,10.479,10.6105,10.6879,10.7614,10.7885,10.7111,10.7614,10.7885,10.7111,10.6995,10.6995,10.6995,10.7111,10.7189,10.7189,10.7305,10.7305,10.7189,10.7189,10.7111,10.6995,10.6995,10.6686,10.5912,10.6105,10.5513,10.4121,10.4189,10.3984,10.3203,10.3086,10.3086,10.3086,10.3008,10.289,9.0246,9.1135,9.1716,9.1716,9.2876,9.3108,8.9743,8.866,8.6919,8.1929,7.9879,7.9337,8.0343,8.2509,8.5449,8.9627,9.1716,9.3804,9.6628,9.7015,9.7557,9.8949,9.9104,9.9452,10.0303,10.0496,10.0883,10.158,10.1696,10.1696,10.1889,10.1889,10.1889,10.1889,10.1889,10.1889,10.1889,10.1889,10.1889,10.1889,10.1889,10.1889,10.1889,10.1889,10.1889,10.1889,10.1889,10.1889,10.1889,10.1889,10.1889,10.1889,10.1889,10.1889,10.1889,10.1889,10.1889,10.2005,10.2701,10.2508,10.1889,10.1889,10.1889,10.1889,10.1889,10.1889,10.1889,10.1889,10.1889,10.2082,10.2817,10.2392,10.2199,10.3591,10.3591,10.3591,10.4984,10.6105,10.6802,10.6995,10.7111,10.7189,10.6995,10.7111,10.7189,10.6995,10.6995,10.6995,10.6995,10.7614,10.8078,10.8078,10.8697,10.8813,10.8078,10.8078,10.7807,10.6995,10.6995,10.6879,10.6802,10.6299,10.6018,10.578,10.5282,10.5,10.5,10.4297,10.3984,10.3984,10.3203,10.289,8.9665,9.071,9.1793,9.2257,9.3302,9.2953,8.8234,8.6842,8.4714,7.8254,7.663,7.6746,7.8061,8.0769,8.3902,8.7306,9.04,9.3108,9.5158,9.6628,9.7943,9.9143,9.9684,10.011,10.0613,10.0999,10.1386,10.1889,10.1889,10.1889,10.1889,10.1889,10.1889,10.1889,10.1889,10.1889,10.1889,10.1889,10.1889,10.1889,10.1889,10.1889,10.1889,10.1889,10.1889,10.1889,10.1889,10.1889,10.1889,10.1889,10.1889,10.1889,10.1889,10.1889,10.2005,10.2392,10.2585,10.2701,10.3514,10.3591,10.3204,10.3204,10.2895,10.2585,10.2585,10.2895,10.3204,10.3204,10.3204,10.3282,10.3707,10.3514,10.3398,10.421,10.4519,10.479,10.6105,10.6686,10.6995,10.6995,10.7382,10.7498,10.7111,10.7382,10.7498,10.7111,10.6995,10.6995,10.6995,10.7807,10.831,10.831,10.8581,10.8697,10.831,10.7885,10.7382,10.6995,10.6995,10.6995,10.6995,10.6802,10.6494,10.6109,10.5982,10.5703,10.5312,10.5,10.4609,10.4219,10.3789,10.3281,8.9627,9.0826,9.2141,9.2837,9.3611,9.2644,8.6648,8.5178,8.2935,7.543,7.4386,7.543,7.7365,8.0034,8.2935,8.5836,8.9317,9.2218,9.3959,9.628,9.833,9.9684,10.0496,10.0883,10.0883,10.1502,10.1889,10.1889,10.1889,10.1889,10.1889,10.1889,10.1889,10.1889,10.1889,10.1889,10.1889,10.1889,10.1889,10.1889,10.1889,10.1889,10.1889,10.1889,10.1889,10.1889,10.1889,10.1889,10.1889,10.1889,10.1889,10.1889,10.1889,10.2005,10.2315,10.2895,10.3282,10.3591,10.4403,10.4597,10.4403,10.4597,10.4094,10.3514,10.3514,10.3901,10.4403,10.4403,10.4403,10.4403,10.4597,10.4519,10.4403,10.4597,10.5293,10.6183,10.6879,10.6995,10.6995,10.6995,10.7614,10.7807,10.7111,10.7614,10.7807,10.7111,10.6995,10.6995,10.6995,10.7807,10.831,10.831,10.8504,10.8504,10.831,10.7691,10.7189,10.6995,10.6995,10.6995,10.6995,10.7111,10.6879,10.6299,10.6591,10.6385,10.5781,10.5781,10.539,10.4687,10.4609,10.3984,9.1058,9.218,9.2915,9.2992,9.3611,9.2644,8.6648,8.4714,8.2238,7.5314,7.396,7.4773,7.7248,7.8602,8.0691,8.4753,8.6416,8.8814,9.3534,9.5777,9.8098,10.1309,10.1696,10.1812,10.1812,10.1889,10.1889,10.1889,10.1889,10.1889,10.1889,10.1889,10.1889,10.1889,10.1889,10.1889,10.1889,10.1889,10.1889,10.1889,10.1889,10.1889,10.1889,10.1889,10.1889,10.1889,10.1889,10.1889,10.1889,10.1889,10.1889,10.1889,10.1889,10.2392,10.3088,10.3204,10.3707,10.4403,10.5293,10.51,10.4519,10.5293,10.5022,10.4287,10.4287,10.4287,10.4403,10.4403,10.4403,10.4597,10.5409,10.5022,10.4597,10.5409,10.6183,10.6879,10.6995,10.6995,10.6995,10.6995,10.7111,10.7111,10.6995,10.7111,10.7111,10.6995,10.6995,10.6995,10.6995,10.7807,10.831,10.831,10.9007,10.9084,10.8388,10.8194,10.7807,10.7111,10.6995,10.6995,10.6995,10.6995,10.6995,10.7111,10.7277,10.75,10.7617,10.6914,10.6484,10.6484,10.5703,10.4883,8.9356,9.1522,9.3843,9.4385,9.4346,9.2644,8.6648,8.425,8.1387,7.4541,7.3535,7.4347,7.5856,7.7287,7.9105,8.1774,8.3824,8.688,9.1986,9.4617,9.7479,10.1386,10.1889,10.1696,10.1193,10.158,10.1889,10.1889,10.1889,10.1889,10.1889,10.1889,10.1889,10.1889,10.1889,10.1889,10.1889,10.1889,10.1889,10.1889,10.1889,10.1889,10.1889,10.1889,10.1889,10.1889,10.1889,10.1889,10.1889,10.1889,10.1889,10.1889,10.1889,10.2392,10.3282,10.3707,10.4519,10.5293,10.6183,10.6299,10.5989,10.6415,10.6183,10.5912,10.5293,10.5487,10.5989,10.5989,10.5989,10.6183,10.6995,10.6995,10.6686,10.6492,10.6686,10.6995,10.6995,10.6995,10.6995,10.6995,10.6995,10.6995,10.6995,10.6995,10.6995,10.6995,10.6995,10.6995,10.6995,10.7305,10.7498,10.7498,10.831,10.8581,10.831,10.7807,10.7382,10.6995,10.6995,10.6995,10.6995,10.6995,10.6995,10.7111,10.7189,10.7391,10.7603,10.7412,10.7109,10.6719,10.6406,10.5781,8.8466,9.0981,9.3804,9.5158,9.4462,9.2025,8.6532,8.3592,8.0227,7.3883,7.3303,7.4077,7.4657,7.6552,7.8486,7.9647,8.2238,8.5952,9.1329,9.3843,9.6783,10.1386,10.1696,10.1309,10.069,10.1386,10.1889,10.1889,10.1889,10.1889,10.1889,10.1889,10.1889,10.1889,10.1889,10.1889,10.1889,10.1889,10.1889,10.1889,10.1889,10.1889,10.1889,10.1889,10.1889,10.1889,10.1889,10.1889,10.1889,10.1889,10.2082,10.2315,10.2315,10.3011,10.4017,10.4597,10.5293,10.6183,10.6802,10.6995,10.6995,10.6995,10.6995,10.6879,10.6299,10.6492,10.6995,10.6995,10.7189,10.7498,10.7807,10.8078,10.8078,10.7189,10.6995,10.6995,10.6995,10.6995,10.6995,10.6995,10.6995,10.6995,10.6995,10.6995,10.6995,10.6995,10.6995,10.6995,10.6995,10.6995,10.6995,10.6995,10.7498,10.7885,10.7885,10.7382,10.6995,10.6995,10.6995,10.6995,10.6995,10.6995,10.6995,10.6995,10.7111,10.7319,10.742,10.7684,10.75,10.6992,10.7109,10.6601,8.924,9.1058,9.2335,9.4849,9.3611,9.0594,8.63,8.2664,7.8796,7.3651,7.3303,7.3883,7.3922,7.6707,7.8989,7.9028,8.1852,8.6184,9.2141,9.3688,9.6125,10.1309,10.1077,10.0613,10.0613,10.1386,10.1889,10.1889,10.1889,10.1889,10.1889,10.1889,10.1889,10.1889,10.1889,10.1889,10.1889,10.1889,10.1889,10.1889,10.1889,10.1889,10.1889,10.1889,10.1889,10.1889,10.1889,10.1889,10.1889,10.1889,10.2392,10.3204,10.3204,10.421,10.5719,10.5719,10.6183,10.6995,10.6995,10.6995,10.6995,10.6995,10.6995,10.6995,10.6995,10.6995,10.6995,10.6995,10.7614,10.8078,10.7189,10.7691,10.8078,10.7189,10.6995,10.6995,10.6995,10.6995,10.6995,10.6995,10.6995,10.6995,10.6995,10.6995,10.6995,10.6995,10.6995,10.6995,10.6995,10.6995,10.6995,10.6995,10.6995,10.6995,10.6995,10.6995,10.6995,10.6995,10.6995,10.6995,10.6995,10.6995,10.6995,10.6995,10.7111,10.7189,10.7221,10.7582,10.7812,10.7812,10.789,10.75,8.483,8.7112,8.9163,8.9356,8.835,8.6223,8.1968,7.9685,7.721,7.2645,7.2877,7.4077,7.4618,7.6591,7.9067,8.2006,8.3399,8.6571,9.3727,9.4926,9.6783,10.1386,10.1077,10.0806,10.1386,10.1193,10.1309,10.1889,10.1889,10.1889,10.1889,10.1889,10.1889,10.1889,10.1889,10.1889,10.1889,10.1889,10.1889,10.1889,10.1889,10.1889,10.1889,10.1889,10.1889,10.1889,10.1889,10.2199,10.2817,10.2817,10.3282,10.4017,10.4017,10.4713,10.5719,10.5719,10.6299,10.6995,10.6995,10.6995,10.6995,10.6995,10.6995,10.6995,10.6995,10.6995,10.7111,10.7691,10.8078,10.8194,10.8001,10.8078,10.8078,10.7189,10.6995,10.6995,10.6995,10.6995,10.6995,10.6995,10.6995,10.6995,10.6995,10.6995,10.6995,10.6995,10.6995,10.6995,10.6995,10.6995,10.6995,10.6995,10.6995,10.6995,10.6995,10.6995,10.6995,10.6995,10.6995,10.6995,10.6995,10.6995,10.6995,10.6995,10.6995,10.7111,10.7189,10.7288,10.748,10.7812,10.789,10.789,8.1697,8.4095,8.6068,8.6494,8.5217,8.3012,7.9724,7.7597,7.5314,7.1988,7.2684,7.4038,7.4541,7.632,7.8873,8.2548,8.3128,8.5913,9.3882,9.4462,9.5777,10.038,10.069,10.0806,10.1386,10.1193,10.1309,10.1889,10.1889,10.1889,10.1889,10.1889,10.1889,10.1889,10.1889,10.1889,10.1889,10.1889,10.1889,10.1889,10.1889,10.1889,10.1889,10.1889,10.1889,10.1889,10.1889,10.2392,0.0,10.3204,10.3901,10.4906,10.4906,10.5409,10.6183,10.6183,10.6492,10.6995,10.6995,10.6995,10.6995,10.6995,10.6995,10.6995,10.6995,10.7189,10.7498,10.7691,10.831,10.8581,10.8001,10.8078,10.8078,10.7189,10.6995,10.6995,10.6995,10.6995,10.6995,10.6995,10.6995,10.6995,10.6995,10.6995,10.6995,10.6995,10.6995,10.6995,10.6995,10.6995,10.6995,10.6995,10.6995,10.6995,10.6995,10.6995,10.6995,10.6995,10.6995,10.6995,10.6995,10.6995,10.6995,10.6995,10.6995,10.6995,10.7111,10.7305,10.7477,10.7812,10.789,10.8008,0.0,8.1504,8.2819,8.514,8.3322,8.0536,7.8912,7.6088,0.0,7.164,7.2684,7.3922,7.4077,7.6204,7.8796,8.1349,8.1968,8.4946,9.307,9.3108,9.4153,9.8988,10.0187,10.069,10.0883,10.1502,10.1889,10.1889,10.1889,10.1889,10.1889,10.1889,10.1889,10.1889,10.1889,10.1889,10.1889,10.1889,10.1889,10.1889,10.1889,10.1889,10.1889,10.1889,10.1889,10.1889,10.1889,10.2392,10.3282,10.3282,10.4287,10.5796,10.5796,10.6299,10.6995,10.6995,10.6995,10.6995,10.6995,10.6995,10.6995,10.6995,10.6995,10.6995,10.6995,10.7614,10.8078,10.7305,10.8194,10.9007,10.7498,10.7614,10.8001,10.7189,10.6995,10.6995,10.6995,10.6995,10.6995,10.6995,10.6995,10.6995,10.6995,10.6995,10.6995,10.6995,10.6995,10.6995,10.6995,10.6995,10.6995,10.6995,10.6995,10.6995,10.6995,10.6995,10.6995,10.6995,10.6995,10.6995,10.6995,10.6995,10.6995,10.6995,10.6995,10.6995,10.6995,10.7305,10.7593,10.7812,10.789,10.8008,7.3148,0.0,7.69,7.69,7.6281,7.543,0.0,7.3496,7.2607,7.1523,7.2684,7.4309,7.5585,7.8448,8.1426,8.3979,8.661,8.9704,9.365,9.6667,9.9452,10.2005,10.1889,10.2082,10.3398,10.2508,10.1889,10.1889,10.1889,10.1889,10.1889,10.1889,10.1889,10.1889,10.1889,10.1889,10.1889,10.1889,10.1889,10.1889,10.1889,10.1889,10.1889,10.1889,10.1889,10.1889,10.1889,10.2701,10.4094,10.4094,10.51,10.6686,10.6686,10.6802,10.6995,10.6995,10.6995,10.6995,10.6995,10.6995,10.6995,10.6995,10.6995,10.6995,10.6995,10.7111,10.7382,10.7885,10.7807,10.7691,10.7885,10.7691,10.7305,10.6995,10.6995,10.6995,10.6995,10.6995,10.6995,10.6995,10.6995,10.6995,10.6995,10.6995,10.6995,10.6995,10.6995,10.6995,10.6995,10.6995,10.6995,10.6995,10.6995,10.6995,10.6995,10.6995,10.6995,10.6995,10.6995,10.6995,10.6995,10.6995,10.6995,10.6995,10.6995,10.6995,10.6995,10.7189,10.7399,10.7617,10.7812,10.789,6.9938,7.2877,7.5585,7.516,7.4734,7.4347,7.3844,7.2839,7.1872,7.1407,7.2684,7.4309,7.5585,7.8602,8.2122,8.5875,8.8389,9.129,9.539,9.8988,10.1502,10.2508,10.2508,10.2701,10.3204,10.2392,10.1889,10.1889,10.1889,10.1889,10.1889,10.1889,10.1889,10.1889,10.1889,10.1889,10.1889,10.1889,10.1889,10.1889,10.1889,10.1889,10.1889,10.1889,10.1889,10.1889,10.2315,10.3204,10.4403,10.479,10.5796,10.6995,10.6995,10.6995,10.6995,10.6995,10.6995,10.6995,10.6995,10.6995,10.7111,10.7498,10.7305,10.7111,10.7498,10.7305,10.7111,10.7614,10.7691,10.7614,10.7691,10.7382,10.6995,10.6995,10.6995,10.6995,10.6995,10.6995,10.6995,10.6995,10.6995,10.6995,10.6995,10.6995,10.6995,10.6995,10.6995,10.6995,10.6995,10.6995,10.6995,10.6995,10.6995,10.6995,10.6995,10.6995,10.6995,10.6995,10.6995,10.6995,10.6995,10.6995,10.6995,10.6995,10.6995,10.6995,10.6995,10.7111,10.7313,10.7402,10.7713,10.8086,6.8893,7.2723,7.6397,7.6397,7.574,7.516,7.543,7.3535,7.1678,7.1678,7.3303,7.5082,7.6397,7.9453,8.3322,8.8079,8.9588,9.2025,9.7363,10.0187,10.1812,10.2082,10.2585,10.2817,10.2315,10.2082,10.1889,10.1889,10.1889,10.1889,10.1889,10.1889,10.1889,10.1889,10.1889,10.1889,10.1889,10.1889,10.1889,10.1889,10.1889,10.1889,10.1889,10.1889,10.1889,10.1889,10.2817,10.3707,10.4519,10.5293,10.6183,10.6995,10.6995,10.6995,10.6995,10.6995,10.6995,10.6995,10.6995,10.7111,10.7305,10.7885,10.7691,10.7305,10.7885,10.7614,10.6995,10.6995,10.7498,10.7885,10.7189,10.6995,10.6995,10.6995,10.6995,10.6995,10.6995,10.6995,10.6995,10.6995,10.6995,10.6995,10.6995,10.6995,10.6995,10.6995,10.6995,10.6995,10.6995,10.6995,10.6995,10.6995,10.6995,10.6995,10.6995,10.6995,10.6995,10.6995,10.6995,10.6995,10.6995,10.6995,10.6995,10.6995,10.6995,10.6995,10.6995,10.7111,10.7189,10.7182,10.7703,10.8389,7.0286,7.3612,7.6397,7.6397,7.574,7.5508,7.6978,7.5314,7.3496,7.3496,7.6011,7.9337,8.3051,8.6532,8.9782,9.276,9.3959,9.5352,9.775,9.9645,10.1309,10.2817,10.2508,10.2585,10.3901,10.2701,10.1889,10.1889,10.1889,10.1889,10.1889,10.1889,10.1889,10.1889,10.1889,10.1889,10.1889,10.1889,10.1889,10.1889,10.1889,10.1889,10.1889,10.1889,10.1889,10.1889,10.2817,10.3707,10.4519,10.5293,10.6183,10.6995,10.6995,10.6995,10.6995,10.6995,10.6995,10.6995,10.6995,10.7498,10.8001,10.7382,10.7614,10.8001,10.7382,10.7111,10.6995,10.6995,10.7111,10.7189,10.6995,10.6995,10.6995,10.6995,10.6995,10.6995,10.6995,10.6995,10.6995,10.6995,10.6995,10.6995,10.6995,10.6995,10.6995,10.6995,10.6995,10.6995,10.6995,10.6995,10.6995,10.6995,10.6995,10.6995,10.6995,10.6995,10.6995,10.6995,10.6995,10.6995,10.6995,10.6995,10.6995,10.6995,10.6995,10.6995,10.6995,10.6995,10.7111,10.7189,10.8181,10.8801,6.9396,7.2104,7.5237,7.895,7.9918,8.0188,8.0962,8.0575,7.9299,7.6514,7.868,8.1929,8.4792,8.7731,9.1484,9.6783,9.7982,9.8872,10.0613,10.1502,10.2315,10.3088,10.2817,10.2701,10.3011,10.2392,10.1889,10.1889,10.1889,10.1889,10.1889,10.1889,10.1889,10.1889,10.1889,10.1889,10.1889,10.1889,10.1889,10.1889,10.1889,10.1889,10.1889,10.1889,10.1889,10.2005,10.3282,10.4094,10.4519,10.5796,10.6608,10.6995,10.6995,10.6995,10.6995,10.6995,10.6995,10.6995,10.6995,10.7305,10.7614,10.7691,10.7691,10.7614,10.7691,10.7382,10.6995,10.6995,10.6995,10.6995,10.6995,10.6995,10.6995,10.6995,10.6995,10.6995,10.6995,10.6995,10.6995,10.6995,10.6995,10.6995,10.6995,10.6995,10.6995,10.6995,10.6995,10.6995,10.6995,10.6995,10.6995,10.6995,10.6995,10.6995,10.6995,10.6995,10.6995,10.6995,10.6995,10.6995,10.6995,10.6995,10.6995,10.6995,10.6995,10.6995,10.6995,10.6995,10.6995,10.7111,10.8194,10.8976,6.9319,7.1833,7.543,8.1078,8.3012,8.3902,8.5526,8.5759,8.4598,8.1117,8.2935,8.5759,8.7654,9.0284,9.3959,9.9413,10.0496,10.1077,10.2701,10.2895,10.2895,10.2895,10.2895,10.2585,10.2005,10.1889,10.1889,10.1889,10.1889,10.1889,10.1889,10.1889,10.1889,10.1889,10.1889,10.1889,10.1889,10.1889,10.1889,10.1889,10.1889,10.1889,10.1889,10.1889,10.1889,10.2005,10.3514,10.421,10.4519,10.6105,10.6802,10.6995,10.6995,10.6995,10.6995,10.6995,10.6995,10.6995,10.6995,10.7111,10.7382,10.7807,10.7691,10.7382,10.7885,10.7498,10.6995,10.6995,10.6995,10.6995,10.6995,10.6995,10.6995,10.6995,10.6995,10.6995,10.6995,10.6995,10.6995,10.6995,10.6995,10.6995,10.6995,10.6995,10.6995,10.6995,10.6995,10.6995,10.6995,10.6995,10.6995,10.6995,10.6995,10.6995,10.6995,10.6995,10.6995,10.6995,10.6995,10.6995,10.6995,10.6995,10.6995,10.6995,10.6995,10.6995,10.6995,10.6995,10.7111,10.7305,10.831,10.9407,7.2297,7.5353,7.9028,8.1078,8.1658,8.336,8.9704,8.8737,8.688,8.8118,9.0439,9.3031,9.5506,9.8717,10.0613,9.9568,10.011,10.0883,10.1889,10.2005,10.2005,10.2005,10.2005,10.2005,10.1889,10.1889,10.1889,10.1889,10.1889,10.1889,10.1889,10.1889,10.1889,10.1889,10.1889,10.1889,10.1889,10.1889,10.1889,10.1889,10.1889,10.1889,10.1889,10.1889,10.1889,10.2005,10.2895,10.3707,10.4519,10.5409,10.6299,10.6995,10.6995,10.6995,10.6995,10.6995,10.6995,10.6995,10.6995,10.7498,10.8078,10.7305,10.7614,10.8078,10.7305,10.6995,10.6995,10.6995,10.6995,10.6995,10.6995,10.6995,10.6995,10.6995,10.6995,10.6995,10.6995,10.6995,10.6995,10.6995,10.6995,10.6995,10.6995,10.6995,10.6995,10.6995,10.6995,10.6995,10.6995,10.6995,10.6995,10.6995,10.6995,10.6995,10.6995,10.6995,10.6995,10.6995,10.6995,10.6995,10.6995,10.6995,10.6995,10.6995,10.6995,10.6995,10.6995,10.6995,10.7382,10.8194,10.92,11.0311,7.0711,7.4502,7.8834,8.162,8.4327,8.7112,9.0207,9.276,9.4075,9.2605,9.3495,9.5004,9.6512,9.9143,10.1193,10.1696,10.0613,10.0303,10.1696,10.1889,10.1889,10.1889,10.1889,10.1889,10.1889,10.1889,10.1889,10.1889,10.1889,10.1889,10.1889,10.1889,10.1889,10.1889,10.1889,10.1889,10.1889,10.1889,10.1889,10.1889,10.1889,10.1889,10.1889,10.1889,10.1889,10.2005,10.3398,10.4094,10.4519,10.5912,10.6686,10.6995,10.6995,10.6995,10.6995,10.6995,10.6995,10.6995,10.6995,10.7189,10.7382,10.7111,10.7189,10.7382,10.7111,10.6995,10.6995,10.6995,10.6995,10.6995,10.6995,10.6995,10.6995,10.6995,10.6995,10.6995,10.6995,10.6995,10.6995,10.6995,10.6995,10.6995,10.6995,10.6995,10.6995,10.6995,10.6995,10.6995,10.6995,10.6995,10.6995,10.6995,10.6995,10.6995,10.6995,10.6995,10.6995,10.6995,10.6995,10.6995,10.6995,10.6995,10.6995,10.6995,10.6995,10.6995,10.6995,10.6995,10.7382,10.831,10.92,11.0283,7.1214,7.5585,8.0614,8.2703,8.661,9.0323,9.1716,9.4772,9.7015,9.6009,9.6706,9.7518,9.7595,9.922,10.0883,10.1812,10.069,10.0187,10.1696,10.1889,10.1889,10.1889,10.1889,10.1889,10.1889,10.1889,10.1889,10.1889,10.1889,10.1889,10.1889,10.1889,10.1889,10.1889,10.1889,10.1889,10.1889,10.1889,10.1889,10.1889,10.1889,10.1889,10.1889,10.1889,10.1889,10.2005,10.3398,10.421,10.4519,10.5989,10.6802,10.6995,10.6995,10.6995,10.6995,10.6995,10.6995,10.6995,10.6995,10.6995,10.6995,10.6995,10.6995,10.6995,10.6995,10.6995,10.6995,10.6995,10.6995,10.6995,10.6995,10.6995,10.6995,10.6995,10.6995,10.6995,10.6995,10.6995,10.6995,10.6995,10.6995,10.6995,10.6995,10.6995,10.6995,10.6995,10.6995,10.6995,10.6995,10.6995,10.6995,10.6995,10.6995,10.6995,10.6995,10.6995,10.6995,10.6995,10.6995,10.6995,10.6995,10.6995,10.6995,10.6995,10.7305,10.7382,10.7382,10.7691,10.8194,10.9123,10.9703,11.0593,7.4889,7.9531,8.514,8.4366,8.7963,9.2412,9.4926,9.423,9.423,9.8446,10.069,10.1386,9.9607,9.9994,10.0303,9.9452,9.9994,10.0883,10.1812,10.1889,10.1889,10.1889,10.1889,10.1889,10.1889,10.1889,10.1889,10.1889,10.1889,10.1889,10.1889,10.1889,10.1889,10.1889,10.1889,10.1889,10.1889,10.1889,10.1889,10.1889,10.1889,10.1889,10.1889,10.1889,10.1889,10.1889,10.2817,10.3707,10.4519,10.5293,10.6183,10.6995,10.6995,10.6995,10.6995,10.6995,10.6995,10.6995,10.6995,10.6995,10.6995,10.6995,10.6995,10.6995,10.6995,10.6995,10.6995,10.6995,10.6995,10.6995,10.6995,10.6995,10.6995,10.6995,10.6995,10.6995,10.6995,10.6995,10.6995,10.6995,10.6995,10.6995,10.6995,10.6995,10.6995,10.6995,10.6995,10.6995,10.6995,10.6995,10.6995,10.6995,10.6995,10.6995,10.6995,10.6995,10.6995,10.6995,10.6995,10.6995,10.6995,10.6995,10.6995,10.6995,10.7885,10.831,10.831,10.9084,10.9896,11.0786,11.0786,11.1405,7.779,8.2625,8.7228,8.7577,9.1522,9.5506,9.6241,9.6938,9.7634,9.833,10.0806,10.2082,9.9723,9.9994,10.069,10.1115,10.0806,10.0883,10.1812,10.1889,10.1889,10.1889,10.1889,10.1889,10.1889,10.1889,10.1889,10.1889,10.1889,10.1889,10.1889,10.1889,10.1889,10.1889,10.1889,10.1889,10.1889,10.1889,10.1889,10.1889,10.1889,10.1889,10.1889,10.1889,10.1889,10.2005,10.3398,10.421,10.4519,10.5989,10.6802,10.6995,10.6995,10.6995,10.6995,10.6995,10.6995,10.6995,10.6995,10.6995,10.6995,10.6995,10.6995,10.6995,10.6995,10.6995,10.6995,10.6995,10.6995,10.6995,10.6995,10.6995,10.6995,10.6995,10.6995,10.6995,10.6995,10.6995,10.6995,10.6995,10.6995,10.6995,10.6995,10.6995,10.6995,10.6995,10.6995,10.6995,10.6995,10.6995,10.6995,10.6995,10.6995,10.6995,10.6995,10.6995,10.6995,10.6995,10.6995,10.6995,10.6995,10.6995,10.6995,10.6995,10.7885,10.831,10.831,10.9084,10.9896,11.0786,11.0786,11.1405,8.162,8.6726,9.1638,9.2528,9.5274,9.7866,9.8214,9.8833,9.9181,9.8678,10.0806,10.2199,10.0613,10.0806,10.1309,10.1812,10.1502,10.1309,10.1812,10.1889,10.1889,10.1889,10.1889,10.1889,10.1889,10.1889,10.1889,10.1889,10.1889,10.1889,10.1889,10.1889,10.1889,10.1889,10.1889,10.1889,10.1889,10.1889,10.1889,10.1889,10.1889,10.1889,10.1889,10.1889,10.1889,10.2005,10.3707,10.479,10.5487,10.6608,10.6995,10.6995,10.6995,10.6995,10.6995,10.6995,10.6995,10.6995,10.6995,10.6995,10.6995,10.6995,10.6995,10.6995,10.6995,10.6995,10.6995,10.6995,10.6995,10.6995,10.6995,10.6995,10.6995,10.6995,10.6995,10.6995,10.6995,10.6995,10.6995,10.6995,10.6995,10.6995,10.6995,10.6995,10.6995,10.6995,10.6995,10.6995,10.6995,10.6995,10.6995,10.6995,10.6995,10.6995,10.6995,10.6995,10.6995,10.6995,10.6995,10.6995,10.6995,10.6995,10.7189,10.7498,10.831,10.8891,10.9316,11.009,11.0786,11.1289,11.1289,11.1714,8.5449,9.0826,9.6706,9.7827,9.8756,9.9645,10.038,9.9994,9.9491,9.9336,10.069,10.1889,10.1812,10.1812,10.1889,10.1889,10.1889,10.1889,10.1889,10.1889,10.1889,10.1889,10.1889,10.1889,10.1889,10.1889,10.1889,10.1889,10.1889,10.1889,10.1889,10.1889,10.1889,10.1889,10.1889,10.1889,10.1889,10.1889,10.1889,10.1889,10.1889,10.1889,10.2005,10.1889,10.2005,10.2199,10.3707,10.5409,10.6995,10.6995,10.6995,10.6995,10.6995,10.6995,10.6995,10.6995,10.6995,10.6995,10.6995,10.6995,10.6995,10.6995,10.6995,10.6995,10.6995,10.6995,10.6995,10.6995,10.6995,10.6995,10.6995,10.6995,10.6995,10.6995,10.6995,10.6995,10.6995,10.6995,10.6995,10.6995,10.6995,10.6995,10.6995,10.6995,10.6995,10.6995,10.6995,10.6995,10.6995,10.6995,10.6995,10.6995,10.6995,10.6995,10.6995,10.6995,10.6995,10.6995,10.6995,10.6995,10.6995,10.6995,10.7382,10.831,10.9084,10.9896,11.0786,11.1714,11.2101,11.2101,11.2101,11.2101,8.4908,8.9975,9.4501,9.7363,9.922,10.038,10.0613,10.0999,10.0999,9.9568,10.069,10.1696,10.0999,10.1386,10.1889,10.1889,10.1889,10.1889,10.1889,10.1889,10.1889,10.1889,10.1889,10.1889,10.1889,10.1889,10.1889,10.1889,10.1889,10.1889,10.1889,10.1889,10.1889,10.1889,10.1889,10.1889,10.1889,10.1889,10.1889,10.1889,10.1889,10.2315,10.2895,10.2199,10.2585,10.3901,10.421,10.5409,10.6995,10.6995,10.6995,10.6995,10.6995,10.6995,10.6995,10.6995,10.6995,10.6995,10.6995,10.6995,10.6995,10.6995,10.6995,10.6995,10.6995,10.6995,10.6995,10.6995,10.6995,10.6995,10.6995,10.6995,10.6995,10.6995,10.6995,10.6995,10.6995,10.6995,10.6995,10.6995,10.6995,10.6995,10.6995,10.6995,10.6995,10.6995,10.6995,10.6995,10.6995,10.6995,10.6995,10.6995,10.6995,10.6995,10.6995,10.6995,10.6995,10.6995,10.6995,10.6995,10.6995,10.6995,10.7382,10.831,10.9084,10.9896,11.0786,11.1714,11.2101,11.2101,11.2101,11.2101,8.6107,9.0942,9.512,9.8949,10.0613,10.1193,10.1193,10.158,10.158,10.069,10.1309,10.1812,10.1309,10.158,10.1889,10.1889,10.1889,10.1889,10.1889,10.1889,10.1889,10.1889,10.1889,10.1889,10.1889,10.1889,10.1889,10.1889,10.1889,10.1889,10.1889,10.1889,10.1889,10.1889,10.1889,10.1889,10.1889,10.1889,10.1889,10.1889,10.1889,10.2392,10.3204,10.3088,10.3784,10.5022,10.5022,10.5796,10.6995,10.6995,10.6995,10.6995,10.6995,10.6995,10.6995,10.6995,10.6995,10.6995,10.6995,10.6995,10.6995,10.6995,10.6995,10.6995,10.6995,10.6995,10.6995,10.6995,10.6995,10.6995,10.6995,10.6995,10.6995,10.6995,10.6995,10.6995,10.6995,10.6995,10.6995,10.6995,10.6995,10.6995,10.6995,10.6995,10.6995,10.6995,10.6995,10.6995,10.6995,10.6995,10.6995,10.6995,10.6995,10.6995,10.6995,10.6995,10.6995,10.6995,10.6995,10.6995,10.6995,10.7382,10.8001,10.8891,10.9703,11.0593,11.1405,11.1908,11.2101,11.2101,11.2101,11.2101,8.5024,9.0594,9.5971,10.069,10.1812,10.1696,10.1889,10.1889,10.1889,10.1889,10.1889,10.1889,10.1889,10.1889,10.1889,10.1889,10.1889,10.1889,10.1889,10.1889,10.1889,10.1889,10.1889,10.1889,10.1889,10.1889,10.1889,10.1889,10.1889,10.1889,10.1889,10.1889,10.1889,10.1889,10.1889,10.1889,10.1889,10.1889,10.1889,10.1889,10.2199,10.2701,10.3398,10.4403,10.5216,10.5719,10.5719,10.6183,10.6995,10.6995,10.6995,10.6995,10.6995,10.6995,10.6995,10.6995,10.6995,10.6995,10.6995,10.6995,10.6995,10.6995,10.6995,10.6995,10.6995,10.6995,10.6995,10.6995,10.6995,10.6995,10.6995,10.6995,10.6995,10.6995,10.6995,10.6995,10.6995,10.6995,10.6995,10.6995,10.6995,10.6995,10.6995,10.6995,10.6995,10.6995,10.6995,10.6995,10.6995,10.6995,10.6995,10.6995,10.6995,10.6995,10.6995,10.6995,10.6995,10.6995,10.6995,10.6995,10.6995,10.8001,10.8813,10.9509,11.0399,11.1211,11.2101,11.2101,11.2101,11.2101,11.2101,11.2101,7.4928,8.3902,9.3766,10.0303,10.1309,10.0999,10.1696,10.1889,10.1889,10.1889,10.1889,10.1889,10.1889,10.1889,10.1889,10.1889,10.1889,10.1889,10.1889,10.1889,10.1889,10.1889,10.1889,10.1889,10.1889,10.1889,10.1889,10.1889,10.1889,10.1889,10.1889,10.1889,10.1889,10.1889,10.1889,10.1889,10.1889,10.1889,10.1889,10.1889,10.3398,10.4094,10.4287,10.5912,10.6299,10.5719,10.5719,10.6183,10.6995,10.6995,10.6995,10.6995,10.6995,10.6995,10.6995,10.6995,10.6995,10.6995,10.6995,10.6995,10.6995,10.6995,10.6995,10.6995,10.6995,10.6995,10.6995,10.6995,10.6995,10.6995,10.6995,10.6995,10.6995,10.6995,10.6995,10.6995,10.6995,10.6995,10.6995,10.6995,10.6995,10.6995,10.6995,10.6995,10.6995,10.6995,10.6995,10.6995,10.6995,10.6995,10.6995,10.6995,10.6995,10.6995,10.6995,10.6995,10.6995,10.6995,10.6995,10.6995,10.6995,10.8504,10.9393,10.9509,11.0399,11.1211,11.2101,11.2101,11.2101,11.2101,11.2101,11.2101,7.5933,8.5488,9.4269,9.922,10.0883,10.1386,10.1812,10.1889,10.1889,10.1889,10.1889,10.1889,10.1889,10.1889,10.1889,10.1889,10.1889,10.1889,10.1889,10.1889,10.1889,10.1889,10.1889,10.1889,10.1889,10.1889,10.1889,10.1889,10.1889,10.1889,10.1889,10.1889,10.1889,10.1889,10.1889,10.1889,10.1889,10.1889,10.1889,10.1889,10.3088,10.4017,10.4403,10.5719,10.6299,10.6415,10.6415,10.6608,10.6995,10.6995,10.6995,10.6995,10.6995,10.6995,10.6995,10.6995,10.6995,10.6995,10.6995,10.6995,10.6995,10.6995,10.6995,10.6995,10.6995,10.6995,10.6995,10.6995,10.6995,10.6995,10.6995,10.6995,10.6995,10.6995,10.6995,10.6995,10.6995,10.6995,10.6995,10.6995,10.6995,10.6995,10.6995,10.6995,10.6995,10.6995,10.6995,10.6995,10.6995,10.6995,10.6995,10.6995,10.6995,10.6995,10.6995,10.6995,10.6995,10.6995,10.6995,10.7189,10.7691,10.8891,10.9703,11.0206,11.1095,11.1714,11.2101,11.2101,11.2101,11.2101,11.2101,11.2101,7.721,8.5178,9.1677,9.7286,9.9645,10.0883,10.2005,10.2082,10.1889,10.1889,10.1889,10.1889,10.1889,10.1889,10.1889,10.1889,10.1889,10.1889,10.1889,10.1889,10.1889,10.1889,10.1889,10.1889,10.1889,10.1889,10.1889,10.1889,10.1889,10.1889,10.1889,10.1889,10.1889,10.1889,10.1889,10.1889,10.1889,10.1889,10.1889,10.1889,10.2817,10.3514,10.4094,10.5216,10.6105,10.6686,10.6879,10.6995,10.6995,10.6995,10.6995,10.6995,10.6995,10.6995,10.6995,10.6995,10.6995,10.6995,10.6995,10.6995,10.6995,10.6995,10.6995,10.6995,10.6995,10.6995,10.6995,10.6995,10.6995,10.6995,10.6995,10.6995,10.6995,10.6995,10.6995,10.6995,10.6995,10.6995,10.6995,10.6995,10.6995,10.6995,10.6995,10.6995,10.6995,10.6995,10.6995,10.6995,10.6995,10.6995,10.6995,10.6995,10.6995,10.6995,10.6995,10.6995,10.6995,10.6995,10.6995,10.7305,10.7885,10.9007,10.9819,11.0515,11.1521,11.2101,11.2101,11.2101,11.2101,11.2101,11.2101,11.2101,7.4309,7.8177,8.2548,9.4075,9.7015,9.8137,10.2199,10.2508,10.1889,10.1889,10.1889,10.1889,10.1889,10.1889,10.1889,10.1889,10.1889,10.1889,10.1889,10.1889,10.1889,10.1889,10.1889,10.1889,10.1889,10.1889,10.1889,10.1889,10.1889,10.1889,10.1889,10.1889,10.1889,10.1889,10.1889,10.1889,10.1889,10.1889,10.1889,10.1889,10.2817,10.3204,10.3282,10.4984,10.5719,10.5796,10.6608,10.6995,10.6995,10.6995,10.6995,10.6995,10.6995,10.6995,10.6995,10.6995,10.6995,10.6995,10.6995,10.6995,10.6995,10.6995,10.6995,10.6995,10.6995,10.6995,10.6995,10.6995,10.6995,10.6995,10.6995,10.6995,10.6995,10.6995,10.6995,10.6995,10.6995,10.6995,10.6995,10.6995,10.6995,10.6995,10.6995,10.6995,10.6995,10.6995,10.6995,10.6995,10.6995,10.6995,10.6995,10.6995,10.6995,10.6995,10.6995,10.6995,10.6995,10.6995,10.6995,10.6995,10.7111,10.8581,10.9509,10.9587,11.1211,11.2101,11.2101,11.2101,11.2101,11.2101,11.2101,11.2101,7.1678,7.6397,8.1465,8.8505,9.2721,9.5661,9.7789,9.9723,10.1077,10.1077,10.1502,10.1889,10.1889,10.1889,10.1889,10.1889,10.1889,10.1889,10.1889,10.1889,10.1889,10.1889,10.1889,10.1889,10.1889,10.1889,10.1889,10.1889,10.1889,10.1889,10.1889,10.1889,10.1889,10.1889,10.1889,10.1889,10.1889,10.1889,10.1889,10.1889,10.2199,10.2701,10.3204,10.4403,10.5216,10.5719,10.6608,10.6995,10.6995,10.6995,10.6995,10.6995,10.6995,10.6995,10.6995,10.6995,10.6995,10.6995,10.6995,10.6995,10.6995,10.6995,10.6995,10.6995,10.6995,10.6995,10.6995,10.6995,10.6995,10.6995,10.6995,10.6995,10.6995,10.6995,10.6995,10.6995,10.6995,10.6995,10.6995,10.6995,10.6995,10.6995,10.6995,10.6995,10.6995,10.6995,10.6995,10.6995,10.6995,10.6995,10.6995,10.6995,10.6995,10.6995,10.6995,10.6995,10.6995,10.6995,10.6995,10.7305,10.7807,10.8891,10.9819,11.0322,11.1521,11.2101,11.2101,11.2101,11.2101,11.2101,11.2101,11.1792,6.9628,7.3999,7.9028,8.4753,8.8505,9.1793,9.5506,9.7905,9.9568,10.038,10.1309,10.1889,10.1889,10.1889,10.1889,10.1889,10.1889,10.1889,10.1889,10.1889,10.1889,10.1889,10.1889,10.1889,10.1889,10.1889,10.1889,10.1889,10.1889,10.1889,10.1889,10.1889,10.1889,10.1889,10.1889,10.1889,10.1889,10.1889,10.1889,10.1889,10.2199,10.2585,10.3204,10.4287,10.5216,10.5796,10.6918,10.7305,10.6995,10.6995,10.6995,10.6995,10.6995,10.6995,10.6995,10.7305,10.7305,10.6995,10.7305,10.7189,10.6995,10.6995,10.6995,10.6995,10.6995,10.6995,10.6995,10.6995,10.6995,10.6995,10.6995,10.6995,10.6995,10.6995,10.6995,10.6995,10.6995,10.6995,10.6995,10.6995,10.6995,10.6995,10.6995,10.6995,10.6995,10.6995,10.6995,10.6995,10.6995,10.6995,10.6995,10.6995,10.6995,10.6995,10.6995,10.6995,10.6995,10.6995,10.6995,10.7305,10.7807,10.8891,10.9819,11.0399,11.1521,11.2101,11.2101,11.2101,11.2101,11.2101,11.2101,11.1521,0.0,0.0,0.0,8.2935,8.4482,8.6416,9.5661,9.717,9.7325,9.9994,10.1193,10.1812,10.1889,10.1889,10.1889,10.1889,10.1889,10.1889,10.1889,10.1889,10.1889,10.1889,10.1889,10.1889,10.1889,10.1889,10.1889,10.1889,10.1889,10.1889,10.1889,10.1889,10.1889,10.1889,10.1889,10.1889,10.1889,10.1889,10.1889,10.1889,10.2779,10.3204,10.3204,10.4906,10.5603,10.5796,10.7498,10.7807,10.6995,10.6995,10.6995,10.6995,10.6995,10.6995,10.7111,10.8001,10.7691,10.7111,10.8001,10.7691,10.6995,10.6995,10.6995,10.6995,10.6995,10.6995,10.6995,10.6995,10.6995,10.6995,10.6995,10.6995,10.6995,10.6995,10.6995,10.6995,10.6995,10.6995,10.6995,10.6995,10.6995,10.6995,10.6995,10.6995,10.6995,10.6995,10.6995,10.6995,10.6995,10.6995,10.6995,10.6995,10.6995,10.6995,10.6995,10.6995,10.6995,10.6995,10.6995,10.6995,10.6995,10.8581,10.9509,10.9509,11.1211,11.2101,11.2101,11.2101,11.2101,11.2101,11.2024,11.1095,6.8429,0.0,0.0,0.0,0.0,0.0,8.8466,9.0555,9.307,9.9297,9.9336,9.9143,10.2315,10.2315,10.1889,10.1889,10.1889,10.1889,10.1889,10.1889,10.1889,10.1889,10.1889,10.1889,10.1889,10.1889,10.1889,10.1889,10.1889,10.1889,10.1889,10.1889,10.1889,10.1889,10.1889,10.1889,10.1889,10.1889,10.1889,10.1889,10.2082,10.2315,10.2315,10.3398,10.421,10.479,10.5912,10.6608,10.6995,10.7691,10.7614,10.6995,10.6995,10.6995,10.7111,10.8001,10.7691,10.7111,10.8001,10.7691,10.6995,10.6995,10.6995,10.6995,10.6995,10.6995,10.6995,10.6995,10.6995,10.6995,10.6995,10.6995,10.6995,10.6995,10.6995,10.6995,10.6995,10.6995,10.6995,10.6995,10.6995,10.6995,10.6995,10.6995,10.6995,10.6995,10.6995,10.6995,10.6995,10.6995,10.6995,10.6995,10.6995,10.6995,10.6995,10.6995,10.6995,10.6995,10.6995,10.7305,10.7885,10.8891,10.9819,11.0399,11.1521,11.2101,11.2101,11.2101,11.1792,11.1095,10.9896,10.9084,7.017,7.1717,7.3728,7.6127,0.0,0.0,8.6261,8.8428,9.1329,9.9027,9.9143,9.8833,10.2082,10.1618,10.0883,10.1309,10.1386,10.1502,10.1812,10.1889,10.1889,10.1889,10.1889,10.1889,10.1889,10.1889,10.1889,10.1889,10.1889,10.1889,10.1889,10.1889,10.1889,10.1889,10.1889,10.1889,10.1889,10.1889,10.1889,10.1889,10.2315,10.2392,10.2508,10.3282,10.421,10.5022,10.6221,10.6918,10.7111,10.831,10.8078,10.6995,10.6995,10.6995,10.7111,10.8388,10.8001,10.7189,10.8388,10.8001,10.6995,10.6995,10.6995,10.6995,10.6995,10.6995,10.6995,10.6995,10.6995,10.6995,10.6995,10.6995,10.6995,10.6995,10.6995,10.6995,10.6995,10.6995,10.6995,10.6995,10.6995,10.6995,10.6995,10.6995,10.6995,10.6995,10.6995,10.6995,10.6995,10.6995,10.6995,10.6995,10.6995,10.6995,10.6995,10.6995,10.6995,10.6995,10.6995,10.7382,10.831,10.9084,10.9896,11.0786,11.1714,11.1908,11.1598,11.1598,11.1095,11.0206,10.8891,10.831,7.2684,7.3496,7.4928,7.7945,7.7674,0.0,8.6377,8.8196,9.04,9.7905,9.864,9.8524,10.0496,9.9645,9.8872,9.9645,10.011,10.0806,10.158,10.1812,10.1812,10.1812,10.1812,10.1812,10.1889,10.1889,10.1889,10.1889,10.1889,10.1889,10.1889,10.1889,10.1889,10.1889,10.1889,10.1889,10.1889,10.1889,10.1889,10.1889,10.2701,10.3088,10.3088,10.3784,10.4597,10.5487,10.7111,10.7305,10.6802,10.8388,10.831,10.6995,10.6995,10.6995,10.7189,10.8813,10.8388,10.7189,10.8813,10.831,10.6995,10.6995,10.6995,10.6995,10.6995,10.6995,10.6995,10.6995,10.6995,10.6995,10.6995,10.6995,10.6995,10.6995,10.6995,10.6995,10.6995,10.6995,10.6995,10.6995,10.6995,10.6995,10.6995,10.6995,10.6995,10.6995,10.6995,10.6995,10.6995,10.6995,10.6995,10.6995,10.6995,10.6995,10.6995,10.6995,10.6995,10.6995,10.6995,10.7382,10.8388,10.9084,11.0012,11.0902,11.1598,11.1521,11.0709,11.0593,11.009,10.9316,10.8504,10.8194,7.4702,7.519,7.6049,7.6746,7.7713,0.0,8.1426,8.2471,8.4792,9.1097,9.0633,9.0246,9.4037,9.4462,9.4269,9.4462,9.7325,9.9878,10.069,10.0883,10.0883,10.0883,10.0883,10.1077,10.1812,10.1889,10.1889,10.1889,10.1889,10.1889,10.1889,10.1889,10.1889,10.1889,10.1889,10.1889,10.1889,10.1889,10.1889,10.1889,10.2082,10.2199,10.2199,10.2315,10.2895,10.3707,10.4017,10.4481,10.4984,10.5989,10.6686,10.6995,10.6995,10.6995,10.7111,10.8194,10.7885,10.7111,10.8194,10.7885,10.6995,10.6995,10.6995,10.6995,10.6995,10.6995,10.6995,10.6995,10.6995,10.6995,10.6995,10.6995,10.6995,10.6995,10.6995,10.6995,10.6995,10.6995,10.6995,10.6995,10.6995,10.6995,10.6995,10.6995,10.6995,10.6995,10.6995,10.6995,10.6995,10.6995,10.6995,10.6995,10.6995,10.6995,10.6995,10.6995,10.6995,10.6995,10.6995,10.7691,10.92,10.9393,11.0206,11.1792,11.1289,11.0593,10.9819,10.9084,10.8697,10.8504,10.7691,10.7305,7.6533,7.6659,7.7248,7.8099,7.8332,0.0,0.0,8.1504,8.3206,8.9163,8.8389,8.777,9.1638,9.1329,9.1019,9.2721,9.512,9.6899,9.7363,9.9994,10.1696,10.1309,10.1193,10.1386,10.1889,10.1889,10.1889,10.1889,10.1889,10.1889,10.1889,10.1889,10.1889,10.1889,10.1889,10.1889,10.1889,10.1889,10.1889,10.1889,10.1889,10.1889,10.1889,10.1889,10.2392,10.3204,10.3591,10.4017,10.4519,10.5796,10.6299,10.6415,10.6802,10.6995,10.7111,10.8001,10.7691,10.7111,10.8001,10.7691,10.6995,10.6995,10.6995,10.6995,10.6995,10.6995,10.6995,10.6995,10.6995,10.6995,10.6995,10.6995,10.6995,10.6995,10.6995,10.6995,10.6995,10.6995,10.6995,10.6995,10.6995,10.6995,10.6995,10.6995,10.6995,10.6995,10.6995,10.6995,10.6995,10.6995,10.6995,10.6995,10.6995,10.6995,10.6995,10.6995,10.6995,10.6995,10.6995,10.7807,10.9393,10.9509,11.009,11.1405,11.0593,10.9703,10.8891,10.8078,10.7691,10.7614,10.7189,10.6995,7.8374,7.8348,7.8824,7.9674,7.9249,7.9133,0.0,0.0,0.0,8.724,8.6776,8.6428,8.9212,8.8196,8.7654,8.9936,9.1948,9.2992,9.2335,9.7441,10.0999,10.0465,10.0813,10.12,10.1394,10.1696,10.1889,10.1889,10.1889,10.1889,10.1889,10.1889,10.1889,10.1889,10.1889,10.1889,10.1889,10.1889,10.1889,10.1889,10.1889,10.1889,10.1889,10.1889,10.2315,10.3011,10.3591,10.3901,10.4017,10.5603,10.5912,10.5603,10.6608,10.6995,10.7111,10.7807,10.7614,10.7111,10.7807,10.7614,10.6995,10.6995,10.6995,10.6995,10.6802,10.6686,10.6686,10.6492,10.6492,10.6492,10.6686,10.6686,10.6802,10.6995,10.6995,10.6995,10.6995,10.6995,10.6995,10.6995,10.6995,10.6995,10.6995,10.6995,10.6995,10.6995,10.6995,10.6995,10.6995,10.6995,10.6995,10.6995,10.6995,10.6995,10.6995,10.6995,10.6995,10.6995,10.6995,10.7807,10.9393,10.9703,11.009,11.0786,10.9819,10.8891,10.831,10.7382,10.6995,10.6995,10.6995,10.6995,8.0511,8.0839,8.1551,7.9389,8.047,8.1165,7.773,0.0,8.1088,8.02,0.0,8.2096,8.2482,0.0,0.0,8.0885,8.5759,8.8698,8.5681,9.04,9.4356,9.4914,9.6906,9.8604,9.9404,10.1007,10.1889,10.1889,10.1889,10.1889,10.1889,10.1889,10.1889,10.1889,10.1889,10.1889,10.1889,10.1889,10.1889,10.1889,10.1889,10.1889,10.1889,10.1889,10.2005,10.2082,10.2082,10.2199,10.2315,10.3204,10.4017,10.4713,10.6415,10.6995,10.6995,10.7111,10.7111,10.6995,10.7111,10.7111,10.6995,10.6995,10.6995,10.6879,10.6105,10.5796,10.5719,10.4906,10.4713,10.4906,10.5603,10.5796,10.5989,10.6802,10.6995,10.6995,10.6995,10.6995,10.6995,10.6995,10.6995,10.6995,10.6995,10.6995,10.6995,10.6995,10.6995,10.6995,10.6995,10.6995,10.6995,10.6995,10.6995,10.6995,10.6995,10.6995,10.6995,10.6995,10.6995,10.7807,10.9393,11.0206,11.0709,11.0786,10.92,10.8388,10.831,10.7382,10.6995,10.6995,10.6995,10.6995,8.2892,8.349,8.3856,8.2736,8.293,8.2273,7.7961,7.7665,7.8398,7.8668,0.0,0.0,0.0,0.0,0.0,0.0,8.4018,8.5565,8.3631,8.7163,9.0586,9.2411,9.3578,9.5123,9.7511,9.836,9.9404,10.1014,10.0202,10.0009,10.1014,10.1587,10.1889,10.1889,10.1889,10.1889,10.1889,10.1889,10.1889,10.1889,10.1889,10.1889,10.1889,10.1889,10.1889,10.1889,10.1889,10.1889,10.2005,10.2817,10.3398,10.3784,10.4984,10.6105,10.6995,10.6995,10.6995,10.6879,10.6415,10.6183,10.6183,10.6183,10.6183,10.6183,10.5796,10.5293,10.4906,10.4519,10.4403,10.4519,10.4906,10.4906,10.5216,10.5989,10.6183,10.6415,10.6879,10.6995,10.6995,10.6995,10.6995,10.6995,10.6995,10.6995,10.6995,10.6995,10.6995,10.6995,10.6995,10.6995,10.6995,10.6995,10.6995,10.6995,10.6995,10.6995,10.6995,10.6995,10.7885,10.8813,10.9509,11.0322,11.0322,10.9393,10.8697,10.8078,10.7498,10.7189,10.6995,10.6995,10.6995,10.6995,8.6538,8.6336,8.5941,8.6433,8.4667,8.2168,7.9478,7.815,7.7764,7.8497,7.8976,0.0,0.0,0.0,7.9945,8.0834,0.0,8.2419,8.0873,8.3293,8.6317,8.9136,9.0488,9.2234,9.4937,9.5561,9.6796,9.9216,9.8212,9.8399,10.0408,10.1091,10.1587,10.1889,10.1889,10.1889,10.1889,10.1889,10.1889,10.1889,10.1889,10.1889,10.1889,10.1889,10.1889,10.1889,10.1889,10.1889,10.1889,10.2585,10.3088,10.3591,10.421,10.5487,10.6879,10.6492,10.6299,10.6183,10.5603,10.5293,10.5293,10.5293,10.5293,10.5293,10.51,10.4597,10.4017,10.3784,10.3707,10.3784,10.4017,10.4094,10.4287,10.5409,10.5719,10.5912,10.6802,10.6995,10.6995,10.6995,10.6995,10.6995,10.6995,10.6995,10.6995,10.6995,10.6995,10.6995,10.6995,10.6995,10.6995,10.6995,10.6995,10.6995,10.6995,10.6995,10.7111,10.7305,10.8697,10.9509,10.9509,10.9896,10.9509,10.831,10.8078,10.7614,10.6995,10.6995,10.6995,10.6995,10.6995,10.6995,9.1933,8.9401,8.7866,8.9586,8.4944,8.0354,8.1946,8.1647,8.0477,7.8823,8.1184,8.3025,8.1484,8.1196,8.0172,7.6931,7.8513,0.0,0.0,7.7394,8.0327,8.3645,8.7673,9.0493,9.1418,9.3065,9.4756,9.6525,9.6603,9.7716,10.0408,10.0485,10.0982,10.1889,10.1889,10.1889,10.1889,10.1889,10.1889,10.1889,10.1889,10.1889,10.1889,10.1889,10.1889,10.1889,10.1889,10.1889,10.1889,10.1889,10.2895,10.4403,10.4403,10.5487,10.6802,10.51,10.4519,10.4519,10.4519,10.4403,10.4403,10.4403,10.4403,10.4287,10.3514,10.3282,10.3088,10.2199,10.2005,10.2199,10.3011,10.3204,10.3707,10.5293,10.5719,10.5912,10.6802,10.6995,10.6995,10.6995,10.6995,10.6995,10.6995,10.6995,10.6995,10.6995,10.6995,10.6995,10.6995,10.6995,10.6995,10.6995,10.6995,10.6995,10.6995,10.6995,10.7382,10.8194,10.9007,10.9509,10.9509,10.8813,10.8388,10.831,10.7498,10.6995,10.6995,10.6995,10.6995,10.6995,10.6995,10.6995,9.5103,9.5059,9.4435,9.4466,9.0543,8.5938,8.3132,8.1308,7.99,7.8746,8.0808,8.3209,8.4425,8.2343,8.0817,8.1964,8.047,7.8359,0.0,7.6018,7.6993,7.9278,8.3765,8.7006,8.7879,9.0538,9.2888,9.4651,9.5268,9.6729,9.9454,10.0182,10.0904,10.1889,10.1889,10.1889,10.1889,10.1889,10.1889,10.1889,10.1889,10.1889,10.1889,10.1889,10.1889,10.1889,10.1889,10.1889,10.1889,10.1889,10.2199,10.2701,10.2701,10.3088,10.3784,10.5487,10.5796,10.51,10.4017,10.3591,10.3591,10.3591,10.3591,10.3591,10.3282,10.2817,10.2315,10.2005,10.1889,10.2005,10.2315,10.2315,10.2817,10.4403,10.479,10.5216,10.6686,10.6995,10.6995,10.6995,10.6995,10.6995,10.6995,10.6995,10.6995,10.6995,10.6995,10.6995,10.6995,10.6995,10.6995,10.6995,10.6995,10.6995,10.6995,10.7498,10.8194,10.9007,10.9316,10.9316,10.8697,10.8388,10.8001,10.7498,10.7189,10.6995,10.6995,10.6995,10.6995,10.6995,10.6995,10.6995,9.846,9.8334,9.7672,9.867,9.4775,9.0119,8.8004,8.5938,8.415,8.3295,8.3719,8.5021,8.7665,8.3894,8.1234,8.376,8.1041,7.7929,0.0,7.5166,7.5331,7.6727,8.0546,8.3933,8.6037,8.7589,8.9975,9.3547,9.347,9.493,9.8884,9.9685,10.0601,10.1889,10.1889,10.1889,10.1889,10.1889,10.1889,10.1889,10.1889,10.1889,10.1889,10.1889,10.1889,10.1889,10.1889,10.1889,10.1889,10.1889,10.2082,10.2392,10.2392,10.2508,10.3011,10.4597,10.479,10.421,10.3088,10.2701,10.2701,10.2701,10.2701,10.2701,10.2701,10.2315,10.2005,10.2585,10.2392,10.2005,10.2585,10.2315,10.2315,10.3591,10.4017,10.4403,10.5796,10.6105,10.6183,10.6492,10.6492,10.6608,10.6879,10.6995,10.6995,10.6995,10.6995,10.6995,10.6995,10.6995,10.6995,10.6995,10.6995,10.6879,10.6608,10.7614,10.8388,10.8581,10.8891,10.8813,10.831,10.8001,10.7614,10.6995,10.6995,10.6995,10.6995,10.6995,10.6995,10.6995,10.6995,10.6995]},{"header":{"parameterUnit":"m.s-1","parameterCategory":1,"la1":30.6,"la2":29.2853,"lo1":-89.7004,"lo2":-87.6739,"dx":0.0162,"dy":0.0183,"nx":112,"ny":82,"refTime":"2022-11-10T06:00:00:Z","depth":0,"parameterNumber":3,"parameterNumberName":"V-component_of_WINDS"},"data":[0.0,0.0,0.0,0.0,0.0,0.0,0.0,0.0,0.0,0.0,0.0,0.0,0.0,0.0,0.0,0.0,0.0,0.0,0.0,0.0,0.0,0.0,0.0,0.0,0.0,0.0,0.0,0.0,0.0,0.0,0.0,0.0,0.0,0.0,0.0,0.0,0.0,0.0,0.0,0.0,0.0,0.0,0.0,0.0,0.0,0.0,0.0,0.0,0.0,0.0,0.0,0.0,0.0,0.0,0.0,0.0,0.0,0.0,0.0,0.0,0.0,0.0,0.0,0.0,0.0,0.0,0.0,0.0,0.0,0.0,0.0,0.0,0.0,0.0,0.0,0.0,0.0,0.0,0.0,0.0,0.0,0.0,0.0,0.0,0.0,0.0,0.0,0.0,0.0,0.0,-0.134,-0.0176,0.0,0.0,0.0,0.0,0.0,0.0,0.0,0.0,0.0,0.0,0.0,0.0,0.0,0.0,0.0,0.0,0.0,0.0,0.0,0.0,0.0,0.0,0.0,0.0,0.0,0.0,0.0,0.0,0.0,0.0,0.0,0.0,0.0,0.0,0.0,0.0,0.0,0.0,0.0,0.0,0.0,0.0,0.0,0.0,0.0,0.0,0.0,0.0,0.0,0.0,0.0,0.0,0.0,0.0,0.0,0.0,0.0,0.0,0.0,0.0,0.0,0.0,0.0,0.0,0.0,0.0,0.0,0.0,0.0,0.0,0.0,0.0,0.0,0.0,0.0,0.0,0.0,0.0,0.0,0.0,0.0,0.0,0.0,0.0,0.0,0.0,0.0,0.0,0.0,0.0,0.0,0.0,0.0,0.0,0.0,0.0,0.0,0.0,0.0,0.0,0.0,0.0,0.0,0.0,0.0,0.0,0.0,0.0,0.0,0.0,-0.0167,-0.0,0.0,0.0,0.0,0.0,0.0,0.0,0.0,0.0,0.0,0.0,0.0,0.0,0.0,0.0,0.0,0.0,0.0,0.0,0.0,0.0,0.0,0.0,0.0,0.0,0.0,0.0,0.0,0.0,0.0,0.0,0.0,0.0,0.0,0.0,0.0,0.0,0.0,0.0,0.0,0.0,0.0,0.0,0.0,0.0,0.0,0.0,0.0,0.0,0.0,0.0,0.0,0.0,0.0,0.0,0.0,0.0,0.0,0.0,0.0,0.0,0.0,0.0,0.0,0.0,0.0,0.0,0.0,0.0,0.0,0.0,0.0,0.0,0.0,0.0,0.0,0.0,0.0,0.0,0.0,0.0,0.0,0.0,0.0,0.0,0.0,0.0,0.0,0.0,0.0,0.0,0.0,0.0,0.0,0.0,0.0,0.0,0.0,0.0,0.0,0.0,0.0,0.0,0.0,0.0,0.0,0.0,0.0,0.0,0.0,0.0,0.0,0.0,0.0,0.0,0.0,0.0,0.0,0.0,0.0,0.0,0.0,0.0,0.0,0.0,0.0,0.0,0.0,0.0,0.0,0.0,0.0,0.0,0.0,0.0,0.0,0.0,0.0,0.0,0.0,0.0,0.0,0.0,0.0,0.0,0.0,0.0,0.0,0.0,0.0,0.0,0.0,0.0,0.0,0.0,0.0,0.0,0.0,0.0,0.0,0.0,0.0,0.0,0.0,0.0,0.0,0.0,0.0,0.0,0.0,0.0,0.0,0.0,0.0,0.0,0.0,0.0,0.0,0.0,0.0,0.0,0.0,0.0,0.0,0.0,0.0,0.0,0.0,0.0,0.0,0.0,0.0,0.0,0.0,0.0,0.0,0.0,0.0,0.0,0.0,0.0,0.0,0.0,0.0,0.0,0.0,0.0,0.0,0.0,0.0,0.0,0.0,0.0,0.0,0.0,0.0,0.0,0.0,0.0,0.0,0.0,0.0,0.0,0.0,0.0,0.0,0.0,0.0,0.0,0.0,0.0,0.0,0.0,0.0,0.0,0.0,0.0,0.0,0.0,0.0,0.0,0.0,0.0,0.0,0.0,0.0,0.0,0.0,0.0,0.0,0.0,0.0,0.0,0.0,0.0,0.0,0.0,0.0,0.0,0.0,0.0,0.0,0.0,0.0,0.0,0.0,0.0,0.0,0.0,0.0,0.0,0.0,0.0,0.0,0.0,0.0,0.0,0.0,0.0,0.0,0.0,0.0,0.0,0.0,0.0,0.0,0.0,0.0,0.0,0.0,0.0,0.0,0.0,0.0,0.0,0.0,0.0,0.0,0.0,0.0,0.0,0.0,0.0,0.0,0.0,0.0,0.0,0.0,0.0,0.0,0.0,0.0,0.0,0.0,0.0,0.0,0.0,0.0,0.0,0.0,0.0,0.0,0.0,0.0,0.0,0.0,0.0,0.0,0.0,0.0,0.0,0.0,0.0,0.0,0.0,0.0,0.0,0.0,0.0,0.0,0.0,0.0,0.0,0.0,0.0,0.0,0.0,0.0,0.0,0.0,0.0,0.0,0.0,0.0,0.0,0.0,0.0,0.0,0.0,0.0,0.0,0.0,0.0,0.0,0.0,0.0,0.0,0.0,0.0,0.0,0.0,0.0,0.0,0.0,0.0,0.0,0.0,0.0,0.0,0.0,0.0,0.0,0.0,0.0,0.0,0.0,0.0,0.0,0.0,0.0,0.0,0.0,0.0,0.0,0.0,0.0,0.0,0.0,0.0,0.0,0.0,0.0,0.0,0.0,0.0,0.0,0.0,0.0,0.0,0.0,0.0,0.0,0.0,0.0,0.0,0.0,0.0,0.0,0.0,0.0,0.0,0.0,0.0,0.0,0.0,0.0,0.0,0.0,0.0,0.0,0.0,0.0,0.0,0.0,0.0,0.0,0.0,0.0,0.0,0.0,0.0,0.0,0.0,0.0,0.0,0.0,0.0,0.0,0.0,0.0,0.0,0.0,0.0,0.0,0.0,0.0,0.0,0.0,0.0,0.0,0.0,0.0,0.0,0.0,0.0,0.0,0.0,0.0,0.0,0.0,0.0,0.0,0.0,0.0,0.0,0.0,0.0,0.0,0.0,0.0,0.0,0.0,0.0,0.0,0.0,0.0,0.0,0.0,0.0,0.0,0.0,0.0,0.0,0.0,0.0,0.0,0.0,0.0,0.0,0.0,0.0,0.0,0.0,0.0,0.0,0.0,0.0,0.0,0.0,0.0,0.0,0.0,0.0,0.0,0.0,0.0,0.0,0.0,0.0,0.0,0.0,0.0,0.0,0.0,0.0,0.0,0.0,0.0,0.0,0.0,0.0,0.0,0.0,0.0,0.0,0.0,0.0,0.0,0.0,0.0,0.0,0.0,0.0,0.0,0.0,0.0,0.0,0.0,0.0,0.0,0.0,0.0,0.0,0.0,0.0,0.0,0.0,0.0,0.0,0.0,0.0,0.0,0.0,0.0,0.0,0.0,0.0,0.0,0.0,0.0,0.0,0.0,0.0,0.0,0.0,0.0,0.0,0.0,0.0,0.0,0.0,0.0,0.0,0.0,0.0,0.0,0.0,0.0,0.0,0.0,0.0,0.0,0.0,0.0,0.0,0.0,0.0,0.0,0.0,0.0,0.0,0.0,0.0,0.0,0.0,0.0,0.0,0.0,0.0,0.0,0.0,0.0,0.0,0.0,0.0,0.0,0.0,0.0,0.0,0.0,0.0,0.0,0.0,0.0,0.0,0.0,0.0,0.0,0.0,0.0,0.0,0.0,0.0,0.0,0.0,0.0,0.0,0.0,0.0,0.0,0.0,0.0,0.0,0.0,0.0,0.0,0.0,0.0,0.0,0.0,0.0,0.0,0.0,0.0,0.0,0.0,0.0,0.0,0.0,0.0,0.0,0.0,0.0,0.0,0.0,0.0,0.0,0.0,0.0,0.0,0.0,0.0,0.0,0.0,0.0,0.0,0.0,0.0,0.0,0.0,0.0,0.0,0.0,0.0,0.0,0.0,0.0,0.0,0.0,0.0,0.0,0.0,0.0,0.0,0.0,0.0,0.0,0.0,0.0,0.0,0.0,0.0,0.0,0.0,0.0,0.0,0.0,0.0,0.0,0.0,0.0,0.0,0.0,0.0,0.0,0.0,0.0,0.0,0.0,0.0,0.0,0.0,0.0,0.0,0.0,0.0,0.0,0.0,0.0,0.0,0.0,0.0,0.0,0.0,0.0,0.0,0.0,0.0,0.0,0.0,0.0,0.0,0.0,0.0,0.0,0.0,0.0,0.0,0.0,0.0,0.0,0.0,0.0,0.0,0.0,0.0,0.0,0.0,0.0,0.0,0.0,0.0,0.0,0.0,0.0,0.0,0.0,0.0,0.0,0.0,0.0,0.0,0.0,0.0,0.0,0.0,0.0,0.0,0.0,0.0,0.0,0.0,0.0,0.0,0.0,0.0,0.0,0.0,0.0,0.0,0.0,0.0,0.0,0.0,0.0,0.0,0.0,0.0,0.0,0.0,0.0,0.0,0.0,0.0,0.0,0.0,0.0,0.0,0.0,0.0,0.0,0.0,0.0,0.0,0.0,0.0,0.0,0.0,0.0,0.0,0.0,0.0,0.0,0.0,0.0,0.0,0.0,0.0,0.0,0.0,0.0,0.0,0.0,0.0,0.0,0.0,0.0,0.0,0.0,0.0,0.0,0.0,0.0,0.0,0.0,0.0,0.0,0.0,0.0,0.0,0.0,0.0,0.0,0.0,0.0,0.0,0.0,0.0,0.0,0.0,0.0,0.0,0.0,0.0,0.0,0.0,0.0,0.0,0.0,0.0,0.0,0.0,0.0,0.0,0.0,0.0,0.0,0.0,0.0,0.0,0.0,0.0,0.0,0.0,0.0,0.0,0.0,0.0,0.0,0.0,0.0,0.0,0.0,0.0,0.0,0.0,0.0,0.0,0.0,0.0,0.0,0.0,0.0,0.0,0.0,0.0,0.0,0.0,0.0,0.0,0.0,0.0,0.0,0.0,0.0,0.0,0.0,0.0,0.0,0.0,0.0,0.0,0.0,0.0,0.0,0.0,0.0,0.0,0.0,0.0,0.0,0.0,0.0,0.0,0.0,0.0,0.0,0.0,0.0,0.0,0.0,0.0,0.0,0.0,0.0,0.0,0.0,0.0,0.0,0.0,0.0,0.0,0.0,0.0,0.0,0.0,0.0,0.0,0.0,0.0,0.0,0.0,0.0,0.0,0.0,0.0,0.0,0.0,0.0,0.0,0.0,0.0,0.0,0.0,0.0,0.0,0.0,0.0,0.0,0.0,0.0,0.0,0.0,0.0,0.0,0.0,0.0,0.0,0.0,0.0,0.0,0.0,0.0,0.0,0.0,0.0,0.0,0.0,0.0,0.0,0.0,0.0,0.0,0.0,0.0,0.0,0.0,0.0,0.0,0.0,0.0,0.0,0.0,0.0,0.0,0.0,0.0,0.0,0.0,0.0,0.0,0.0,0.0,0.0,0.0,0.0,0.0,0.0,0.0,0.0,0.0,0.0,0.0,0.0,0.0,0.0,0.0,0.0,0.0,0.0,0.0,0.0,0.0,0.0,0.0,0.0,0.0,0.0,0.0,0.0,0.0,0.0,0.0,0.0,0.0,0.0,0.0,0.0,0.0,0.0,0.0,0.0,0.0,0.0,0.0,0.0,0.0,0.0,0.0,0.0,0.0,0.0,0.0,0.0,0.0,0.0,0.0,0.0,0.0,0.0,0.0,0.0,0.0,0.0,0.0,0.0,0.0,0.0,0.0,0.0,0.0,0.0,0.0,0.0,0.0,0.0,0.0,0.0,0.0,0.0,0.0,0.0,0.0,0.0,0.0,0.0,0.0,0.0,0.0,0.0,0.0,0.0,0.0,0.0,0.0,0.0,0.0,0.0,0.0,0.0,0.0,0.0,0.0,0.0,0.0,0.0,0.0,0.0,0.0,0.0,0.0,0.0,0.0,0.0,0.0,0.0,0.0,0.0,0.0,0.0,0.0,0.0,0.0,0.0,0.0,0.0,0.0,0.0,0.0,0.0,0.0,0.0,0.0,0.0,0.0,0.0,0.0,0.0,0.0,0.0,0.0,0.0,0.0,0.0,0.0,0.0,0.0,0.0,0.0,0.0,0.0,0.0,0.0,0.0,0.0,0.0,0.0,0.0,0.0,0.0,0.0,0.0,0.0,0.0,0.0,0.0,0.0,0.0,0.0,0.0,0.0,0.0,0.0,0.0,0.0,0.0,0.0,0.0,0.0,0.0,0.0,0.0,0.0,0.0,0.0,0.0,0.0,0.0,0.0,0.0,0.0,0.0,0.0,0.0,0.0,0.0,0.0,0.0,0.0,0.0,0.0,0.0,0.0,0.0,0.0,0.0,0.0,0.0,0.0,0.0,0.0,0.0,0.0,0.0,0.0,0.0,0.0,0.0,0.0,0.0,0.0,0.0,0.0,0.0,0.0,0.0,0.0,0.0,0.0,0.0,0.0,0.0,0.0,0.0,0.0,0.0,0.0,0.0,0.0,0.0,0.0,0.0,0.0,0.0,0.0,0.0,0.0,0.0,0.0,0.0,0.0,0.0,0.0,0.0,0.0,0.0,0.0,0.0,0.0,0.0,0.0,0.0,0.0,0.0,0.0,0.0,0.0,0.0,0.0,0.0,0.0,0.0,0.0,0.0,0.0,0.0,0.0,0.0,0.0,0.0,0.0,0.0,0.0,0.0,0.0,0.0,0.0,0.0,0.0,0.0,0.0,0.0,0.0,0.0,0.0,0.0,0.0,0.0,0.0,0.0,0.0,0.0,0.0,0.0,0.0,0.0,0.0,0.0,0.0,0.0,0.0,0.0,0.0,0.0,0.0,0.0,0.0,0.0,0.0,0.0,0.0,0.0,0.0,0.0,0.0,0.0,0.0,0.0,0.0,0.0,0.0,0.0,0.0,0.0,0.0,0.0,0.0,0.0,0.0,0.0,0.0,0.0,0.0,0.0,0.0,0.0,0.0,0.0,0.0,0.0,0.0,0.0,0.0,0.0,0.0,0.0,0.0,0.0,0.0,0.0,0.0,0.0,0.0,0.0,0.0,-0.0728,-0.1807,0.0,0.0,0.0,0.0,0.0,0.0,0.0,0.0,0.0,0.0,0.0,0.0,0.0,0.0,0.0,0.0,0.0,0.0,0.0,0.0,0.0,0.0,0.0,0.0,0.0,0.0,0.0,0.0,0.0,0.0,0.0,0.0,0.0,0.0,0.0,0.0,0.0,0.0,0.0,0.0,0.0,0.0,0.0,0.0,0.0,0.0,0.0,0.0,0.0,0.0,0.0,0.0,0.0,0.0,0.0,0.0,0.0,0.0,0.0,0.0,0.0,0.0,0.0,0.0,0.0,0.0,0.0,0.0,0.0,0.0,0.0,0.0,0.0,0.0,0.0,0.0,0.0,0.0,0.0,0.0,0.0,0.0,0.0,0.0,0.0,0.0,0.0,0.0,0.0,0.0,0.0,0.0,0.0,0.0,0.0,0.0,0.0,0.0,0.0,0.0,0.0,0.0,0.0,0.0,0.0,0.0,0.0,0.0,0.0,0.0,-0.0256,-0.095,-0.1186,-0.0891,0.0,0.0,0.0,0.0,0.0,0.0,0.0,0.0,0.0,0.0,0.0,0.0,0.0,0.0,0.0,0.0,0.0,0.0,0.0,0.0,0.0,0.0,0.0,0.0,0.0,0.0,0.0,0.0319,0.0,0.0,0.0,0.0,0.0,0.0,0.0,0.0,0.0,0.0,0.0,0.0,0.0,0.0,0.0,0.0,0.0,0.0,0.0,0.0,0.0,0.0,0.0,0.0,0.0,0.0,0.0,0.0,0.0,0.0,0.0,0.0,0.0,0.0,0.0,0.0,0.0,0.0,0.0,0.0,0.0,0.0,0.0,0.0,0.0,0.0,0.0,0.0,0.0,0.0,0.0,0.0,0.0,0.0,0.0,0.0,0.0,0.0,0.0,0.0,0.0,0.0,0.0,0.0,0.0,0.0,0.0,0.0,0.0,0.0,0.0,0.0,0.0,0.0,0.0,0.0,0.0,0.0,0.0,0.0,0.0,0.0,-0.0993,-0.1252,0.0,0.0,0.0,0.0,0.0,0.0,0.0,0.0,0.0,0.0,0.0,0.0,0.0,0.0,0.0,0.0,0.0,0.0,0.0,0.0,0.0,0.0,0.0,0.0,0.0,0.0,0.0,0.0,0.0,0.2615,0.6025,0.3317,0.1344,0.0,0.0,0.0,0.0,0.0,0.0,0.0,0.0,0.0,0.0,0.0,0.0,0.0,0.0,0.0,0.0,0.0,0.0,0.0,0.0,0.0,0.0,0.0,0.0,0.0,0.0,0.0,0.0,0.0,0.0,0.0,0.0,0.0,0.0,0.0,0.0,0.0,0.0,0.0,0.0,0.0,0.0,0.0,0.0,0.0,0.0,0.0,0.0,0.0,0.0,0.0,0.0,0.0,0.0,0.0,0.0,0.0,0.0,0.0,0.0,0.0,0.0,0.0,0.0,0.0,0.0,0.0,0.0,0.0,0.0,0.0,0.0,0.0,0.0,0.0,0.0,0.0,-0.0,0.0,0.0,0.0,0.0,0.0,0.0,0.0,0.0,0.0,0.0,0.0,0.0,0.0,0.0,0.0,0.0,0.0,0.0,0.0,0.0,0.0,0.0,0.0,0.0,0.0,0.0,0.0,0.0,0.0,0.0,0.0172,0.1013,0.6168,0.4651,0.0,0.0,0.0,0.0,0.0,0.0,0.0,0.0,0.0,0.0,0.0,0.0,0.0,0.0,0.0,0.0,0.0,0.0,0.0,0.0,0.0,0.0,0.0,0.0,0.0,0.0,0.0,0.0,0.0,0.0,0.0,0.0,0.0,0.0,0.0,0.0,0.0,0.0,0.0,0.0,0.0,0.0,0.0,0.0,0.0,0.0,0.0,0.0,0.0,0.0,0.0,0.0,0.0,0.0,0.0,0.0,0.0,0.0,0.0,0.0,0.0,0.0,0.0,0.0,0.0,0.0,0.0,0.0,0.0,0.0,0.0,0.0,0.0,0.0,0.0,0.0,0.0,0.0,0.0,0.0,0.0,0.0,0.0,0.0,0.0,0.0,0.0,0.0,0.0,0.0,0.0,0.0,0.5853,0.8636,0.8335,0.5363,0.4167,0.4352,0.4367,0.4365,0.4152,0.4151,0.4136,0.4113,0.4084,0.2508,0.0,0.0,0.0,0.0189,0.2327,0.1762,0.0,0.0,0.0,0.0,0.0,0.0,0.0,0.0,0.0,0.0,0.0,0.0,0.0,0.0,0.0,0.0,0.0,0.0,0.0,0.0,0.0,0.0,0.0,0.0,0.0,0.0,0.0,0.0,0.0,0.0,0.0,0.0,0.0,0.0,0.0,0.0,0.0,0.0,0.0,0.0,0.0,0.0,0.0,0.0,0.0,0.0,0.0,0.0,0.0,0.0,0.0,0.0,0.0,0.0,0.0,0.0,0.0,0.0,0.0,0.0,0.0,0.0,0.0,0.0,0.0,0.0,0.0,0.0,0.0,0.0,0.0,0.0,0.0,0.0,0.0,0.0,0.0,0.0,0.0,0.0,0.0,0.0,0.0,0.0,0.1185,0.4163,0.4374,0.3599,0.2218,0.2226,0.2233,0.2239,0.815,1.1772,1.3051,1.0036,0.8632,0.9036,0.9067,0.9078,0.8877,0.8668,0.8639,0.8791,0.8791,0.6994,0.4397,0.2778,0.2177,0.1984,0.0605,0.0,0.0,0.0,0.0,0.0,0.0,0.0,0.0,0.0,0.0,0.0,0.0,0.0,0.0,0.0,0.0,0.0,0.0,0.0,0.0,0.0,0.0,0.0,0.0,0.0,0.1013,0.3885,0.4303,0.3891,0.2455,0.2262,0.2276,0.229,0.1045,0.0,0.0,0.0,0.0,0.0,0.2571,0.3205,0.0215,0.0,0.0,0.0,0.0,0.0,0.0,0.0,0.0,0.0,0.0,0.0,0.0,0.0,0.0,0.0,0.0,0.0,0.0,0.0,0.0,0.0,0.0,0.0,0.0,0.0,0.0,0.0,0.0,0.0,0.0,0.0,0.0,0.0,0.0,0.0,0.0,0.0,0.0,0.0,0.0,0.0,0.0,0.0198,0.4002,1.2367,1.2873,1.1026,0.6648,0.6592,0.6589,0.6651,0.6651,0.8877,1.3156,1.3069,1.292,1.3129,1.346,1.3515,1.3515,1.3303,1.3091,1.3086,1.3086,1.3091,1.2837,0.8364,0.667,0.6087,0.1983,0.0398,0.0199,0.0201,0.0202,0.0202,0.0,0.0,0.0,0.0,0.0,0.0,0.0,0.0,0.0,0.0,0.0,0.0,0.0,0.0,0.0,0.042,0.0209,0.0,0.0,0.0,0.2696,1.1125,1.2769,1.1516,0.7164,0.6548,0.0,0.6918,0.3175,0.0427,0.0431,0.0218,0.0,0.0,0.7593,0.9114,0.0895,0.0216,0.0,0.0,0.0,0.0,0.0,0.0,0.0,0.0,0.0,0.0,0.0,0.0,0.0,0.0,0.0,0.0,0.0,0.0,0.0,0.0,0.0,0.0,0.0,0.0,0.0,0.0,0.0,0.0,0.0,0.3152,0.0,0.0,0.0,0.0,0.0,0.0,0.0,0.0,0.0,0.0,0.0,0.5806,1.0301,1.2781,1.2933,1.2383,1.1325,1.1232,1.106,1.1023,1.1433,1.1979,1.3058,1.3156,1.3162,1.3086,1.3124,1.314,1.314,1.3134,1.3086,1.3004,1.3004,1.3058,1.2931,1.1875,1.125,1.126,0.9914,0.7451,0.4539,0.4696,0.4679,0.406,0.1002,0.0,0.0,0.0,0.0,0.0,0.0,0.0,0.0,0.0,0.0,0.0,0.0,0.0,0.1877,0.8481,0.4665,0.0,0.0,0.0,0.0859,0.3171,0.8664,1.2555,1.1192,1.121,1.1232,1.1285,1.0445,0.9809,0.9825,0.4,0.0,0.0,0.2239,0.5169,0.9149,0.352,0.0,0.0,0.0,0.0,0.0,0.0,0.0,0.0,0.0,0.0,0.0,0.0,0.0,0.0,0.0,0.0,0.0,0.0,0.0,0.0,0.0,0.0,0.0,0.0,0.0,0.0,0.0,0.0,0.0,0.6775,0.319,0.0356,0.0,0.0,0.0,0.0,0.0,0.0,0.3318,0.5324,0.5377,0.8442,1.0936,1.2823,1.3015,1.3091,1.327,1.3005,1.3032,1.2964,1.3118,1.3249,1.2952,1.3162,1.3183,1.3216,1.3216,1.3249,1.3292,1.3292,1.3254,1.3189,1.3189,1.3227,1.3287,0.0,0.0,0.0,0.0,1.1716,0.9388,0.9292,0.9053,0.8628,0.6304,0.2857,0.0,0.0,0.0,0.0831,0.4369,0.5406,0.4982,0.3318,0.2911,0.2929,0.2966,0.2962,0.4444,0.9672,0.8187,0.4742,0.0866,0.0,0.0,0.0,0.4092,0.8174,0.9964,1.0192,1.0204,1.0244,1.205,1.3424,1.369,0.8967,0.4062,0.0224,0.0,0.0,0.0,0.0,0.3699,0.0214,0.0,0.0,0.0,0.0,0.0,0.0,0.0,0.0,0.0,0.0,0.0,0.0,0.0,0.0,0.0,0.0,0.0,0.0,0.0,0.0,0.0,0.0,0.0,0.0,0.0,0.0,0.0,1.0175,0.7892,0.0957,0.038,0.057,0.0,0.0767,0.1341,0.1353,0.8012,1.247,1.2808,0.9248,0.8911,1.2909,1.3118,0.0,0.0,0.0,1.3238,1.3238,1.3151,1.3145,1.3216,1.3145,1.3211,1.3401,1.3401,1.3461,1.3564,1.3564,1.3564,1.3564,1.3564,1.3569,1.3553,1.3249,1.3189,1.3281,1.3308,1.3532,1.3537,1.3129,0.0,0.0,1.2517,0.7277,0.1038,0.083,0.0831,0.2282,1.0107,1.2652,1.2107,0.8532,0.7533,0.761,0.795,0.7981,0.7997,0.806,1.116,1.1614,0.3061,0.0657,0.0,0.0,0.0,0.1294,0.5137,0.5774,0.5576,0.5621,0.8957,1.1695,1.1988,1.3039,0.0,0.2269,0.0668,0.3342,1.1057,1.155,0.7969,0.0212,0.0,0.0,0.0,0.0,0.0,0.0,0.0,0.0,0.0,0.0,0.0,0.0,0.0,0.0,0.0,0.0,0.0,0.0,0.0,0.0,0.0,0.0,0.0,0.0,0.0,0.0,0.9013,1.086,0.9379,0.1183,0.2934,0.387,0.0383,0.5733,0.998,1.0275,0.8787,0.9091,1.2901,1.2393,1.2293,1.3238,1.3221,1.3265,1.3385,1.3292,1.3238,1.3238,1.3314,1.327,1.3107,1.327,0.0,1.3276,1.3276,1.3287,1.3308,1.3308,1.3308,1.3308,1.3308,1.3368,1.3461,1.3488,1.3515,1.3531,1.3542,1.3482,1.3401,1.3401,1.3129,1.2842,1.0359,0.8486,0.6619,0.5588,0.541,0.0,0.7524,1.0529,1.2984,1.2418,1.2452,1.2721,1.2635,1.2881,1.2891,1.2694,1.3455,1.3533,1.1299,0.5112,0.0,0.0,0.0,0.0221,0.111,0.1332,0.1334,0.1335,0.2007,0.2451,0.2658,0.9292,1.283,1.1066,0.4333,0.0688,0.228,0.2456,0.1761,0.0,0.0,0.0,0.0,0.0,0.0,0.0,0.0,0.0,0.0,0.0,0.0,0.0,0.0,0.0,0.0,0.0,0.0,0.0,0.0,0.0,0.0,0.0,0.5753,0.7569,0.0,0.9779,0.8297,0.8806,0.8656,0.6519,0.6292,0.6457,0.6443,0.8156,1.0113,1.2395,1.0895,1.0604,1.3004,1.3113,1.3221,1.3346,1.3341,1.3385,1.351,1.3455,1.3423,1.3423,1.3423,1.3395,1.3341,1.3395,1.3423,1.3423,1.3423,1.3423,1.3423,1.3423,1.3423,1.3428,1.3488,1.3586,1.3694,1.3754,1.3711,1.3613,1.3673,1.3656,1.3613,1.3684,1.3455,1.3195,1.192,1.1249,1.0993,1.0151,0.9972,1.0212,1.0159,1.1713,1.3541,1.3583,1.3814,1.3863,1.4042,1.408,1.4097,1.4167,1.4238,1.3838,1.1812,0.7819,0.4476,0.3806,0.3573,0.4462,0.6732,0.5157,0.3583,0.3583,0.3596,0.3825,0.3806,0.7735,0.9636,0.7043,0.2518,0.0,0.0,0.0,0.0,0.0,0.0,0.0,0.0,0.0,0.0,0.0,0.0,0.0,0.0,0.0,0.0,0.0,0.0,0.0,0.0,0.0,0.0,0.0,0.8531,0.7804,0.4676,0.4263,0.5011,0.6722,0.9286,1.0664,0.898,0.798,0.8671,1.2056,0.9661,0.8902,1.2437,0.9909,0.8879,1.2384,1.289,1.3211,1.3151,1.3232,1.3325,1.345,1.3455,1.3504,1.3602,1.3602,1.3591,1.3569,1.3493,1.351,1.3602,1.3504,1.352,1.364,1.3613,1.3602,1.3602,1.3602,1.3602,1.3613,1.3711,1.3819,1.3923,1.3923,1.3819,1.3684,1.3781,1.3819,1.3836,1.395,1.3771,1.3771,1.4004,1.3928,1.361,1.3396,1.3396,1.3589,1.3694,1.3749,1.3847,1.3852,1.3857,1.3912,1.4124,1.4178,1.4205,1.4309,1.432,1.343,1.0957,1.0516,1.0066,0.8734,0.851,0.9862,1.372,1.1012,0.8757,0.8757,0.882,0.8863,0.8863,0.8913,0.6422,0.0459,0.0,0.0,0.0,0.0,0.0,0.0,0.0,0.0,0.0,0.0,0.0,0.0,0.0,0.0,0.0,0.0,0.0,0.8611,0.8606,0.8851,0.928,0.9606,0.9992,0.0,0.8999,0.7231,0.6342,0.6037,0.6226,0.6384,0.9781,1.2667,1.2305,1.2201,1.2274,1.2495,1.2269,1.2495,1.3047,1.2453,1.2363,1.289,1.2993,1.3145,1.3368,1.3395,1.3455,1.3575,1.3586,1.3591,1.3602,1.3602,1.3553,1.3444,1.3537,1.3591,1.3602,1.3591,1.3645,1.3765,1.3651,1.3602,1.3602,1.3602,1.3602,1.3607,1.3618,1.3694,1.3803,1.3803,1.3852,1.3917,1.3934,1.3939,1.3939,1.3955,1.3961,1.3961,1.3961,1.3885,1.3792,1.3792,1.3792,1.3792,1.3776,1.3852,1.3966,1.4069,1.4097,1.414,1.4265,1.4309,1.4309,1.4336,1.4347,1.4124,1.3922,1.3709,1.3709,1.3481,1.3471,1.3684,1.4167,1.4033,1.387,1.387,1.3963,1.4031,1.4031,1.4259,1.0342,0.0918,0.0,0.0,0.0,0.0,0.0,0.0,0.0,0.0,0.0,0.0,0.0,0.0,0.0,0.0,0.0,0.0,0.0,0.9883,0.9726,0.9715,1.0617,1.0851,1.1074,1.1552,1.0904,1.0229,1.0334,1.0236,1.0219,1.0171,1.1609,1.2857,1.2846,1.2814,1.2797,1.2599,1.2852,1.2912,1.2971,1.3069,1.3129,1.3107,1.3211,1.3314,1.3412,1.3488,1.3553,1.3602,1.3602,1.3602,1.3602,1.3602,1.3613,1.3635,1.3684,1.3743,1.3809,1.3809,1.3803,1.3787,1.3732,1.3673,1.3602,1.3602,1.3645,1.3711,1.3711,1.3819,1.3988,1.3988,1.4069,1.4167,1.408,1.4069,1.4069,1.414,1.4167,1.4167,1.4167,1.408,1.3988,1.3988,1.3988,1.3988,1.3988,1.408,1.4178,1.4238,1.4249,1.4249,1.4309,1.432,1.432,1.4336,1.4336,1.4336,1.4347,1.4347,1.4347,1.4347,1.4336,1.4336,1.4347,1.439,1.4434,1.4434,1.4586,1.4754,1.4901,1.4928,1.3285,0.9076,0.3447,0.0,0.0,0.0,0.0,0.0,0.0,0.0,0.0,0.0,0.0,0.0,0.0,0.0,0.0,0.0,0.0,1.0509,1.0449,1.0465,1.1509,1.1786,1.19,1.2106,1.2411,1.2542,1.3106,1.2982,1.2955,1.2873,1.2884,1.289,1.2846,1.2792,1.2765,1.2803,1.2884,1.296,1.3026,1.3265,1.3401,1.3346,1.3417,1.3471,1.3471,1.3553,1.3602,1.3602,1.3635,1.3656,1.3656,1.3684,1.3743,1.383,1.3836,1.389,1.4004,1.3972,1.3912,1.383,1.3765,1.3689,1.3602,1.3602,1.3656,1.3738,1.377,1.3906,1.4097,1.4124,1.4205,1.4309,1.4222,1.4195,1.4195,1.4292,1.432,1.432,1.432,1.4265,1.4195,1.4195,1.4195,1.4195,1.4195,1.4249,1.432,1.432,1.432,1.432,1.432,1.432,1.432,1.432,1.432,1.432,1.432,1.432,1.4336,1.4363,1.4379,1.4379,1.4417,1.4417,1.4417,1.4417,1.4629,1.4841,1.5021,1.5053,1.5064,1.5064,0.8352,0.3447,0.2064,0.068,0.0,0.0,0.0,0.0,0.0,0.0,0.0,0.0,0.0,0.0,0.0,0.0,0.0,0.9981,1.0373,1.0862,1.1487,1.2156,1.27,1.2835,1.296,1.3047,1.3064,1.3069,1.2993,1.2754,1.2808,1.2852,1.2732,1.2808,1.2922,1.3042,1.3064,1.3151,1.3379,1.3412,1.3466,1.358,1.3597,1.3597,1.3597,1.3602,1.3602,1.3602,1.3716,1.3781,1.3781,1.389,1.395,1.395,1.395,1.401,1.414,1.401,1.3955,1.3944,1.3716,1.3607,1.3602,1.3602,1.3607,1.3618,1.3738,1.3857,1.3972,1.4097,1.4205,1.432,1.432,1.432,1.432,1.432,1.432,1.432,1.432,1.432,1.432,1.432,1.432,1.432,1.432,1.432,1.432,1.432,1.432,1.432,1.432,1.432,1.432,1.432,1.432,1.432,1.432,1.432,1.4363,1.4477,1.4504,1.4532,1.4646,1.4657,1.4657,1.4657,1.4869,1.5021,1.5037,1.5037,1.5053,1.5064,1.4718,1.2276,0.7341,0.2504,0.0,0.0,0.0,0.0,0.0,0.0,0.0,0.0,0.0,0.0,0.0,0.0,0.0,1.0895,1.127,1.1618,1.2297,1.2645,1.2835,1.2879,1.2922,1.295,1.295,1.2884,1.2825,1.2825,1.2792,1.2781,1.2819,1.2928,1.3026,1.3064,1.3205,1.3363,1.3526,1.3542,1.3591,1.3716,1.3651,1.3602,1.3602,1.3602,1.364,1.3722,1.3765,1.3819,1.3896,1.3939,1.3993,1.408,1.408,1.414,1.4265,1.414,1.408,1.4069,1.3912,1.3836,1.3836,1.3836,1.3836,1.3841,1.3885,1.3972,1.408,1.4124,1.4205,1.432,1.432,1.432,1.432,1.432,1.432,1.432,1.432,1.432,1.432,1.432,1.432,1.432,1.432,1.432,1.432,1.432,1.432,1.432,1.432,1.432,1.432,1.432,1.432,1.432,1.432,1.439,1.4461,1.4488,1.4559,1.4657,1.4771,1.4727,1.47,1.4787,1.4869,1.4956,1.5021,1.5037,1.5037,1.5053,1.4956,1.4176,1.2498,1.0524,0.657,0.0226,0.0,0.0,0.0,0.0,0.0,0.0,0.0,0.0,0.0,0.0,0.0,1.1504,1.1819,1.2042,1.2721,1.289,1.289,1.289,1.2922,1.2955,1.2955,1.289,1.2846,1.2879,1.2857,1.2863,1.2939,1.3091,1.3211,1.3254,1.339,1.3531,1.3656,1.3629,1.3651,1.3776,1.3716,1.3667,1.3667,1.3667,1.3722,1.3841,1.389,1.3944,1.4021,1.4069,1.4124,1.4205,1.4205,1.4238,1.432,1.4195,1.414,1.414,1.401,1.3955,1.3955,1.3955,1.3955,1.3961,1.4004,1.4069,1.414,1.4178,1.4249,1.432,1.432,1.432,1.432,1.432,1.432,1.432,1.432,1.432,1.432,1.432,1.432,1.432,1.432,1.432,1.432,1.432,1.432,1.432,1.432,1.432,1.432,1.432,1.4347,1.439,1.439,1.4477,1.4575,1.4619,1.4727,1.4825,1.4912,1.4858,1.4825,1.4912,1.4923,1.4956,1.5021,1.5037,1.5037,1.5037,1.4983,1.4928,1.4885,1.4754,1.1654,0.5434,0.1803,0.0,0.0,0.0,0.0,0.0,0.0,0.0,0.0,0.0,0.0,1.1754,1.202,1.2172,1.2743,1.289,1.2895,1.2895,1.2982,1.3058,1.3047,1.3031,1.2977,1.2857,1.2944,1.3037,1.3042,1.3254,1.3461,1.358,1.3602,1.3651,1.377,1.3678,1.3656,1.3781,1.3792,1.3792,1.3803,1.3798,1.3847,1.3961,1.408,1.414,1.4151,1.4265,1.432,1.432,1.432,1.432,1.432,1.4205,1.4151,1.414,1.4026,1.3977,1.3977,1.3977,1.3977,1.3983,1.4097,1.4151,1.4151,1.4276,1.432,1.432,1.432,1.432,1.432,1.432,1.432,1.432,1.432,1.432,1.432,1.432,1.432,1.432,1.432,1.432,1.432,1.432,1.432,1.432,1.432,1.432,1.432,1.4336,1.4417,1.4504,1.4515,1.4602,1.4716,1.4841,1.4967,1.5037,1.5037,1.5037,1.5037,1.5037,1.5037,1.5037,1.5037,1.5037,1.5037,1.5037,1.5037,1.4983,1.4869,1.4885,1.4787,1.4327,0.5667,0.0452,0.0,0.0,0.0,0.0,0.0,0.0,0.0,0.0,0.0,1.2123,1.2455,1.2694,1.2852,1.2955,1.3026,1.3026,1.2977,1.2884,1.271,1.2455,1.2227,1.2112,1.2335,1.2564,1.2656,1.3096,1.3433,1.3466,1.3548,1.3651,1.377,1.3678,1.3684,1.3896,1.3836,1.3857,1.4037,1.3966,1.3966,1.408,1.4124,1.4178,1.4265,1.4309,1.432,1.432,1.432,1.432,1.432,1.4292,1.4276,1.4276,1.4238,1.4222,1.4222,1.4222,1.4222,1.4238,1.4265,1.4276,1.4276,1.4309,1.432,1.432,1.432,1.432,1.432,1.432,1.432,1.432,1.432,1.432,1.432,1.432,1.432,1.432,1.432,1.432,1.432,1.432,1.432,1.432,1.432,1.432,1.4347,1.4434,1.4477,1.4532,1.4619,1.4727,1.4841,1.4967,1.5021,1.5037,1.5037,1.5037,1.5037,1.5037,1.5037,1.5037,1.5037,1.5037,1.5037,1.5037,1.5037,1.5021,1.4994,1.4912,1.4841,1.4798,1.2114,0.7251,0.0226,0.0,0.0,0.0,0.0,0.0,0.0,0.0,0.0,1.246,1.2738,1.289,1.289,1.2982,1.3015,1.2803,1.2781,1.2694,1.2303,1.2096,1.2004,1.2047,1.2303,1.2602,1.2879,1.3298,1.358,1.358,1.364,1.3711,1.3781,1.3727,1.3754,1.3939,1.395,1.3999,1.4124,1.4069,1.4097,1.4205,1.4222,1.4249,1.432,1.432,1.432,1.432,1.432,1.432,1.432,1.432,1.432,1.432,1.432,1.432,1.432,1.432,1.432,1.432,1.432,1.432,1.432,1.432,1.432,1.432,1.432,1.432,1.432,1.432,1.432,1.432,1.432,1.432,1.432,1.432,1.432,1.432,1.432,1.432,1.432,1.432,1.432,1.432,1.432,1.4363,1.4417,1.4488,1.4586,1.4689,1.4814,1.4923,1.5026,1.5037,1.5081,1.5092,1.5053,1.5037,1.5037,1.5037,1.5037,1.5037,1.5037,1.5037,1.5037,1.5037,1.5037,1.5037,1.5037,1.4967,1.4912,1.4885,1.4782,1.0984,0.3398,0.113,0.0,0.0,0.0,0.0,0.0,0.0,0.0,1.2716,1.2873,1.289,1.289,1.2993,1.2966,1.2487,1.2526,1.2482,1.1873,1.1797,1.1917,1.2145,1.2395,1.2727,1.3221,1.351,1.3689,1.3754,1.3765,1.3776,1.3803,1.3809,1.3857,1.3972,1.408,1.414,1.4167,1.4167,1.4205,1.432,1.432,1.432,1.432,1.432,1.432,1.432,1.432,1.432,1.432,1.432,1.432,1.432,1.432,1.432,1.432,1.432,1.432,1.432,1.432,1.432,1.432,1.432,1.432,1.432,1.432,1.432,1.432,1.4336,1.4336,1.432,1.432,1.432,1.432,1.432,1.432,1.432,1.432,1.432,1.432,1.4336,1.4336,1.4336,1.4363,1.4434,1.4515,1.4548,1.4727,1.4912,1.5021,1.5124,1.5162,1.5053,1.5124,1.5162,1.5053,1.5037,1.5037,1.5037,1.5053,1.5064,1.5064,1.5081,1.5081,1.5064,1.5064,1.5053,1.5037,1.5037,1.4994,1.4885,1.4912,1.2488,0.7281,0.2501,0.0,0.0,0.0,0.0,0.0,0.0,0.0,1.2683,1.2808,1.289,1.289,1.3053,1.3086,1.2613,1.246,1.2216,1.1514,1.1226,1.115,1.1291,1.1596,1.2009,1.2596,1.289,1.3183,1.358,1.3635,1.3711,1.3906,1.3928,1.3977,1.4097,1.4124,1.4178,1.4276,1.4292,1.4292,1.432,1.432,1.432,1.432,1.432,1.432,1.432,1.432,1.432,1.432,1.432,1.432,1.432,1.432,1.432,1.432,1.432,1.432,1.432,1.432,1.432,1.432,1.432,1.432,1.432,1.432,1.432,1.4336,1.4434,1.4407,1.432,1.432,1.432,1.432,1.432,1.432,1.432,1.432,1.432,1.4347,1.445,1.439,1.4363,1.4559,1.4559,1.4559,1.4754,1.4912,1.501,1.5037,1.5053,1.5064,1.5037,1.5053,1.5064,1.5037,1.5037,1.5037,1.5037,1.5124,1.5189,1.5189,1.5276,1.5293,1.5189,1.5189,1.5151,1.5037,1.5037,1.5021,1.501,1.4939,1.2548,0.7629,0.2527,0.0,0.0,0.0,0.0,0.0,0.0,0.0,1.2602,1.2748,1.2901,1.2966,1.3113,1.3064,1.2401,1.2205,1.1906,1.0998,1.077,1.0786,1.0971,1.1351,1.1792,1.227,1.2705,1.3086,1.3374,1.358,1.3765,1.3934,1.401,1.4069,1.414,1.4195,1.4249,1.432,1.432,1.432,1.432,1.432,1.432,1.432,1.432,1.432,1.432,1.432,1.432,1.432,1.432,1.432,1.432,1.432,1.432,1.432,1.432,1.432,1.432,1.432,1.432,1.432,1.432,1.432,1.4336,1.439,1.4417,1.4434,1.4548,1.4559,1.4504,1.4504,1.4461,1.4417,1.4417,1.4461,1.4504,1.4504,1.4504,1.4515,1.4575,1.4548,1.4532,1.4646,1.4689,1.4727,1.4912,1.4994,1.5037,1.5037,1.5092,1.5108,1.5053,1.5092,1.5108,1.5053,1.5037,1.5037,1.5037,1.5151,1.5222,1.5222,1.526,1.5276,1.5222,1.5162,1.5092,1.5037,1.5037,1.5037,1.5037,1.501,1.3784,1.1387,0.3932,0.0,0.0,0.0,0.0,0.0,0.0,0.0,1.2596,1.2765,1.295,1.3047,1.3156,1.302,1.2178,1.1971,1.1656,1.0601,1.0454,1.0601,1.0873,1.1248,1.1656,1.2063,1.2553,1.296,1.3205,1.3531,1.3819,1.401,1.4124,1.4178,1.4178,1.4265,1.432,1.432,1.432,1.432,1.432,1.432,1.432,1.432,1.432,1.432,1.432,1.432,1.432,1.432,1.432,1.432,1.432,1.432,1.432,1.432,1.432,1.432,1.432,1.432,1.432,1.432,1.432,1.4336,1.4379,1.4461,1.4515,1.4559,1.4673,1.47,1.4673,1.47,1.4629,1.4548,1.4548,1.4602,1.4673,1.4673,1.4673,1.4673,1.47,1.4689,1.4673,1.47,1.4798,1.4923,1.5021,1.5037,1.5037,1.5037,1.5124,1.5151,1.5053,1.5124,1.5151,1.5053,1.5037,1.5037,1.5037,1.5151,1.5222,1.5222,1.5249,1.5249,1.5222,1.5135,1.5064,1.5037,1.5037,1.5037,1.5037,1.5053,1.5021,1.4939,0.722,0.2089,0.0,0.0,0.0,0.0,0.0,0.0,1.2797,1.2955,1.3058,1.3069,1.3156,1.302,1.2178,1.1906,1.1558,1.0585,1.0394,1.0509,1.0857,1.1047,1.134,1.1911,1.2145,1.2482,1.3145,1.3461,1.3787,1.4238,1.4292,1.4309,1.4309,1.432,1.432,1.432,1.432,1.432,1.432,1.432,1.432,1.432,1.432,1.432,1.432,1.432,1.432,1.432,1.432,1.432,1.432,1.432,1.432,1.432,1.432,1.432,1.432,1.432,1.432,1.432,1.432,1.439,1.4488,1.4504,1.4575,1.4673,1.4798,1.4771,1.4689,1.4798,1.476,1.4657,1.4657,1.4657,1.4673,1.4673,1.4673,1.47,1.4814,1.476,1.47,1.4814,1.4923,1.5021,1.5037,1.5037,1.5037,1.5037,1.5053,1.5053,1.5037,1.5053,1.5053,1.5037,1.5037,1.5037,1.5037,1.5151,1.5222,1.5222,1.532,1.5331,1.5233,1.5206,1.5151,1.5053,1.5037,1.5037,1.5037,1.5037,1.5037,1.5053,1.4123,0.9169,0.0,0.0,0.0,0.0,0.0,0.0,1.2558,1.2863,1.3189,1.3265,1.3259,1.302,1.2178,1.1841,1.1438,1.0476,1.0335,1.0449,1.0661,1.0862,1.1118,1.1493,1.1781,1.221,1.2928,1.3298,1.37,1.4249,1.432,1.4292,1.4222,1.4276,1.432,1.432,1.432,1.432,1.432,1.432,1.432,1.432,1.432,1.432,1.432,1.432,1.432,1.432,1.432,1.432,1.432,1.432,1.432,1.432,1.432,1.432,1.432,1.432,1.432,1.432,1.432,1.439,1.4515,1.4575,1.4689,1.4798,1.4923,1.4939,1.4896,1.4956,1.4923,1.4885,1.4798,1.4825,1.4896,1.4896,1.4896,1.4923,1.5037,1.5037,1.4994,1.4967,1.4994,1.5037,1.5037,1.5037,1.5037,1.5037,1.5037,1.5037,1.5037,1.5037,1.5037,1.5037,1.5037,1.5037,1.5037,1.5081,1.5108,1.5108,1.5222,1.526,1.5222,1.5151,1.5092,1.5037,1.5037,1.5037,1.5037,1.5037,1.5037,1.5053,1.5064,1.1524,0.4463,0.1406,0.0,0.0,0.0,0.0,1.2433,1.2786,1.3183,1.3374,1.3276,1.2933,1.2161,1.1748,1.1275,1.0384,1.0302,1.0411,1.0492,1.0759,1.1031,1.1194,1.1558,1.208,1.2835,1.3189,1.3602,1.4249,1.4292,1.4238,1.4151,1.4249,1.432,1.432,1.432,1.432,1.432,1.432,1.432,1.432,1.432,1.432,1.432,1.432,1.432,1.432,1.432,1.432,1.432,1.432,1.432,1.432,1.432,1.432,1.432,1.432,1.4347,1.4379,1.4379,1.4477,1.4619,1.47,1.4798,1.4923,1.501,1.5037,1.5037,1.5037,1.5037,1.5021,1.4939,1.4967,1.5037,1.5037,1.5064,1.5108,1.5151,1.5189,1.5189,1.5064,1.5037,1.5037,1.5037,1.5037,1.5037,1.5037,1.5037,1.5037,1.5037,1.5037,1.5037,1.5037,1.5037,1.5037,1.5037,1.5037,1.5037,1.5037,1.5108,1.5162,1.5162,1.5092,1.5037,1.5037,1.5037,1.5037,1.5037,1.5037,1.5037,1.5037,1.5053,1.3177,0.9634,0.329,0.0,0.0,0.0,0.0,1.2542,1.2797,1.2977,1.333,1.3156,1.2732,1.2129,1.1618,1.1074,1.0351,1.0302,1.0384,1.0389,1.078,1.1101,1.1107,1.1504,1.2112,1.295,1.3167,1.351,1.4238,1.4205,1.414,1.414,1.4249,1.432,1.432,1.432,1.432,1.432,1.432,1.432,1.432,1.432,1.432,1.432,1.432,1.432,1.432,1.432,1.432,1.432,1.432,1.432,1.432,1.432,1.432,1.432,1.432,1.439,1.4504,1.4504,1.4646,1.4858,1.4858,1.4923,1.5037,1.5037,1.5037,1.5037,1.5037,1.5037,1.5037,1.5037,1.5037,1.5037,1.5037,1.5124,1.5189,1.5064,1.5135,1.5189,1.5064,1.5037,1.5037,1.5037,1.5037,1.5037,1.5037,1.5037,1.5037,1.5037,1.5037,1.5037,1.5037,1.5037,1.5037,1.5037,1.5037,1.5037,1.5037,1.5037,1.5037,1.5037,1.5037,1.5037,1.5037,1.5037,1.5037,1.5037,1.5037,1.5037,1.5037,1.5053,1.5064,1.483,0.4932,0.0,0.0,0.0,0.0,1.1922,1.2243,1.2531,1.2558,1.2417,1.2118,1.152,1.1199,1.0851,1.021,1.0242,1.0411,1.0487,1.0764,1.1112,1.1525,1.1721,1.2167,1.3172,1.3341,1.3602,1.4249,1.4205,1.4167,1.4249,1.4222,1.4238,1.432,1.432,1.432,1.432,1.432,1.432,1.432,1.432,1.432,1.432,1.432,1.432,1.432,1.432,1.432,1.432,1.432,1.432,1.432,1.432,1.4363,1.445,1.445,1.4515,1.4619,1.4619,1.4716,1.4858,1.4858,1.4939,1.5037,1.5037,1.5037,1.5037,1.5037,1.5037,1.5037,1.5037,1.5037,1.5053,1.5135,1.5189,1.5206,1.5179,1.5189,1.5189,1.5064,1.5037,1.5037,1.5037,1.5037,1.5037,1.5037,1.5037,1.5037,1.5037,1.5037,1.5037,1.5037,1.5037,1.5037,1.5037,1.5037,1.5037,1.5037,1.5037,1.5037,1.5037,1.5037,1.5037,1.5037,1.5037,1.5037,1.5037,1.5037,1.5037,1.5037,1.5037,1.5053,1.5064,1.175,0.6809,0.0,0.0,0.0,1.1482,1.1819,1.2096,1.2156,1.1976,1.1667,1.1204,1.0905,1.0585,1.0117,1.0215,1.0405,1.0476,1.0726,1.1085,1.1601,1.1683,1.2074,1.3194,1.3276,1.3461,1.4108,1.4151,1.4167,1.4249,1.4222,1.4238,1.432,1.432,1.432,1.432,1.432,1.432,1.432,1.432,1.432,1.432,1.432,1.432,1.432,1.432,1.432,1.432,1.432,1.432,1.432,1.432,1.439,0.0,1.4504,1.4602,1.4744,1.4744,1.4814,1.4923,1.4923,1.4967,1.5037,1.5037,1.5037,1.5037,1.5037,1.5037,1.5037,1.5037,1.5064,1.5108,1.5135,1.5222,1.526,1.5179,1.5189,1.5189,1.5064,1.5037,1.5037,1.5037,1.5037,1.5037,1.5037,1.5037,1.5037,1.5037,1.5037,1.5037,1.5037,1.5037,1.5037,1.5037,1.5037,1.5037,1.5037,1.5037,1.5037,1.5037,1.5037,1.5037,1.5037,1.5037,1.5037,1.5037,1.5037,1.5037,1.5037,1.5037,1.5037,1.5053,1.5081,0.9876,0.0,0.0,0.0,0.0,1.1455,1.1639,1.1966,1.171,1.1319,1.109,1.0693,0.0,1.0068,1.0215,1.0389,1.0411,1.071,1.1074,1.1433,1.152,1.1938,1.308,1.3086,1.3232,1.3912,1.408,1.4151,1.4178,1.4265,1.432,1.432,1.432,1.432,1.432,1.432,1.432,1.432,1.432,1.432,1.432,1.432,1.432,1.432,1.432,1.432,1.432,1.432,1.432,1.432,1.432,1.439,1.4515,1.4515,1.4657,1.4869,1.4869,1.4939,1.5037,1.5037,1.5037,1.5037,1.5037,1.5037,1.5037,1.5037,1.5037,1.5037,1.5037,1.5124,1.5189,1.5081,1.5206,1.532,1.5108,1.5124,1.5179,1.5064,1.5037,1.5037,1.5037,1.5037,1.5037,1.5037,1.5037,1.5037,1.5037,1.5037,1.5037,1.5037,1.5037,1.5037,1.5037,1.5037,1.5037,1.5037,1.5037,1.5037,1.5037,1.5037,1.5037,1.5037,1.5037,1.5037,1.5037,1.5037,1.5037,1.5037,1.5037,1.5037,1.5037,1.5081,0.9886,0.0,0.0,0.0,1.028,0.0,1.0808,1.0808,1.0721,1.0601,0.0,1.0329,1.0204,1.0052,1.0215,1.0443,1.0623,1.1025,1.1444,1.1803,1.2172,1.2607,1.3162,1.3586,1.3977,1.4336,1.432,1.4347,1.4532,1.4407,1.432,1.432,1.432,1.432,1.432,1.432,1.432,1.432,1.432,1.432,1.432,1.432,1.432,1.432,1.432,1.432,1.432,1.432,1.432,1.432,1.432,1.4434,1.4629,1.4629,1.4771,1.4994,1.4994,1.501,1.5037,1.5037,1.5037,1.5037,1.5037,1.5037,1.5037,1.5037,1.5037,1.5037,1.5037,1.5053,1.5092,1.5162,1.5151,1.5135,1.5162,1.5135,1.5081,1.5037,1.5037,1.5037,1.5037,1.5037,1.5037,1.5037,1.5037,1.5037,1.5037,1.5037,1.5037,1.5037,1.5037,1.5037,1.5037,1.5037,1.5037,1.5037,1.5037,1.5037,1.5037,1.5037,1.5037,1.5037,1.5037,1.5037,1.5037,1.5037,1.5037,1.5037,1.5037,1.5037,1.5037,1.5064,0.9869,0.0,0.0,0.0,0.9829,1.0242,1.0623,1.0563,1.0503,1.0449,1.0378,1.0237,1.0101,1.0036,1.0215,1.0443,1.0623,1.1047,1.1542,1.2069,1.2422,1.283,1.3406,1.3912,1.4265,1.4407,1.4407,1.4434,1.4504,1.439,1.432,1.432,1.432,1.432,1.432,1.432,1.432,1.432,1.432,1.432,1.432,1.432,1.432,1.432,1.432,1.432,1.432,1.432,1.432,1.432,1.4379,1.4504,1.4673,1.4727,1.4869,1.5037,1.5037,1.5037,1.5037,1.5037,1.5037,1.5037,1.5037,1.5037,1.5053,1.5108,1.5081,1.5053,1.5108,1.5081,1.5053,1.5124,1.5135,1.5124,1.5135,1.5092,1.5037,1.5037,1.5037,1.5037,1.5037,1.5037,1.5037,1.5037,1.5037,1.5037,1.5037,1.5037,1.5037,1.5037,1.5037,1.5037,1.5037,1.5037,1.5037,1.5037,1.5037,1.5037,1.5037,1.5037,1.5037,1.5037,1.5037,1.5037,1.5037,1.5037,1.5037,1.5037,1.5037,1.5037,1.5037,1.5053,1.2227,0.6804,0.2115,0.0,0.9682,1.0221,1.0737,1.0737,1.0645,1.0563,1.0601,1.0335,1.0074,1.0074,1.0302,1.0552,1.0737,1.1166,1.171,1.2379,1.2591,1.2933,1.3684,1.408,1.4309,1.4347,1.4417,1.445,1.4379,1.4347,1.432,1.432,1.432,1.432,1.432,1.432,1.432,1.432,1.432,1.432,1.432,1.432,1.432,1.432,1.432,1.432,1.432,1.432,1.432,1.432,1.445,1.4575,1.4689,1.4798,1.4923,1.5037,1.5037,1.5037,1.5037,1.5037,1.5037,1.5037,1.5037,1.5053,1.5081,1.5162,1.5135,1.5081,1.5162,1.5124,1.5037,1.5037,1.5108,1.5162,1.5064,1.5037,1.5037,1.5037,1.5037,1.5037,1.5037,1.5037,1.5037,1.5037,1.5037,1.5037,1.5037,1.5037,1.5037,1.5037,1.5037,1.5037,1.5037,1.5037,1.5037,1.5037,1.5037,1.5037,1.5037,1.5037,1.5037,1.5037,1.5037,1.5037,1.5037,1.5037,1.5037,1.5037,1.5037,1.5037,1.5037,1.5053,1.5064,1.4825,0.6352,0.1419,0.9878,1.0346,1.0737,1.0737,1.0645,1.0612,1.0819,1.0585,1.0329,1.0329,1.0683,1.115,1.1672,1.2161,1.2618,1.3037,1.3205,1.3401,1.3738,1.4004,1.4238,1.445,1.4407,1.4417,1.4602,1.4434,1.432,1.432,1.432,1.432,1.432,1.432,1.432,1.432,1.432,1.432,1.432,1.432,1.432,1.432,1.432,1.432,1.432,1.432,1.432,1.432,1.445,1.4575,1.4689,1.4798,1.4923,1.5037,1.5037,1.5037,1.5037,1.5037,1.5037,1.5037,1.5037,1.5108,1.5179,1.5092,1.5124,1.5179,1.5092,1.5053,1.5037,1.5037,1.5053,1.5064,1.5037,1.5037,1.5037,1.5037,1.5037,1.5037,1.5037,1.5037,1.5037,1.5037,1.5037,1.5037,1.5037,1.5037,1.5037,1.5037,1.5037,1.5037,1.5037,1.5037,1.5037,1.5037,1.5037,1.5037,1.5037,1.5037,1.5037,1.5037,1.5037,1.5037,1.5037,1.5037,1.5037,1.5037,1.5037,1.5037,1.5037,1.5037,1.5053,1.5064,1.3523,0.8085,0.9753,1.0134,1.0574,1.1096,1.1232,1.127,1.1378,1.1324,1.1145,1.0753,1.1058,1.1514,1.1917,1.233,1.2857,1.3602,1.377,1.3896,1.414,1.4265,1.4379,1.4488,1.445,1.4434,1.4477,1.439,1.432,1.432,1.432,1.432,1.432,1.432,1.432,1.432,1.432,1.432,1.432,1.432,1.432,1.432,1.432,1.432,1.432,1.432,1.432,1.4336,1.4515,1.4629,1.4689,1.4869,1.4983,1.5037,1.5037,1.5037,1.5037,1.5037,1.5037,1.5037,1.5037,1.5081,1.5124,1.5135,1.5135,1.5124,1.5135,1.5092,1.5037,1.5037,1.5037,1.5037,1.5037,1.5037,1.5037,1.5037,1.5037,1.5037,1.5037,1.5037,1.5037,1.5037,1.5037,1.5037,1.5037,1.5037,1.5037,1.5037,1.5037,1.5037,1.5037,1.5037,1.5037,1.5037,1.5037,1.5037,1.5037,1.5037,1.5037,1.5037,1.5037,1.5037,1.5037,1.5037,1.5037,1.5037,1.5037,1.5037,1.5037,1.5037,1.5037,1.5053,1.5206,0.9774,0.9742,1.0095,1.0601,1.1395,1.1667,1.1792,1.202,1.2053,1.1889,1.14,1.1656,1.2053,1.2319,1.2689,1.3205,1.3972,1.4124,1.4205,1.4434,1.4461,1.4461,1.4461,1.4461,1.4417,1.4336,1.432,1.432,1.432,1.432,1.432,1.432,1.432,1.432,1.432,1.432,1.432,1.432,1.432,1.432,1.432,1.432,1.432,1.432,1.432,1.432,1.4336,1.4548,1.4646,1.4689,1.4912,1.501,1.5037,1.5037,1.5037,1.5037,1.5037,1.5037,1.5037,1.5037,1.5053,1.5092,1.5151,1.5135,1.5092,1.5162,1.5108,1.5037,1.5037,1.5037,1.5037,1.5037,1.5037,1.5037,1.5037,1.5037,1.5037,1.5037,1.5037,1.5037,1.5037,1.5037,1.5037,1.5037,1.5037,1.5037,1.5037,1.5037,1.5037,1.5037,1.5037,1.5037,1.5037,1.5037,1.5037,1.5037,1.5037,1.5037,1.5037,1.5037,1.5037,1.5037,1.5037,1.5037,1.5037,1.5037,1.5037,1.5037,1.5037,1.5053,1.5081,1.5222,1.1017,1.0161,1.059,1.1107,1.1395,1.1476,1.1716,1.2607,1.2471,1.221,1.2384,1.271,1.3075,1.3423,1.3874,1.414,1.3993,1.4069,1.4178,1.432,1.4336,1.4336,1.4336,1.4336,1.4336,1.432,1.432,1.432,1.432,1.432,1.432,1.432,1.432,1.432,1.432,1.432,1.432,1.432,1.432,1.432,1.432,1.432,1.432,1.432,1.432,1.432,1.4336,1.4461,1.4575,1.4689,1.4814,1.4939,1.5037,1.5037,1.5037,1.5037,1.5037,1.5037,1.5037,1.5037,1.5108,1.5189,1.5081,1.5124,1.5189,1.5081,1.5037,1.5037,1.5037,1.5037,1.5037,1.5037,1.5037,1.5037,1.5037,1.5037,1.5037,1.5037,1.5037,1.5037,1.5037,1.5037,1.5037,1.5037,1.5037,1.5037,1.5037,1.5037,1.5037,1.5037,1.5037,1.5037,1.5037,1.5037,1.5037,1.5037,1.5037,1.5037,1.5037,1.5037,1.5037,1.5037,1.5037,1.5037,1.5037,1.5037,1.5037,1.5037,1.5037,1.5092,1.5206,1.5347,1.5013,0.9938,1.0471,1.1079,1.1471,1.1851,1.2243,1.2678,1.3037,1.3221,1.3015,1.314,1.3352,1.3564,1.3934,1.4222,1.4292,1.414,1.4097,1.4292,1.432,1.432,1.432,1.432,1.432,1.432,1.432,1.432,1.432,1.432,1.432,1.432,1.432,1.432,1.432,1.432,1.432,1.432,1.432,1.432,1.432,1.432,1.432,1.432,1.432,1.432,1.4336,1.4532,1.4629,1.4689,1.4885,1.4994,1.5037,1.5037,1.5037,1.5037,1.5037,1.5037,1.5037,1.5037,1.5064,1.5092,1.5053,1.5064,1.5092,1.5053,1.5037,1.5037,1.5037,1.5037,1.5037,1.5037,1.5037,1.5037,1.5037,1.5037,1.5037,1.5037,1.5037,1.5037,1.5037,1.5037,1.5037,1.5037,1.5037,1.5037,1.5037,1.5037,1.5037,1.5037,1.5037,1.5037,1.5037,1.5037,1.5037,1.5037,1.5037,1.5037,1.5037,1.5037,1.5037,1.5037,1.5037,1.5037,1.5037,1.5037,1.5037,1.5037,1.5037,1.5092,1.5222,1.5347,1.5499,1.0008,1.0623,1.133,1.1623,1.2172,1.2694,1.289,1.3319,1.3635,1.3493,1.3591,1.3705,1.3716,1.3944,1.4178,1.4309,1.4151,1.408,1.4292,1.432,1.432,1.432,1.432,1.432,1.432,1.432,1.432,1.432,1.432,1.432,1.432,1.432,1.432,1.432,1.432,1.432,1.432,1.432,1.432,1.432,1.432,1.432,1.432,1.432,1.432,1.4336,1.4532,1.4646,1.4689,1.4896,1.501,1.5037,1.5037,1.5037,1.5037,1.5037,1.5037,1.5037,1.5037,1.5037,1.5037,1.5037,1.5037,1.5037,1.5037,1.5037,1.5037,1.5037,1.5037,1.5037,1.5037,1.5037,1.5037,1.5037,1.5037,1.5037,1.5037,1.5037,1.5037,1.5037,1.5037,1.5037,1.5037,1.5037,1.5037,1.5037,1.5037,1.5037,1.5037,1.5037,1.5037,1.5037,1.5037,1.5037,1.5037,1.5037,1.5037,1.5037,1.5037,1.5037,1.5037,1.5037,1.5037,1.5037,1.5081,1.5092,1.5092,1.5135,1.5206,1.5336,1.5418,1.5543,1.0525,1.1177,1.1966,1.1857,1.2362,1.2988,1.3341,1.3243,1.3243,1.3836,1.4151,1.4249,1.3999,1.4053,1.4097,1.3977,1.4053,1.4178,1.4309,1.432,1.432,1.432,1.432,1.432,1.432,1.432,1.432,1.432,1.432,1.432,1.432,1.432,1.432,1.432,1.432,1.432,1.432,1.432,1.432,1.432,1.432,1.432,1.432,1.432,1.432,1.432,1.445,1.4575,1.4689,1.4798,1.4923,1.5037,1.5037,1.5037,1.5037,1.5037,1.5037,1.5037,1.5037,1.5037,1.5037,1.5037,1.5037,1.5037,1.5037,1.5037,1.5037,1.5037,1.5037,1.5037,1.5037,1.5037,1.5037,1.5037,1.5037,1.5037,1.5037,1.5037,1.5037,1.5037,1.5037,1.5037,1.5037,1.5037,1.5037,1.5037,1.5037,1.5037,1.5037,1.5037,1.5037,1.5037,1.5037,1.5037,1.5037,1.5037,1.5037,1.5037,1.5037,1.5037,1.5037,1.5037,1.5037,1.5037,1.5162,1.5222,1.5222,1.5331,1.5445,1.557,1.557,1.5657,1.0933,1.1612,1.2259,1.2308,1.2863,1.3423,1.3526,1.3624,1.3722,1.3819,1.4167,1.4347,1.4015,1.4053,1.4151,1.4211,1.4167,1.4178,1.4309,1.432,1.432,1.432,1.432,1.432,1.432,1.432,1.432,1.432,1.432,1.432,1.432,1.432,1.432,1.432,1.432,1.432,1.432,1.432,1.432,1.432,1.432,1.432,1.432,1.432,1.432,1.4336,1.4532,1.4646,1.4689,1.4896,1.501,1.5037,1.5037,1.5037,1.5037,1.5037,1.5037,1.5037,1.5037,1.5037,1.5037,1.5037,1.5037,1.5037,1.5037,1.5037,1.5037,1.5037,1.5037,1.5037,1.5037,1.5037,1.5037,1.5037,1.5037,1.5037,1.5037,1.5037,1.5037,1.5037,1.5037,1.5037,1.5037,1.5037,1.5037,1.5037,1.5037,1.5037,1.5037,1.5037,1.5037,1.5037,1.5037,1.5037,1.5037,1.5037,1.5037,1.5037,1.5037,1.5037,1.5037,1.5037,1.5037,1.5037,1.5162,1.5222,1.5222,1.5331,1.5445,1.557,1.557,1.5657,1.1471,1.2188,1.2879,1.3004,1.339,1.3754,1.3803,1.389,1.3939,1.3868,1.4167,1.4363,1.414,1.4167,1.4238,1.4309,1.4265,1.4238,1.4309,1.432,1.432,1.432,1.432,1.432,1.432,1.432,1.432,1.432,1.432,1.432,1.432,1.432,1.432,1.432,1.432,1.432,1.432,1.432,1.432,1.432,1.432,1.432,1.432,1.432,1.432,1.4336,1.4575,1.4727,1.4825,1.4983,1.5037,1.5037,1.5037,1.5037,1.5037,1.5037,1.5037,1.5037,1.5037,1.5037,1.5037,1.5037,1.5037,1.5037,1.5037,1.5037,1.5037,1.5037,1.5037,1.5037,1.5037,1.5037,1.5037,1.5037,1.5037,1.5037,1.5037,1.5037,1.5037,1.5037,1.5037,1.5037,1.5037,1.5037,1.5037,1.5037,1.5037,1.5037,1.5037,1.5037,1.5037,1.5037,1.5037,1.5037,1.5037,1.5037,1.5037,1.5037,1.5037,1.5037,1.5037,1.5037,1.5064,1.5108,1.5222,1.5304,1.5363,1.5472,1.557,1.5641,1.5641,1.57,1.2009,1.2765,1.3591,1.3749,1.3879,1.4004,1.4108,1.4053,1.3983,1.3961,1.4151,1.432,1.4309,1.4309,1.432,1.432,1.432,1.432,1.432,1.432,1.432,1.432,1.432,1.432,1.432,1.432,1.432,1.432,1.432,1.432,1.432,1.432,1.432,1.432,1.432,1.432,1.432,1.432,1.432,1.432,1.432,1.432,1.4336,1.432,1.4336,1.4363,1.4575,1.4814,1.5037,1.5037,1.5037,1.5037,1.5037,1.5037,1.5037,1.5037,1.5037,1.5037,1.5037,1.5037,1.5037,1.5037,1.5037,1.5037,1.5037,1.5037,1.5037,1.5037,1.5037,1.5037,1.5037,1.5037,1.5037,1.5037,1.5037,1.5037,1.5037,1.5037,1.5037,1.5037,1.5037,1.5037,1.5037,1.5037,1.5037,1.5037,1.5037,1.5037,1.5037,1.5037,1.5037,1.5037,1.5037,1.5037,1.5037,1.5037,1.5037,1.5037,1.5037,1.5037,1.5037,1.5037,1.5092,1.5222,1.5331,1.5445,1.557,1.57,1.5755,1.5755,1.5755,1.5755,1.1933,1.2645,1.3281,1.3684,1.3944,1.4108,1.414,1.4195,1.4195,1.3993,1.4151,1.4292,1.4195,1.4249,1.432,1.432,1.432,1.432,1.432,1.432,1.432,1.432,1.432,1.432,1.432,1.432,1.432,1.432,1.432,1.432,1.432,1.432,1.432,1.432,1.432,1.432,1.432,1.432,1.432,1.432,1.432,1.4379,1.4461,1.4363,1.4417,1.4602,1.4646,1.4814,1.5037,1.5037,1.5037,1.5037,1.5037,1.5037,1.5037,1.5037,1.5037,1.5037,1.5037,1.5037,1.5037,1.5037,1.5037,1.5037,1.5037,1.5037,1.5037,1.5037,1.5037,1.5037,1.5037,1.5037,1.5037,1.5037,1.5037,1.5037,1.5037,1.5037,1.5037,1.5037,1.5037,1.5037,1.5037,1.5037,1.5037,1.5037,1.5037,1.5037,1.5037,1.5037,1.5037,1.5037,1.5037,1.5037,1.5037,1.5037,1.5037,1.5037,1.5037,1.5037,1.5037,1.5037,1.5092,1.5222,1.5331,1.5445,1.557,1.57,1.5755,1.5755,1.5755,1.5755,1.2102,1.2781,1.3368,1.3906,1.414,1.4222,1.4222,1.4276,1.4276,1.4151,1.4238,1.4309,1.4238,1.4276,1.432,1.432,1.432,1.432,1.432,1.432,1.432,1.432,1.432,1.432,1.432,1.432,1.432,1.432,1.432,1.432,1.432,1.432,1.432,1.432,1.432,1.432,1.432,1.432,1.432,1.432,1.432,1.439,1.4504,1.4488,1.4586,1.476,1.476,1.4869,1.5037,1.5037,1.5037,1.5037,1.5037,1.5037,1.5037,1.5037,1.5037,1.5037,1.5037,1.5037,1.5037,1.5037,1.5037,1.5037,1.5037,1.5037,1.5037,1.5037,1.5037,1.5037,1.5037,1.5037,1.5037,1.5037,1.5037,1.5037,1.5037,1.5037,1.5037,1.5037,1.5037,1.5037,1.5037,1.5037,1.5037,1.5037,1.5037,1.5037,1.5037,1.5037,1.5037,1.5037,1.5037,1.5037,1.5037,1.5037,1.5037,1.5037,1.5037,1.5037,1.5037,1.5092,1.5179,1.5304,1.5418,1.5543,1.5657,1.5728,1.5755,1.5755,1.5755,1.5755,1.1949,1.2732,1.3488,1.4151,1.4309,1.4292,1.432,1.432,1.432,1.432,1.432,1.432,1.432,1.432,1.432,1.432,1.432,1.432,1.432,1.432,1.432,1.432,1.432,1.432,1.432,1.432,1.432,1.432,1.432,1.432,1.432,1.432,1.432,1.432,1.432,1.432,1.432,1.432,1.432,1.432,1.4363,1.4434,1.4532,1.4673,1.4787,1.4858,1.4858,1.4923,1.5037,1.5037,1.5037,1.5037,1.5037,1.5037,1.5037,1.5037,1.5037,1.5037,1.5037,1.5037,1.5037,1.5037,1.5037,1.5037,1.5037,1.5037,1.5037,1.5037,1.5037,1.5037,1.5037,1.5037,1.5037,1.5037,1.5037,1.5037,1.5037,1.5037,1.5037,1.5037,1.5037,1.5037,1.5037,1.5037,1.5037,1.5037,1.5037,1.5037,1.5037,1.5037,1.5037,1.5037,1.5037,1.5037,1.5037,1.5037,1.5037,1.5037,1.5037,1.5037,1.5037,1.5179,1.5293,1.5391,1.5516,1.563,1.5755,1.5755,1.5755,1.5755,1.5755,1.5755,1.053,1.1792,1.3178,1.4097,1.4238,1.4195,1.4292,1.432,1.432,1.432,1.432,1.432,1.432,1.432,1.432,1.432,1.432,1.432,1.432,1.432,1.432,1.432,1.432,1.432,1.432,1.432,1.432,1.432,1.432,1.432,1.432,1.432,1.432,1.432,1.432,1.432,1.432,1.432,1.432,1.432,1.4532,1.4629,1.4657,1.4885,1.4939,1.4858,1.4858,1.4923,1.5037,1.5037,1.5037,1.5037,1.5037,1.5037,1.5037,1.5037,1.5037,1.5037,1.5037,1.5037,1.5037,1.5037,1.5037,1.5037,1.5037,1.5037,1.5037,1.5037,1.5037,1.5037,1.5037,1.5037,1.5037,1.5037,1.5037,1.5037,1.5037,1.5037,1.5037,1.5037,1.5037,1.5037,1.5037,1.5037,1.5037,1.5037,1.5037,1.5037,1.5037,1.5037,1.5037,1.5037,1.5037,1.5037,1.5037,1.5037,1.5037,1.5037,1.5037,1.5037,1.5037,1.5249,1.5374,1.5391,1.5516,1.563,1.5755,1.5755,1.5755,1.5755,1.5755,1.5755,1.0672,1.2015,1.3249,1.3944,1.4178,1.4249,1.4309,1.432,1.432,1.432,1.432,1.432,1.432,1.432,1.432,1.432,1.432,1.432,1.432,1.432,1.432,1.432,1.432,1.432,1.432,1.432,1.432,1.432,1.432,1.432,1.432,1.432,1.432,1.432,1.432,1.432,1.432,1.432,1.432,1.432,1.4488,1.4619,1.4673,1.4858,1.4939,1.4956,1.4956,1.4983,1.5037,1.5037,1.5037,1.5037,1.5037,1.5037,1.5037,1.5037,1.5037,1.5037,1.5037,1.5037,1.5037,1.5037,1.5037,1.5037,1.5037,1.5037,1.5037,1.5037,1.5037,1.5037,1.5037,1.5037,1.5037,1.5037,1.5037,1.5037,1.5037,1.5037,1.5037,1.5037,1.5037,1.5037,1.5037,1.5037,1.5037,1.5037,1.5037,1.5037,1.5037,1.5037,1.5037,1.5037,1.5037,1.5037,1.5037,1.5037,1.5037,1.5037,1.5037,1.5064,1.5135,1.5304,1.5418,1.5488,1.5613,1.57,1.5755,1.5755,1.5755,1.5755,1.5755,1.5755,1.0851,1.1971,1.2884,1.3673,1.4004,1.4178,1.4336,1.4347,1.432,1.432,1.432,1.432,1.432,1.432,1.432,1.432,1.432,1.432,1.432,1.432,1.432,1.432,1.432,1.432,1.432,1.432,1.432,1.432,1.432,1.432,1.432,1.432,1.432,1.432,1.432,1.432,1.432,1.432,1.432,1.432,1.445,1.4548,1.4629,1.4787,1.4912,1.4994,1.5021,1.5037,1.5037,1.5037,1.5037,1.5037,1.5037,1.5037,1.5037,1.5037,1.5037,1.5037,1.5037,1.5037,1.5037,1.5037,1.5037,1.5037,1.5037,1.5037,1.5037,1.5037,1.5037,1.5037,1.5037,1.5037,1.5037,1.5037,1.5037,1.5037,1.5037,1.5037,1.5037,1.5037,1.5037,1.5037,1.5037,1.5037,1.5037,1.5037,1.5037,1.5037,1.5037,1.5037,1.5037,1.5037,1.5037,1.5037,1.5037,1.5037,1.5037,1.5037,1.5037,1.5081,1.5162,1.532,1.5434,1.5532,1.5673,1.5755,1.5755,1.5755,1.5755,1.5755,1.5755,1.5755,1.0443,1.0987,1.1601,1.3221,1.3635,1.3792,1.4363,1.4407,1.432,1.432,1.432,1.432,1.432,1.432,1.432,1.432,1.432,1.432,1.432,1.432,1.432,1.432,1.432,1.432,1.432,1.432,1.432,1.432,1.432,1.432,1.432,1.432,1.432,1.432,1.432,1.432,1.432,1.432,1.432,1.432,1.445,1.4504,1.4515,1.4754,1.4858,1.4869,1.4983,1.5037,1.5037,1.5037,1.5037,1.5037,1.5037,1.5037,1.5037,1.5037,1.5037,1.5037,1.5037,1.5037,1.5037,1.5037,1.5037,1.5037,1.5037,1.5037,1.5037,1.5037,1.5037,1.5037,1.5037,1.5037,1.5037,1.5037,1.5037,1.5037,1.5037,1.5037,1.5037,1.5037,1.5037,1.5037,1.5037,1.5037,1.5037,1.5037,1.5037,1.5037,1.5037,1.5037,1.5037,1.5037,1.5037,1.5037,1.5037,1.5037,1.5037,1.5037,1.5037,1.5037,1.5053,1.526,1.5391,1.5401,1.563,1.5755,1.5755,1.5755,1.5755,1.5755,1.5755,1.5755,1.0074,1.0737,1.1449,1.2439,1.3031,1.3444,1.3743,1.4015,1.4205,1.4205,1.4265,1.432,1.432,1.432,1.432,1.432,1.432,1.432,1.432,1.432,1.432,1.432,1.432,1.432,1.432,1.432,1.432,1.432,1.432,1.432,1.432,1.432,1.432,1.432,1.432,1.432,1.432,1.432,1.432,1.432,1.4363,1.4434,1.4504,1.4673,1.4787,1.4858,1.4983,1.5037,1.5037,1.5037,1.5037,1.5037,1.5037,1.5037,1.5037,1.5037,1.5037,1.5037,1.5037,1.5037,1.5037,1.5037,1.5037,1.5037,1.5037,1.5037,1.5037,1.5037,1.5037,1.5037,1.5037,1.5037,1.5037,1.5037,1.5037,1.5037,1.5037,1.5037,1.5037,1.5037,1.5037,1.5037,1.5037,1.5037,1.5037,1.5037,1.5037,1.5037,1.5037,1.5037,1.5037,1.5037,1.5037,1.5037,1.5037,1.5037,1.5037,1.5037,1.5037,1.5081,1.5151,1.5304,1.5434,1.5505,1.5673,1.5755,1.5755,1.5755,1.5755,1.5755,1.5755,1.5711,0.9786,1.04,1.1107,1.1911,1.2439,1.2901,1.3423,1.376,1.3993,1.4108,1.4238,1.432,1.432,1.432,1.432,1.432,1.432,1.432,1.432,1.432,1.432,1.432,1.432,1.432,1.432,1.432,1.432,1.432,1.432,1.432,1.432,1.432,1.432,1.432,1.432,1.432,1.432,1.432,1.432,1.432,1.4363,1.4417,1.4504,1.4657,1.4787,1.4869,1.5026,1.5081,1.5037,1.5037,1.5037,1.5037,1.5037,1.5037,1.5037,1.5081,1.5081,1.5037,1.5081,1.5064,1.5037,1.5037,1.5037,1.5037,1.5037,1.5037,1.5037,1.5037,1.5037,1.5037,1.5037,1.5037,1.5037,1.5037,1.5037,1.5037,1.5037,1.5037,1.5037,1.5037,1.5037,1.5037,1.5037,1.5037,1.5037,1.5037,1.5037,1.5037,1.5037,1.5037,1.5037,1.5037,1.5037,1.5037,1.5037,1.5037,1.5037,1.5037,1.5037,1.5081,1.5151,1.5304,1.5434,1.5516,1.5673,1.5755,1.5755,1.5755,1.5755,1.5755,1.5755,1.5673,0.0,0.0,0.0,1.1656,1.1873,1.2145,1.3444,1.3656,1.3678,1.4053,1.4222,1.4309,1.432,1.432,1.432,1.432,1.432,1.432,1.432,1.432,1.432,1.432,1.432,1.432,1.432,1.432,1.432,1.432,1.432,1.432,1.432,1.432,1.432,1.432,1.432,1.432,1.432,1.432,1.432,1.432,1.4445,1.4504,1.4504,1.4744,1.4841,1.4869,1.5108,1.5151,1.5037,1.5037,1.5037,1.5037,1.5037,1.5037,1.5053,1.5179,1.5135,1.5053,1.5179,1.5135,1.5037,1.5037,1.5037,1.5037,1.5037,1.5037,1.5037,1.5037,1.5037,1.5037,1.5037,1.5037,1.5037,1.5037,1.5037,1.5037,1.5037,1.5037,1.5037,1.5037,1.5037,1.5037,1.5037,1.5037,1.5037,1.5037,1.5037,1.5037,1.5037,1.5037,1.5037,1.5037,1.5037,1.5037,1.5037,1.5037,1.5037,1.5037,1.5037,1.5037,1.5037,1.526,1.5391,1.5391,1.563,1.5755,1.5755,1.5755,1.5755,1.5755,1.5744,1.5613,0.9617,0.0,0.0,0.0,0.0,0.0,1.2433,1.2727,1.308,1.3955,1.3961,1.3934,1.4379,1.4379,1.432,1.432,1.432,1.432,1.432,1.432,1.432,1.432,1.432,1.432,1.432,1.432,1.432,1.432,1.432,1.432,1.432,1.432,1.432,1.432,1.432,1.432,1.432,1.432,1.432,1.432,1.4347,1.4379,1.4379,1.4532,1.4646,1.4727,1.4885,1.4983,1.5037,1.5135,1.5124,1.5037,1.5037,1.5037,1.5053,1.5179,1.5135,1.5053,1.5179,1.5135,1.5037,1.5037,1.5037,1.5037,1.5037,1.5037,1.5037,1.5037,1.5037,1.5037,1.5037,1.5037,1.5037,1.5037,1.5037,1.5037,1.5037,1.5037,1.5037,1.5037,1.5037,1.5037,1.5037,1.5037,1.5037,1.5037,1.5037,1.5037,1.5037,1.5037,1.5037,1.5037,1.5037,1.5037,1.5037,1.5037,1.5037,1.5037,1.5037,1.5081,1.5162,1.5304,1.5434,1.5516,1.5673,1.5755,1.5755,1.5755,1.5711,1.5613,1.5445,1.5331,0.9862,1.0079,1.0362,1.0699,0.0,0.0,1.2123,1.2428,1.2835,1.3917,1.3934,1.389,1.4347,1.4282,1.4178,1.4238,1.4249,1.4265,1.4309,1.432,1.432,1.432,1.432,1.432,1.432,1.432,1.432,1.432,1.432,1.432,1.432,1.432,1.432,1.432,1.432,1.432,1.432,1.432,1.432,1.432,1.4379,1.439,1.4407,1.4515,1.4646,1.476,1.4928,1.5026,1.5053,1.5222,1.5189,1.5037,1.5037,1.5037,1.5053,1.5233,1.5179,1.5064,1.5233,1.5179,1.5037,1.5037,1.5037,1.5037,1.5037,1.5037,1.5037,1.5037,1.5037,1.5037,1.5037,1.5037,1.5037,1.5037,1.5037,1.5037,1.5037,1.5037,1.5037,1.5037,1.5037,1.5037,1.5037,1.5037,1.5037,1.5037,1.5037,1.5037,1.5037,1.5037,1.5037,1.5037,1.5037,1.5037,1.5037,1.5037,1.5037,1.5037,1.5037,1.5092,1.5222,1.5331,1.5445,1.557,1.57,1.5728,1.5684,1.5684,1.5613,1.5488,1.5304,1.5222,1.0215,1.0329,1.053,1.0954,1.0916,0.0,1.214,1.2395,1.2705,1.376,1.3863,1.3847,1.4124,1.4004,1.3896,1.4004,1.4069,1.4167,1.4276,1.4309,1.4309,1.4309,1.4309,1.4309,1.432,1.432,1.432,1.432,1.432,1.432,1.432,1.432,1.432,1.432,1.432,1.432,1.432,1.432,1.432,1.432,1.4434,1.4488,1.4488,1.4586,1.47,1.4825,1.5053,1.5081,1.501,1.5233,1.5222,1.5037,1.5037,1.5037,1.5064,1.5293,1.5233,1.5064,1.5293,1.5222,1.5037,1.5037,1.5037,1.5037,1.5037,1.5037,1.5037,1.5037,1.5037,1.5037,1.5037,1.5037,1.5037,1.5037,1.5037,1.5037,1.5037,1.5037,1.5037,1.5037,1.5037,1.5037,1.5037,1.5037,1.5037,1.5037,1.5037,1.5037,1.5037,1.5037,1.5037,1.5037,1.5037,1.5037,1.5037,1.5037,1.5037,1.5037,1.5037,1.5092,1.5233,1.5331,1.5461,1.5586,1.5684,1.5673,1.5559,1.5543,1.5472,1.5363,1.5249,1.5206,1.0998,1.0902,1.0688,1.0786,1.0922,0.0,1.1444,1.159,1.1917,1.2803,1.2738,1.2683,1.3216,1.3276,1.3249,1.3276,1.3678,1.4037,1.4151,1.4178,1.4178,1.4178,1.4178,1.4205,1.4309,1.432,1.432,1.432,1.432,1.432,1.432,1.432,1.432,1.432,1.432,1.432,1.432,1.432,1.432,1.432,1.4347,1.4363,1.4363,1.4379,1.4461,1.4575,1.4619,1.4684,1.4754,1.4896,1.4994,1.5037,1.5037,1.5037,1.5053,1.5206,1.5162,1.5053,1.5206,1.5162,1.5037,1.5037,1.5037,1.5037,1.5037,1.5037,1.5037,1.5037,1.5037,1.5037,1.5037,1.5037,1.5037,1.5037,1.5037,1.5037,1.5037,1.5037,1.5037,1.5037,1.5037,1.5037,1.5037,1.5037,1.5037,1.5037,1.5037,1.5037,1.5037,1.5037,1.5037,1.5037,1.5037,1.5037,1.5037,1.5037,1.5037,1.5037,1.5037,1.5135,1.5347,1.5374,1.5488,1.5711,1.5641,1.5543,1.5434,1.5331,1.5276,1.5249,1.5135,1.5081,1.1438,1.1115,1.0857,1.0976,1.1009,0.0,0.0,1.1455,1.1694,1.2531,1.2422,1.2335,1.2879,1.2835,1.2792,1.3031,1.3368,1.3618,1.3684,1.4053,1.4292,1.4238,1.4222,1.4249,1.432,1.432,1.432,1.432,1.432,1.432,1.432,1.432,1.432,1.432,1.432,1.432,1.432,1.432,1.432,1.432,1.432,1.432,1.432,1.432,1.439,1.4504,1.4559,1.4619,1.4689,1.4869,1.4939,1.4956,1.501,1.5037,1.5053,1.5179,1.5135,1.5053,1.5179,1.5135,1.5037,1.5037,1.5037,1.5037,1.5037,1.5037,1.5037,1.5037,1.5037,1.5037,1.5037,1.5037,1.5037,1.5037,1.5037,1.5037,1.5037,1.5037,1.5037,1.5037,1.5037,1.5037,1.5037,1.5037,1.5037,1.5037,1.5037,1.5037,1.5037,1.5037,1.5037,1.5037,1.5037,1.5037,1.5037,1.5037,1.5037,1.5037,1.5037,1.5151,1.5374,1.5391,1.5472,1.5657,1.5543,1.5418,1.5304,1.5189,1.5135,1.5124,1.5064,1.5037,1.2063,1.1709,1.1429,1.1552,1.1491,1.1474,0.0,0.0,0.0,1.2455,1.2389,1.2339,1.2737,1.2395,1.2319,1.264,1.2922,1.3069,1.2977,1.3694,1.4195,1.4343,1.4393,1.4448,1.4476,1.4292,1.432,1.432,1.432,1.432,1.432,1.432,1.432,1.432,1.432,1.432,1.432,1.432,1.432,1.432,1.432,1.432,1.432,1.432,1.4379,1.4477,1.4559,1.4602,1.4619,1.4841,1.4885,1.4841,1.4983,1.5037,1.5053,1.5151,1.5124,1.5053,1.5151,1.5124,1.5037,1.5037,1.5037,1.5037,1.501,1.4994,1.4994,1.4967,1.4967,1.4967,1.4994,1.4994,1.501,1.5037,1.5037,1.5037,1.5037,1.5037,1.5037,1.5037,1.5037,1.5037,1.5037,1.5037,1.5037,1.5037,1.5037,1.5037,1.5037,1.5037,1.5037,1.5037,1.5037,1.5037,1.5037,1.5037,1.5037,1.5037,1.5037,1.5151,1.5374,1.5418,1.5472,1.557,1.5434,1.5304,1.5222,1.5092,1.5037,1.5037,1.5037,1.5037,1.3292,1.2984,1.2734,1.2397,1.2565,1.2674,1.2137,0.0,1.2662,1.2523,0.0,1.2269,1.2327,0.0,0.0,1.1368,1.2053,1.2466,1.2042,1.2705,1.3471,1.3973,1.4915,1.5177,1.4856,1.442,1.432,1.432,1.432,1.432,1.432,1.432,1.432,1.432,1.432,1.432,1.432,1.432,1.432,1.432,1.432,1.432,1.432,1.432,1.4336,1.4347,1.4347,1.4363,1.4379,1.4504,1.4619,1.4716,1.4956,1.5037,1.5037,1.5053,1.5053,1.5037,1.5053,1.5053,1.5037,1.5037,1.5037,1.5021,1.4912,1.4869,1.4858,1.4744,1.4716,1.4744,1.4841,1.4869,1.4896,1.501,1.5037,1.5037,1.5037,1.5037,1.5037,1.5037,1.5037,1.5037,1.5037,1.5037,1.5037,1.5037,1.5037,1.5037,1.5037,1.5037,1.5037,1.5037,1.5037,1.5037,1.5037,1.5037,1.5037,1.5037,1.5037,1.5151,1.5374,1.5488,1.5559,1.557,1.5347,1.5233,1.5222,1.5092,1.5037,1.5037,1.5037,1.5037,1.35,1.3224,1.2907,1.2734,1.2764,1.2663,1.2174,1.2301,1.2417,1.246,0.0,0.0,0.0,0.0,0.0,0.0,1.1808,1.2025,1.1754,1.2444,1.3336,1.3811,1.4194,1.4428,1.4573,1.47,1.4856,1.4646,1.4529,1.4501,1.4646,1.4503,1.432,1.432,1.432,1.432,1.432,1.432,1.432,1.432,1.432,1.432,1.432,1.432,1.432,1.432,1.432,1.432,1.4336,1.445,1.4532,1.4586,1.4754,1.4912,1.5037,1.5037,1.5037,1.5021,1.4956,1.4923,1.4923,1.4923,1.4923,1.4923,1.4869,1.4798,1.4744,1.4689,1.4673,1.4689,1.4744,1.4744,1.4787,1.4896,1.4923,1.4956,1.5021,1.5037,1.5037,1.5037,1.5037,1.5037,1.5037,1.5037,1.5037,1.5037,1.5037,1.5037,1.5037,1.5037,1.5037,1.5037,1.5037,1.5037,1.5037,1.5037,1.5037,1.5037,1.5162,1.5293,1.5391,1.5505,1.5505,1.5374,1.5276,1.5189,1.5108,1.5064,1.5037,1.5037,1.5037,1.5037,1.3706,1.3481,1.3228,1.311,1.3031,1.283,1.2588,1.2728,1.2665,1.2784,1.2509,0.0,0.0,0.0,1.1591,1.172,0.0,1.195,1.1726,1.2448,1.3093,1.352,1.3725,1.4196,1.4612,1.4922,1.5115,1.5049,1.4897,1.4706,1.5006,1.4658,1.4503,1.432,1.432,1.432,1.432,1.432,1.432,1.432,1.432,1.432,1.432,1.432,1.432,1.432,1.432,1.432,1.432,1.4417,1.4488,1.4559,1.4646,1.4825,1.5021,1.4967,1.4939,1.4923,1.4841,1.4798,1.4798,1.4798,1.4798,1.4798,1.4771,1.47,1.4619,1.4586,1.4575,1.4586,1.4619,1.4629,1.4657,1.4814,1.4858,1.4885,1.501,1.5037,1.5037,1.5037,1.5037,1.5037,1.5037,1.5037,1.5037,1.5037,1.5037,1.5037,1.5037,1.5037,1.5037,1.5037,1.5037,1.5037,1.5037,1.5037,1.5053,1.5081,1.5276,1.5391,1.5391,1.5445,1.5391,1.5222,1.5189,1.5124,1.5037,1.5037,1.5037,1.5037,1.5037,1.5037,1.4355,1.436,1.431,1.4189,1.4024,1.3988,1.3713,1.3846,1.419,1.3899,1.3768,1.3894,1.3636,1.3224,1.2698,1.2185,1.2435,0.0,0.0,1.2258,1.2722,1.3248,1.4278,1.4941,1.5093,1.4948,1.5008,1.5072,1.5084,1.504,1.5006,1.5018,1.4867,1.432,1.432,1.432,1.432,1.432,1.432,1.432,1.432,1.432,1.432,1.432,1.432,1.432,1.432,1.432,1.432,1.432,1.4461,1.4673,1.4673,1.4825,1.501,1.4771,1.4689,1.4689,1.4689,1.4673,1.4673,1.4673,1.4673,1.4657,1.4548,1.4515,1.4488,1.4363,1.4336,1.4363,1.4477,1.4504,1.4575,1.4798,1.4858,1.4885,1.501,1.5037,1.5037,1.5037,1.5037,1.5037,1.5037,1.5037,1.5037,1.5037,1.5037,1.5037,1.5037,1.5037,1.5037,1.5037,1.5037,1.5037,1.5037,1.5037,1.5092,1.5206,1.532,1.5391,1.5391,1.5293,1.5233,1.5222,1.5108,1.5037,1.5037,1.5037,1.5037,1.5037,1.5037,1.5037,1.5063,1.4843,1.4535,1.4329,1.4138,1.3996,1.3725,1.3971,1.4089,1.3885,1.3885,1.3738,1.3561,1.3226,1.262,1.2616,1.2565,1.2411,0.0,1.221,1.2539,1.3089,1.4205,1.495,1.4706,1.5151,1.5544,1.5415,1.5515,1.5537,1.5307,1.5196,1.4855,1.432,1.432,1.432,1.432,1.432,1.432,1.432,1.432,1.432,1.432,1.432,1.432,1.432,1.432,1.432,1.432,1.432,1.4363,1.4434,1.4434,1.4488,1.4586,1.4825,1.4869,1.4771,1.4619,1.4559,1.4559,1.4559,1.4559,1.4559,1.4515,1.445,1.4379,1.4336,1.432,1.4336,1.4379,1.4379,1.445,1.4673,1.4727,1.4787,1.4994,1.5037,1.5037,1.5037,1.5037,1.5037,1.5037,1.5037,1.5037,1.5037,1.5037,1.5037,1.5037,1.5037,1.5037,1.5037,1.5037,1.5037,1.5037,1.5108,1.5206,1.532,1.5363,1.5363,1.5276,1.5233,1.5179,1.5108,1.5064,1.5037,1.5037,1.5037,1.5037,1.5037,1.5037,1.5037,1.5595,1.5135,1.4815,1.4746,1.4376,1.4072,1.3939,1.3996,1.4271,1.3939,1.401,1.4037,1.4081,1.3663,1.323,1.3266,1.3198,1.2866,0.0,1.2578,1.2775,1.3184,1.4021,1.4611,1.4591,1.5247,1.5663,1.5864,1.5851,1.5886,1.5662,1.5343,1.5035,1.432,1.432,1.432,1.432,1.432,1.432,1.432,1.432,1.432,1.432,1.432,1.432,1.432,1.432,1.432,1.432,1.432,1.4347,1.439,1.439,1.4407,1.4477,1.47,1.4727,1.4646,1.4488,1.4434,1.4434,1.4434,1.4434,1.4434,1.4434,1.4379,1.4336,1.4417,1.439,1.4336,1.4417,1.4379,1.4379,1.4559,1.4619,1.4673,1.4869,1.4912,1.4923,1.4967,1.4967,1.4983,1.5021,1.5037,1.5037,1.5037,1.5037,1.5037,1.5037,1.5037,1.5037,1.5037,1.5037,1.5021,1.4983,1.5124,1.5233,1.526,1.5304,1.5293,1.5222,1.5179,1.5124,1.5037,1.5037,1.5037,1.5037,1.5037,1.5037,1.5037,1.5037,1.5037]}]]